ftp/pub/palmer/observations_modified/2019/November/AR191122_AWS3.txt

Download

Sample DateTime	Unit Id	WS Avg 2min	WD Avg 2min	WGS 10min	WGD 10min	Air Temp	Rel Humidity	Dew Point	Pyranometer	Quantum	Air Pressure	Snow Level	Rainfall	PW Current	Visibility	CBase 1	CBase 2	CBase 3	Vert Vis
2019/11/22 00:00:00	AWS3	5.54	36	6.48	34	-2.8	64	-8.6	NA	NA	989.8	NA	NA		M	NA	NA	NA	NA
2019/11/22 00:01:00	AWS3	5.78	35	6.74	34	-2.8	64	-8.7	NA	NA	989.8	NA	NA		M	NA	NA	NA	NA
2019/11/22 00:02:00	AWS3	5.72	37	6.89	46	-2.8	64	-8.6	NA	NA	989.8	NA	NA		M	NA	NA	NA	NA
2019/11/22 00:03:00	AWS3	5.73	38	6.89	46	-2.8	65	-8.5	NA	NA	989.8	NA	NA		M	NA	NA	NA	NA
2019/11/22 00:04:00	AWS3	5.69	40	6.89	46	-2.8	65	-8.5	NA	NA	989.8	NA	NA		M	NA	NA	NA	NA
2019/11/22 00:05:00	AWS3	5.71	38	6.89	46	-2.9	65	-8.6	NA	NA	989.7	NA	NA		M	NA	NA	NA	NA
2019/11/22 00:06:00	AWS3	5.67	39	6.89	46	-2.9	64	-8.7	NA	NA	989.8	NA	NA		M	NA	NA	NA	NA
2019/11/22 00:07:00	AWS3	5.65	40	6.89	46	-2.9	64	-8.7	NA	NA	989.7	NA	NA		M	NA	NA	NA	NA
2019/11/22 00:08:00	AWS3	5.59	40	6.89	46	-2.9	64	-8.7	NA	NA	989.9	NA	NA		M	NA	NA	NA	NA
2019/11/22 00:09:01	AWS3	5.38	40	6.89	46	-2.9	65	-8.6	NA	NA	989.8	NA	NA		M	NA	NA	NA	NA
2019/11/22 00:10:00	AWS3	5.33	37	6.89	46	-2.9	65	-8.6	NA	NA	989.8	NA	NA		M	NA	NA	NA	NA
2019/11/22 00:11:00	AWS3	5.15	34	6.89	46	-2.9	65	-8.6	NA	NA	989.9	NA	NA		M	NA	NA	NA	NA
2019/11/22 00:12:00	AWS3	5.08	36	6.84	39	-2.9	65	-8.5	NA	NA	989.8	NA	NA		M	NA	NA	NA	NA
2019/11/22 00:13:00	AWS3	5.46	36	6.84	39	-2.9	66	-8.4	NA	NA	989.8	NA	NA		M	NA	NA	NA	NA
2019/11/22 00:14:00	AWS3	5.79	36	6.84	39	-2.9	66	-8.4	NA	NA	989.7	NA	NA		M	NA	NA	NA	NA
2019/11/22 00:15:00	AWS3	5.45	39	6.84	39	-2.9	66	-8.4	NA	NA	989.8	NA	NA		M	NA	NA	NA	NA
2019/11/22 00:16:00	AWS3	5.43	36	6.84	39	-2.9	66	-8.4	NA	NA	989.8	NA	NA		M	NA	NA	NA	NA
2019/11/22 00:17:00	AWS3	5.92	34	6.74	40	-2.9	66	-8.4	NA	NA	989.7	NA	NA		M	NA	NA	NA	NA
2019/11/22 00:18:00	AWS3	6.34	35	7.20	29	-2.9	66	-8.4	NA	NA	989.7	NA	NA		M	NA	NA	NA	NA
2019/11/22 00:19:00	AWS3	6.43	35	7.20	29	-2.9	66	-8.4	NA	NA	989.7	NA	NA		M	NA	NA	NA	NA
2019/11/22 00:20:00	AWS3	6.49	36	7.56	37	-2.9	66	-8.4	NA	NA	989.6	NA	NA		M	NA	NA	NA	NA
2019/11/22 00:21:00	AWS3	6.69	36	7.56	37	-2.9	66	-8.4	NA	NA	989.7	NA	NA		M	NA	NA	NA	NA
2019/11/22 00:22:00	AWS3	7.00	36	7.72	42	-2.9	66	-8.3	NA	NA	989.6	NA	NA		M	NA	NA	NA	NA
2019/11/22 00:23:00	AWS3	7.36	34	7.92	29	-2.9	66	-8.4	NA	NA	989.6	NA	NA		M	NA	NA	NA	NA
2019/11/22 00:24:00	AWS3	7.13	31	7.92	29	-2.9	66	-8.5	NA	NA	989.7	NA	NA		M	NA	NA	NA	NA
2019/11/22 00:25:00	AWS3	6.49	31	7.92	29	-2.9	66	-8.4	NA	NA	989.7	NA	NA		M	NA	NA	NA	NA
2019/11/22 00:26:00	AWS3	6.37	31	7.92	29	-2.9	66	-8.4	NA	NA	989.6	NA	NA		M	NA	NA	NA	NA
2019/11/22 00:27:00	AWS3	6.58	29	7.92	29	-2.9	66	-8.4	NA	NA	989.7	NA	NA		M	NA	NA	NA	NA
2019/11/22 00:28:00	AWS3	6.42	33	7.92	29	-2.9	66	-8.4	NA	NA	989.6	NA	NA		M	NA	NA	NA	NA
2019/11/22 00:29:00	AWS3	6.76	33	7.92	31	-2.8	66	-8.4	NA	NA	989.5	NA	NA		M	NA	NA	NA	NA
2019/11/22 00:30:00	AWS3	6.90	30	7.92	31	-2.8	65	-8.4	NA	NA	989.7	NA	NA		M	NA	NA	NA	NA
2019/11/22 00:31:00	AWS3	6.82	29	7.92	31	-2.8	65	-8.6	NA	NA	989.6	NA	NA		M	NA	NA	NA	NA
2019/11/22 00:32:00	AWS3	7.07	32	7.97	40	-2.8	64	-8.6	NA	NA	989.5	NA	NA		M	NA	NA	NA	NA
2019/11/22 00:33:00	AWS3	7.18	37	7.97	40	-2.8	64	-8.7	NA	NA	989.4	NA	NA		M	NA	NA	NA	NA
2019/11/22 00:34:00	AWS3	7.19	38	7.97	40	-2.8	64	-8.7	NA	NA	989.5	NA	NA		M	NA	NA	NA	NA
2019/11/22 00:35:00	AWS3	7.38	38	8.28	41	-2.8	64	-8.7	NA	NA	989.4	NA	NA		M	NA	NA	NA	NA
2019/11/22 00:36:00	AWS3	7.69	35	8.28	41	-2.8	64	-8.7	NA	NA	989.5	NA	NA		M	NA	NA	NA	NA
2019/11/22 00:37:00	AWS3	7.45	31	8.28	41	-2.8	63	-8.8	NA	NA	989.5	NA	NA		M	NA	NA	NA	NA
2019/11/22 00:38:00	AWS3	6.63	32	8.28	41	-2.8	64	-8.7	NA	NA	989.5	NA	NA		M	NA	NA	NA	NA
2019/11/22 00:39:00	AWS3	6.32	34	8.28	41	-2.8	64	-8.7	NA	NA	989.6	NA	NA		M	NA	NA	NA	NA
2019/11/22 00:40:00	AWS3	6.75	36	8.28	41	-2.8	64	-8.7	NA	NA	989.5	NA	NA		M	NA	NA	NA	NA
2019/11/22 00:41:00	AWS3	7.05	38	8.28	41	-2.8	64	-8.7	NA	NA	989.5	NA	NA		M	NA	NA	NA	NA
2019/11/22 00:42:00	AWS3	7.04	36	8.28	41	-2.8	64	-8.7	NA	NA	989.6	NA	NA		M	NA	NA	NA	NA
2019/11/22 00:43:00	AWS3	6.56	35	8.28	41	-2.8	64	-8.7	NA	NA	989.5	NA	NA		M	NA	NA	NA	NA
2019/11/22 00:44:00	AWS3	6.46	36	8.28	41	-2.8	64	-8.7	NA	NA	989.4	NA	NA		M	NA	NA	NA	NA
2019/11/22 00:45:00	AWS3	6.67	37	8.03	33	-2.8	64	-8.6	NA	NA	989.5	NA	NA		M	NA	NA	NA	NA
2019/11/22 00:46:00	AWS3	6.18	38	7.77	36	-2.8	64	-8.6	NA	NA	989.5	NA	NA		M	NA	NA	NA	NA
2019/11/22 00:47:00	AWS3	5.57	36	7.72	40	-2.8	65	-8.5	NA	NA	989.6	NA	NA		M	NA	NA	NA	NA
2019/11/22 00:48:00	AWS3	6.00	37	7.82	37	-2.8	65	-8.5	NA	NA	989.5	NA	NA		M	NA	NA	NA	NA
2019/11/22 00:49:00	AWS3	6.22	43	7.82	37	-2.8	65	-8.5	NA	NA	989.5	NA	NA		M	NA	NA	NA	NA
2019/11/22 00:50:00	AWS3	6.08	40	7.82	37	-2.8	65	-8.5	NA	NA	989.6	NA	NA		M	NA	NA	NA	NA
2019/11/22 00:51:00	AWS3	6.42	35	7.82	37	-2.8	65	-8.5	NA	NA	989.5	NA	NA		M	NA	NA	NA	NA
2019/11/22 00:52:00	AWS3	6.58	35	7.82	37	-2.8	65	-8.5	NA	NA	989.4	NA	NA		M	NA	NA	NA	NA
2019/11/22 00:53:00	AWS3	6.95	40	7.82	45	-2.8	65	-8.5	NA	NA	989.4	NA	NA		M	NA	NA	NA	NA
2019/11/22 00:54:00	AWS3	6.80	47	7.82	45	-2.8	65	-8.5	NA	NA	989.5	NA	NA		M	NA	NA	NA	NA
2019/11/22 00:55:00	AWS3	6.58	44	7.82	45	-2.8	65	-8.5	NA	NA	989.4	NA	NA		M	NA	NA	NA	NA
2019/11/22 00:56:00	AWS3	6.54	39	7.82	45	-2.8	65	-8.4	NA	NA	989.5	NA	NA		M	NA	NA	NA	NA
2019/11/22 00:57:00	AWS3	6.43	41	7.82	45	-2.8	65	-8.4	NA	NA	989.4	NA	NA		M	NA	NA	NA	NA
2019/11/22 00:58:00	AWS3	6.45	41	7.82	45	-2.8	65	-8.4	NA	NA	989.4	NA	NA		M	NA	NA	NA	NA
2019/11/22 00:59:00	AWS3	6.38	39	7.82	45	-2.8	66	-8.3	NA	NA	989.3	NA	NA		M	NA	NA	NA	NA
2019/11/22 01:00:00	AWS3	6.02	39	7.82	45	-2.8	66	-8.3	NA	NA	989.5	NA	NA		M	NA	NA	NA	NA
2019/11/22 01:01:00	AWS3	5.86	40	7.82	45	-2.8	66	-8.3	NA	NA	989.2	NA	NA		M	NA	NA	NA	NA
2019/11/22 01:02:00	AWS3	6.22	38	7.82	45	-2.8	66	-8.3	NA	NA	989.4	NA	NA		M	NA	NA	NA	NA
2019/11/22 01:03:00	AWS3	6.34	40	7.72	34	-2.8	66	-8.3	NA	NA	989.4	NA	NA		M	NA	NA	NA	NA
2019/11/22 01:04:00	AWS3	6.31	41	7.72	34	-2.8	66	-8.3	NA	NA	989.4	NA	NA		M	NA	NA	NA	NA
2019/11/22 01:05:00	AWS3	5.73	42	7.61	44	-2.8	66	-8.2	NA	NA	989.4	NA	NA		M	NA	NA	NA	NA
2019/11/22 01:06:00	AWS3	5.68	45	7.61	44	-2.8	66	-8.2	NA	NA	989.5	NA	NA		M	NA	NA	NA	NA
2019/11/22 01:07:00	AWS3	6.40	45	7.61	44	-2.8	66	-8.2	NA	NA	989.3	NA	NA		M	NA	NA	NA	NA
2019/11/22 01:08:00	AWS3	6.55	44	7.61	44	-2.8	66	-8.2	NA	NA	989.4	NA	NA		M	NA	NA	NA	NA
2019/11/22 01:09:00	AWS3	6.47	44	7.61	44	-2.8	66	-8.2	NA	NA	989.2	NA	NA		M	NA	NA	NA	NA
2019/11/22 01:10:00	AWS3	6.71	44	7.61	44	-2.8	66	-8.3	NA	NA	989.3	NA	NA		M	NA	NA	NA	NA
2019/11/22 01:11:00	AWS3	6.82	41	7.97	46	-2.8	66	-8.3	NA	NA	989.3	NA	NA		M	NA	NA	NA	NA
2019/11/22 01:12:00	AWS3	6.60	39	7.97	46	-2.8	66	-8.3	NA	NA	989.3	NA	NA		M	NA	NA	NA	NA
2019/11/22 01:13:00	AWS3	6.22	38	7.97	46	-2.8	66	-8.3	NA	NA	989.4	NA	NA		M	NA	NA	NA	NA
2019/11/22 01:14:00	AWS3	5.71	38	7.97	46	-2.8	66	-8.3	NA	NA	989.4	NA	NA		M	NA	NA	NA	NA
2019/11/22 01:15:00	AWS3	5.02	38	7.97	46	-2.8	66	-8.3	NA	NA	989.5	NA	NA		M	NA	NA	NA	NA
2019/11/22 01:16:00	AWS3	4.68	41	7.97	46	-2.8	66	-8.3	NA	NA	989.5	NA	NA		M	NA	NA	NA	NA
2019/11/22 01:17:00	AWS3	4.99	48	7.97	46	-2.8	67	-8.2	NA	NA	989.6	NA	NA		M	NA	NA	NA	NA
2019/11/22 01:18:00	AWS3	5.25	49	7.97	46	-2.8	67	-8.1	NA	NA	989.4	NA	NA		M	NA	NA	NA	NA
2019/11/22 01:19:00	AWS3	4.94	50	7.97	46	-2.8	68	-8.0	NA	NA	989.6	NA	NA		M	NA	NA	NA	NA
2019/11/22 01:20:00	AWS3	4.73	54	7.97	46	-2.8	68	-7.9	NA	NA	989.5	NA	NA		M	NA	NA	NA	NA
2019/11/22 01:21:00	AWS3	4.89	58	7.20	38	-2.8	68	-7.9	NA	NA	989.6	NA	NA		M	NA	NA	NA	NA
2019/11/22 01:22:00	AWS3	5.19	63	6.58	38	-2.8	67	-8.0	NA	NA	989.7	NA	NA		M	NA	NA	NA	NA
2019/11/22 01:23:00	AWS3	4.94	70	6.33	60	-2.8	67	-8.1	NA	NA	989.6	NA	NA		M	NA	NA	NA	NA
2019/11/22 01:24:00	AWS3	4.56	76	6.33	60	-2.8	67	-8.1	NA	NA	989.6	NA	NA		M	NA	NA	NA	NA
2019/11/22 01:25:00	AWS3	4.61	75	6.33	60	-2.8	67	-8.2	NA	NA	989.8	NA	NA		M	NA	NA	NA	NA
2019/11/22 01:26:00	AWS3	4.54	78	6.33	60	-2.8	67	-8.1	NA	NA	989.5	NA	NA		M	NA	NA	NA	NA
2019/11/22 01:27:00	AWS3	4.65	79	6.28	61	-2.8	67	-8.1	NA	NA	989.6	NA	NA		M	NA	NA	NA	NA
2019/11/22 01:28:00	AWS3	4.51	79	5.81	60	-2.8	67	-8.0	NA	NA	989.9	NA	NA		M	NA	NA	NA	NA
2019/11/22 01:29:00	AWS3	4.47	89	5.81	60	-2.8	67	-8.0	NA	NA	989.8	NA	NA		M	NA	NA	NA	NA
2019/11/22 01:30:00	AWS3	5.12	94	5.92	83	-2.8	67	-8.1	NA	NA	989.7	NA	NA		M	NA	NA	NA	NA
2019/11/22 01:31:00	AWS3	5.41	92	5.97	84	-2.8	67	-8.2	NA	NA	989.6	NA	NA		M	NA	NA	NA	NA
2019/11/22 01:32:00	AWS3	5.22	94	5.97	84	-2.8	67	-8.2	NA	NA	989.6	NA	NA		M	NA	NA	NA	NA
2019/11/22 01:33:00	AWS3	4.83	98	5.97	84	-2.9	67	-8.2	NA	NA	989.6	NA	NA		M	NA	NA	NA	NA
2019/11/22 01:34:00	AWS3	4.96	98	5.97	84	-2.9	67	-8.2	NA	NA	989.6	NA	NA		M	NA	NA	NA	NA
2019/11/22 01:35:00	AWS3	5.18	97	5.97	84	-2.9	68	-8.1	NA	NA	989.7	NA	NA		M	NA	NA	NA	NA
2019/11/22 01:36:00	AWS3	4.84	101	5.97	84	-2.9	68	-8.0	NA	NA	989.7	NA	NA		M	NA	NA	NA	NA
2019/11/22 01:37:00	AWS3	4.67	104	5.97	84	-3.0	68	-8.0	NA	NA	989.5	NA	NA		M	NA	NA	NA	NA
2019/11/22 01:38:00	AWS3	4.52	101	5.97	84	-3.0	68	-8.0	NA	NA	989.6	NA	NA		M	NA	NA	NA	NA
2019/11/22 01:39:00	AWS3	4.60	100	5.97	84	-2.9	68	-8.1	NA	NA	989.8	NA	NA		M	NA	NA	NA	NA
2019/11/22 01:40:00	AWS3	4.64	99	5.97	84	-2.9	67	-8.1	NA	NA	989.5	NA	NA		M	NA	NA	NA	NA
2019/11/22 01:41:00	AWS3	4.32	95	5.71	98	-2.9	67	-8.1	NA	NA	989.8	NA	NA		M	NA	NA	NA	NA
2019/11/22 01:42:00	AWS3	4.20	99	5.71	98	-2.9	68	-8.0	NA	NA	989.7	NA	NA		M	NA	NA	NA	NA
2019/11/22 01:43:00	AWS3	4.24	103	5.71	98	-2.9	68	-7.9	NA	NA	989.5	NA	NA		M	NA	NA	NA	NA
2019/11/22 01:44:00	AWS3	4.30	100	5.50	101	-2.9	69	-7.8	NA	NA	989.7	NA	NA		M	NA	NA	NA	NA
2019/11/22 01:45:00	AWS3	4.39	99	5.50	101	-2.9	69	-7.8	NA	NA	989.8	NA	NA		M	NA	NA	NA	NA
2019/11/22 01:46:00	AWS3	4.33	99	5.40	98	-3.0	70	-7.8	NA	NA	989.7	NA	NA		M	NA	NA	NA	NA
2019/11/22 01:47:00	AWS3	4.17	94	5.40	98	-3.0	70	-7.7	NA	NA	989.8	NA	NA		M	NA	NA	NA	NA
2019/11/22 01:48:00	AWS3	4.05	93	4.99	95	-3.0	70	-7.7	NA	NA	989.7	NA	NA		M	NA	NA	NA	NA
2019/11/22 01:49:00	AWS3	3.91	98	4.99	95	-3.0	71	-7.6	NA	NA	989.7	NA	NA		M	NA	NA	NA	NA
2019/11/22 01:50:00	AWS3	4.01	100	4.68	87	-3.0	71	-7.5	NA	NA	989.5	NA	NA		M	NA	NA	NA	NA
2019/11/22 01:51:00	AWS3	4.13	100	4.58	100	-3.0	72	-7.4	NA	NA	989.8	NA	NA		M	NA	NA	NA	NA
2019/11/22 01:52:00	AWS3	3.73	98	4.58	100	-3.0	72	-7.4	NA	NA	989.6	NA	NA		M	NA	NA	NA	NA
2019/11/22 01:53:00	AWS3	3.45	100	4.58	100	-3.0	72	-7.3	NA	NA	989.7	NA	NA		M	NA	NA	NA	NA
2019/11/22 01:54:00	AWS3	3.50	100	4.58	100	-3.0	72	-7.4	NA	NA	989.7	NA	NA		M	NA	NA	NA	NA
2019/11/22 01:55:00	AWS3	3.53	96	4.58	100	-3.0	72	-7.4	NA	NA	989.8	NA	NA		M	NA	NA	NA	NA
2019/11/22 01:56:00	AWS3	3.48	98	4.58	100	-3.0	72	-7.4	NA	NA	989.8	NA	NA		M	NA	NA	NA	NA
2019/11/22 01:57:00	AWS3	3.33	102	4.58	100	-3.1	72	-7.4	NA	NA	989.8	NA	NA		M	NA	NA	NA	NA
2019/11/22 01:58:00	AWS3	3.37	105	4.58	100	-3.1	72	-7.4	NA	NA	989.8	NA	NA		M	NA	NA	NA	NA
2019/11/22 01:59:00	AWS3	3.40	109	4.58	100	-3.0	72	-7.4	NA	NA	989.8	NA	NA		M	NA	NA	NA	NA
2019/11/22 02:00:00	AWS3	3.14	112	4.42	95	-3.0	72	-7.4	NA	NA	989.8	NA	NA		M	NA	NA	NA	NA
2019/11/22 02:01:00	AWS3	2.87	115	4.17	114	-3.0	71	-7.5	NA	NA	989.8	NA	NA		M	NA	NA	NA	NA
2019/11/22 02:02:00	AWS3	2.78	116	4.17	114	-3.0	71	-7.5	NA	NA	989.8	NA	NA		M	NA	NA	NA	NA
2019/11/22 02:03:00	AWS3	3.01	113	4.17	114	-3.0	71	-7.5	NA	NA	989.8	NA	NA		M	NA	NA	NA	NA
2019/11/22 02:04:00	AWS3	3.06	111	4.17	114	-3.0	71	-7.5	NA	NA	989.8	NA	NA		M	NA	NA	NA	NA
2019/11/22 02:05:00	AWS3	2.80	114	4.17	114	-3.0	71	-7.5	NA	NA	989.7	NA	NA		M	NA	NA	NA	NA
2019/11/22 02:06:00	AWS3	2.47	116	4.17	114	-3.0	71	-7.5	NA	NA	989.8	NA	NA		M	NA	NA	NA	NA
2019/11/22 02:07:00	AWS3	1.98	113	4.17	114	-3.0	71	-7.6	NA	NA	989.7	NA	NA		M	NA	NA	NA	NA
2019/11/22 02:08:00	AWS3	1.91	113	4.17	114	-2.9	70	-7.6	NA	NA	989.8	NA	NA		M	NA	NA	NA	NA
2019/11/22 02:09:00	AWS3	2.14	118	3.55	114	-2.9	70	-7.6	NA	NA	989.8	NA	NA		M	NA	NA	NA	NA
2019/11/22 02:10:00	AWS3	2.26	113	3.55	114	-2.9	70	-7.7	NA	NA	989.9	NA	NA		M	NA	NA	NA	NA
2019/11/22 02:11:00	AWS3	2.57	103	3.55	114	-2.9	70	-7.6	NA	NA	989.9	NA	NA		M	NA	NA	NA	NA
2019/11/22 02:12:00	AWS3	2.39	111	3.50	110	-2.9	70	-7.7	NA	NA	989.8	NA	NA		M	NA	NA	NA	NA
2019/11/22 02:13:00	AWS3	1.75	120	3.40	116	-3.0	69	-7.8	NA	NA	989.9	NA	NA		M	NA	NA	NA	NA
2019/11/22 02:14:00	AWS3	1.71	111	3.04	120	-2.9	69	-7.8	NA	NA	989.9	NA	NA		M	NA	NA	NA	NA
2019/11/22 02:15:00	AWS3	1.97	104	2.88	96	-2.9	69	-7.8	NA	NA	989.9	NA	NA		M	NA	NA	NA	NA
2019/11/22 02:16:00	AWS3	1.76	106	2.88	96	-2.9	69	-7.9	NA	NA	989.9	NA	NA		M	NA	NA	NA	NA
2019/11/22 02:17:00	AWS3	1.58	104	2.88	96	-2.9	69	-7.8	NA	NA	989.9	NA	NA		M	NA	NA	NA	NA
2019/11/22 02:18:00	AWS3	1.56	105	2.88	96	-2.9	69	-7.7	NA	NA	989.9	NA	NA		M	NA	NA	NA	NA
2019/11/22 02:19:00	AWS3	1.65	107	2.88	96	-2.9	70	-7.6	NA	NA	989.9	NA	NA		M	NA	NA	NA	NA
2019/11/22 02:20:00	AWS3	1.58	105	2.88	96	-2.8	70	-7.6	NA	NA	989.9	NA	NA		M	NA	NA	NA	NA
2019/11/22 02:21:00	AWS3	0.84	121	2.47	107	-2.8	70	-7.6	NA	NA	989.9	NA	NA		M	NA	NA	NA	NA
2019/11/22 02:22:00	AWS3	0.31	122	2.42	96	-2.8	69	-7.6	NA	NA	989.9	NA	NA		M	NA	NA	NA	NA
2019/11/22 02:23:00	AWS3	0.96	122	2.42	96	-2.8	69	-7.7	NA	NA	989.9	NA	NA		M	NA	NA	NA	NA
2019/11/22 02:24:00	AWS3	1.61	133	2.26	96	-2.8	68	-7.8	NA	NA	989.9	NA	NA		M	NA	NA	NA	NA
2019/11/22 02:25:00	AWS3	0.98	143	2.26	96	-2.8	68	-7.9	NA	NA	989.9	NA	NA		M	NA	NA	NA	NA
2019/11/22 02:26:00	AWS3	0.23	154	2.26	96	-2.8	67	-8.1	NA	NA	989.8	NA	NA		M	NA	NA	NA	NA
2019/11/22 02:27:00	AWS3	0.09	100	2.26	96	-2.8	66	-8.3	NA	NA	989.9	NA	NA		M	NA	NA	NA	NA
2019/11/22 02:28:00	AWS3	0.14	91	2.26	96	-2.8	66	-8.4	NA	NA	989.8	NA	NA		M	NA	NA	NA	NA
2019/11/22 02:29:00	AWS3	0.27	114	2.11	98	-2.8	65	-8.4	NA	NA	989.9	NA	NA		M	NA	NA	NA	NA
2019/11/22 02:30:00	AWS3	1.05	53	2.68	25	-2.8	65	-8.4	NA	NA	989.9	NA	NA		M	NA	NA	NA	NA
2019/11/22 02:31:00	AWS3	1.54	42	2.68	25	-2.7	65	-8.4	NA	NA	989.8	NA	NA		M	NA	NA	NA	NA
2019/11/22 02:32:00	AWS3	1.05	46	2.68	25	-2.6	65	-8.3	NA	NA	989.8	NA	NA		M	NA	NA	NA	NA
2019/11/22 02:33:00	AWS3	2.09	47	4.37	40	-2.6	65	-8.3	NA	NA	989.7	NA	NA		M	NA	NA	NA	NA
2019/11/22 02:34:00	AWS3	3.98	42	5.45	41	-2.6	64	-8.5	NA	NA	989.7	NA	NA		M	NA	NA	NA	NA
2019/11/22 02:35:00	AWS3	4.36	41	5.45	41	-2.5	62	-8.7	NA	NA	989.7	NA	NA		M	NA	NA	NA	NA
2019/11/22 02:36:00	AWS3	4.09	43	5.45	41	-2.4	62	-8.8	NA	NA	989.7	NA	NA		M	NA	NA	NA	NA
2019/11/22 02:37:00	AWS3	4.08	41	5.45	41	-2.4	60	-9.0	NA	NA	989.7	NA	NA		M	NA	NA	NA	NA
2019/11/22 02:38:00	AWS3	4.12	40	5.45	41	-2.3	59	-9.2	NA	NA	989.7	NA	NA		M	NA	NA	NA	NA
2019/11/22 02:39:00	AWS3	4.18	45	5.45	41	-2.3	59	-9.2	NA	NA	989.7	NA	NA		M	NA	NA	NA	NA
2019/11/22 02:40:00	AWS3	4.32	49	5.45	41	-2.3	59	-9.2	NA	NA	989.7	NA	NA		M	NA	NA	NA	NA
2019/11/22 02:41:00	AWS3	4.29	51	5.45	41	-2.3	59	-9.2	NA	NA	989.7	NA	NA		M	NA	NA	NA	NA
2019/11/22 02:42:00	AWS3	4.27	49	5.45	41	-2.3	59	-9.1	NA	NA	989.6	NA	NA		M	NA	NA	NA	NA
2019/11/22 02:43:00	AWS3	4.51	47	5.50	42	-2.3	60	-9.1	NA	NA	989.7	NA	NA		M	NA	NA	NA	NA
2019/11/22 02:44:00	AWS3	4.23	49	5.50	42	-2.3	60	-9.1	NA	NA	989.6	NA	NA		M	NA	NA	NA	NA
2019/11/22 02:45:00	AWS3	3.89	46	5.50	42	-2.3	60	-9.0	NA	NA	989.6	NA	NA		M	NA	NA	NA	NA
2019/11/22 02:46:00	AWS3	3.87	49	5.50	42	-2.3	60	-9.0	NA	NA	989.6	NA	NA		M	NA	NA	NA	NA
2019/11/22 02:47:00	AWS3	3.45	57	5.50	42	-2.3	60	-9.0	NA	NA	989.7	NA	NA		M	NA	NA	NA	NA
2019/11/22 02:48:00	AWS3	3.24	59	5.50	42	-2.3	60	-9.0	NA	NA	989.7	NA	NA		M	NA	NA	NA	NA
2019/11/22 02:49:00	AWS3	3.30	60	5.50	42	-2.3	60	-9.0	NA	NA	989.7	NA	NA		M	NA	NA	NA	NA
2019/11/22 02:50:00	AWS3	3.60	61	5.50	42	-2.2	60	-9.0	NA	NA	989.6	NA	NA		M	NA	NA	NA	NA
2019/11/22 02:51:00	AWS3	3.76	63	5.50	42	-2.2	59	-9.1	NA	NA	989.7	NA	NA		M	NA	NA	NA	NA
2019/11/22 02:52:00	AWS3	3.49	72	5.50	42	-2.2	59	-9.1	NA	NA	989.7	NA	NA		M	NA	NA	NA	NA
2019/11/22 02:53:00	AWS3	3.64	81	4.78	66	-2.2	60	-9.0	NA	NA	989.7	NA	NA		M	NA	NA	NA	NA
2019/11/22 02:54:00	AWS3	3.86	78	4.78	66	-2.2	60	-8.9	NA	NA	989.7	NA	NA		M	NA	NA	NA	NA
2019/11/22 02:55:00	AWS3	3.89	74	4.94	64	-2.2	61	-8.8	NA	NA	989.5	NA	NA		M	NA	NA	NA	NA
2019/11/22 02:56:00	AWS3	4.41	67	5.35	65	-2.3	61	-8.7	NA	NA	989.5	NA	NA		M	NA	NA	NA	NA
2019/11/22 02:57:00	AWS3	4.65	58	5.35	65	-2.3	61	-8.8	NA	NA	989.3	NA	NA		M	NA	NA	NA	NA
2019/11/22 02:58:00	AWS3	4.05	57	5.35	65	-2.3	61	-8.8	NA	NA	989.4	NA	NA		M	NA	NA	NA	NA
2019/11/22 02:59:01	AWS3	3.34	51	5.35	65	-2.2	60	-8.9	NA	NA	989.5	NA	NA		M	NA	NA	NA	NA
2019/11/22 03:00:00	AWS3	3.18	52	5.35	65	-2.2	60	-8.8	NA	NA	989.5	NA	NA		M	NA	NA	NA	NA
2019/11/22 03:01:00	AWS3	3.85	59	5.35	65	-2.2	60	-8.8	NA	NA	989.5	NA	NA		M	NA	NA	NA	NA
2019/11/22 03:02:00	AWS3	4.03	60	5.35	65	-2.2	61	-8.8	NA	NA	989.5	NA	NA		M	NA	NA	NA	NA
2019/11/22 03:03:00	AWS3	3.87	60	5.35	65	-2.2	61	-8.8	NA	NA	989.6	NA	NA		M	NA	NA	NA	NA
2019/11/22 03:04:00	AWS3	4.03	53	5.35	65	-2.2	60	-8.8	NA	NA	989.5	NA	NA		M	NA	NA	NA	NA
2019/11/22 03:05:00	AWS3	3.98	47	5.35	65	-2.2	60	-8.8	NA	NA	989.6	NA	NA		M	NA	NA	NA	NA
2019/11/22 03:06:00	AWS3	3.94	51	4.99	45	-2.2	61	-8.7	NA	NA	989.5	NA	NA		M	NA	NA	NA	NA
2019/11/22 03:07:00	AWS3	4.09	50	4.99	45	-2.2	61	-8.6	NA	NA	989.4	NA	NA		M	NA	NA	NA	NA
2019/11/22 03:08:00	AWS3	4.02	47	4.99	45	-2.2	62	-8.5	NA	NA	989.4	NA	NA		M	NA	NA	NA	NA
2019/11/22 03:09:00	AWS3	3.52	45	4.99	45	-2.2	62	-8.5	NA	NA	989.6	NA	NA		M	NA	NA	NA	NA
2019/11/22 03:10:00	AWS3	3.11	49	4.99	45	-2.2	62	-8.5	NA	NA	989.6	NA	NA		M	NA	NA	NA	NA
2019/11/22 03:11:00	AWS3	3.22	54	4.99	45	-2.2	62	-8.5	NA	NA	989.5	NA	NA		M	NA	NA	NA	NA
2019/11/22 03:12:00	AWS3	3.59	51	4.99	45	-2.2	62	-8.5	NA	NA	989.6	NA	NA		M	NA	NA	NA	NA
2019/11/22 03:13:00	AWS3	3.69	51	4.99	45	-2.2	62	-8.4	NA	NA	989.5	NA	NA		M	NA	NA	NA	NA
2019/11/22 03:14:00	AWS3	3.35	50	4.89	51	-2.2	63	-8.3	NA	NA	989.6	NA	NA		M	NA	NA	NA	NA
2019/11/22 03:15:00	AWS3	3.14	47	4.89	51	-2.2	63	-8.2	NA	NA	989.5	NA	NA		M	NA	NA	NA	NA
2019/11/22 03:16:00	AWS3	3.11	49	4.89	51	-2.2	64	-8.2	NA	NA	989.5	NA	NA		M	NA	NA	NA	NA
2019/11/22 03:17:00	AWS3	3.29	52	4.37	41	-2.2	64	-8.1	NA	NA	989.4	NA	NA		M	NA	NA	NA	NA
2019/11/22 03:18:00	AWS3	3.48	48	4.78	49	-2.2	64	-8.1	NA	NA	989.4	NA	NA		M	NA	NA	NA	NA
2019/11/22 03:19:00	AWS3	3.79	45	4.78	49	-2.2	64	-8.1	NA	NA	989.4	NA	NA		M	NA	NA	NA	NA
2019/11/22 03:20:00	AWS3	4.20	43	4.89	43	-2.2	64	-8.2	NA	NA	989.4	NA	NA		M	NA	NA	NA	NA
2019/11/22 03:21:00	AWS3	4.31	41	4.89	35	-2.2	63	-8.2	NA	NA	989.4	NA	NA		M	NA	NA	NA	NA
2019/11/22 03:22:00	AWS3	4.66	43	5.50	45	-2.2	63	-8.3	NA	NA	989.3	NA	NA		M	NA	NA	NA	NA
2019/11/22 03:23:00	AWS3	4.55	41	5.50	45	-2.2	62	-8.4	NA	NA	989.4	NA	NA		M	NA	NA	NA	NA
2019/11/22 03:24:00	AWS3	4.60	38	6.02	37	-2.1	62	-8.4	NA	NA	989.4	NA	NA		M	NA	NA	NA	NA
2019/11/22 03:25:00	AWS3	4.99	38	6.02	37	-2.1	62	-8.4	NA	NA	989.3	NA	NA		M	NA	NA	NA	NA
2019/11/22 03:26:00	AWS3	4.60	41	6.02	37	-2.1	62	-8.4	NA	NA	989.3	NA	NA		M	NA	NA	NA	NA
2019/11/22 03:27:00	AWS3	4.47	50	6.02	37	-2.1	62	-8.4	NA	NA	989.3	NA	NA		M	NA	NA	NA	NA
2019/11/22 03:28:00	AWS3	4.45	50	6.02	37	-2.1	62	-8.4	NA	NA	989.4	NA	NA		M	NA	NA	NA	NA
2019/11/22 03:29:00	AWS3	4.53	46	6.02	37	-2.1	62	-8.5	NA	NA	989.2	NA	NA		M	NA	NA	NA	NA
2019/11/22 03:30:00	AWS3	5.12	48	6.02	37	-2.1	61	-8.5	NA	NA	989.3	NA	NA		M	NA	NA	NA	NA
2019/11/22 03:31:00	AWS3	5.51	46	6.53	49	-2.0	61	-8.6	NA	NA	989.3	NA	NA		M	NA	NA	NA	NA
2019/11/22 03:32:00	AWS3	5.38	43	6.53	49	-2.0	60	-8.7	NA	NA	989.4	NA	NA		M	NA	NA	NA	NA
2019/11/22 03:33:00	AWS3	5.20	43	6.53	49	-2.0	60	-8.8	NA	NA	989.3	NA	NA		M	NA	NA	NA	NA
2019/11/22 03:34:00	AWS3	4.87	48	6.53	49	-2.0	60	-8.8	NA	NA	989.4	NA	NA		M	NA	NA	NA	NA
2019/11/22 03:35:00	AWS3	4.65	54	6.53	49	-2.0	60	-8.8	NA	NA	989.4	NA	NA		M	NA	NA	NA	NA
2019/11/22 03:36:00	AWS3	4.54	53	6.53	49	-2.0	60	-8.7	NA	NA	989.5	NA	NA		M	NA	NA	NA	NA
2019/11/22 03:37:00	AWS3	4.22	51	6.53	49	-2.0	60	-8.6	NA	NA	989.5	NA	NA		M	NA	NA	NA	NA
2019/11/22 03:38:00	AWS3	4.00	51	6.53	49	-2.0	61	-8.5	NA	NA	989.5	NA	NA		M	NA	NA	NA	NA
2019/11/22 03:39:00	AWS3	3.88	49	6.53	49	-2.0	61	-8.5	NA	NA	989.3	NA	NA		M	NA	NA	NA	NA
2019/11/22 03:40:00	AWS3	4.41	50	6.53	49	-2.0	61	-8.5	NA	NA	989.4	NA	NA		M	NA	NA	NA	NA
2019/11/22 03:41:00	AWS3	4.82	50	6.02	40	-2.0	61	-8.5	NA	NA	989.3	NA	NA		M	NA	NA	NA	NA
2019/11/22 03:42:00	AWS3	4.66	48	6.02	40	-2.0	61	-8.6	NA	NA	989.4	NA	NA		M	NA	NA	NA	NA
2019/11/22 03:43:00	AWS3	4.74	48	5.81	47	-2.0	60	-8.6	NA	NA	989.2	NA	NA		M	NA	NA	NA	NA
2019/11/22 03:44:00	AWS3	4.22	54	5.81	47	-2.0	60	-8.7	NA	NA	989.3	NA	NA		M	NA	NA	NA	NA
2019/11/22 03:45:00	AWS3	3.35	54	5.81	47	-2.0	60	-8.7	NA	NA	989.4	NA	NA		M	NA	NA	NA	NA
2019/11/22 03:46:00	AWS3	3.35	53	5.81	47	-1.9	60	-8.7	NA	NA	989.4	NA	NA		M	NA	NA	NA	NA
2019/11/22 03:47:00	AWS3	3.47	56	5.81	47	-1.9	60	-8.7	NA	NA	989.5	NA	NA		M	NA	NA	NA	NA
2019/11/22 03:48:00	AWS3	3.37	56	5.81	47	-1.9	60	-8.7	NA	NA	989.5	NA	NA		M	NA	NA	NA	NA
2019/11/22 03:49:00	AWS3	3.07	60	5.81	47	-1.9	60	-8.7	NA	NA	989.5	NA	NA		M	NA	NA	NA	NA
2019/11/22 03:50:00	AWS3	2.90	59	5.81	47	-1.9	60	-8.7	NA	NA	989.5	NA	NA		M	NA	NA	NA	NA
2019/11/22 03:51:00	AWS3	3.61	50	5.50	46	-1.9	59	-8.8	NA	NA	989.4	NA	NA		M	NA	NA	NA	NA
2019/11/22 03:52:00	AWS3	4.11	48	5.45	51	-1.9	59	-8.9	NA	NA	989.4	NA	NA		M	NA	NA	NA	NA
2019/11/22 03:53:00	AWS3	4.27	38	5.71	14	-1.9	59	-8.9	NA	NA	989.3	NA	NA		M	NA	NA	NA	NA
2019/11/22 03:54:00	AWS3	5.16	27	6.43	29	-1.9	59	-8.9	NA	NA	989.2	NA	NA		M	NA	NA	NA	NA
2019/11/22 03:55:00	AWS3	4.94	29	6.43	29	-1.9	59	-8.9	NA	NA	989.4	NA	NA		M	NA	NA	NA	NA
2019/11/22 03:56:00	AWS3	4.17	36	6.43	29	-1.9	59	-8.8	NA	NA	989.3	NA	NA		M	NA	NA	NA	NA
2019/11/22 03:57:00	AWS3	5.48	43	7.92	56	-1.9	59	-8.8	NA	NA	989.2	NA	NA		M	NA	NA	NA	NA
2019/11/22 03:58:00	AWS3	6.15	37	7.92	56	-1.9	59	-8.8	NA	NA	989.2	NA	NA		M	NA	NA	NA	NA
2019/11/22 03:59:00	AWS3	5.24	34	7.92	56	-1.9	59	-8.8	NA	NA	989.3	NA	NA		M	NA	NA	NA	NA
2019/11/22 04:00:00	AWS3	4.49	45	7.92	56	-1.9	60	-8.7	NA	NA	989.4	NA	NA		M	NA	NA	NA	NA
2019/11/22 04:01:00	AWS3	4.52	49	7.92	56	-1.9	60	-8.7	NA	NA	989.3	NA	NA		M	NA	NA	NA	NA
2019/11/22 04:02:00	AWS3	4.47	46	7.92	56	-1.9	60	-8.7	NA	NA	M	NA	NA		M	NA	NA	NA	NA
2019/11/22 04:03:00	AWS3	4.72	47	7.92	56	-1.9	60	-8.6	NA	NA	989.3	NA	NA		M	NA	NA	NA	NA
2019/11/22 04:04:00	AWS3	4.73	45	7.92	56	-1.9	60	-8.6	NA	NA	989.3	NA	NA		M	NA	NA	NA	NA
2019/11/22 04:05:00	AWS3	4.79	40	7.92	56	-1.9	60	-8.6	NA	NA	989.1	NA	NA		M	NA	NA	NA	NA
2019/11/22 04:06:00	AWS3	5.04	42	7.92	56	-1.9	61	-8.5	NA	NA	989.2	NA	NA		M	NA	NA	NA	NA
2019/11/22 04:07:00	AWS3	4.78	48	7.92	56	-1.9	61	-8.5	NA	NA	989.3	NA	NA		M	NA	NA	NA	NA
2019/11/22 04:08:00	AWS3	4.71	46	6.43	46	-1.9	61	-8.4	NA	NA	989.2	NA	NA		M	NA	NA	NA	NA
2019/11/22 04:09:00	AWS3	4.58	40	6.43	46	-1.9	62	-8.2	NA	NA	989.2	NA	NA		M	NA	NA	NA	NA
2019/11/22 04:10:00	AWS3	4.70	41	6.43	46	-1.9	63	-8.1	NA	NA	989.1	NA	NA		M	NA	NA	NA	NA
2019/11/22 04:11:00	AWS3	4.33	59	6.43	46	-1.9	63	-8.0	NA	NA	989.2	NA	NA		M	NA	NA	NA	NA
2019/11/22 04:12:00	AWS3	4.76	64	6.79	61	-1.9	63	-8.0	NA	NA	989.1	NA	NA		M	NA	NA	NA	NA
2019/11/22 04:13:00	AWS3	5.94	52	7.00	57	-1.9	63	-8.0	NA	NA	989.0	NA	NA		M	NA	NA	NA	NA
2019/11/22 04:14:00	AWS3	6.49	48	7.97	49	-1.9	62	-8.1	NA	NA	988.9	NA	NA		M	NA	NA	NA	NA
2019/11/22 04:15:00	AWS3	6.66	45	8.28	40	-1.9	62	-8.2	NA	NA	989.0	NA	NA		M	NA	NA	NA	NA
2019/11/22 04:16:00	AWS3	6.48	42	8.28	40	-1.9	62	-8.2	NA	NA	989.0	NA	NA		M	NA	NA	NA	NA
2019/11/22 04:17:00	AWS3	6.79	43	8.28	40	-1.9	63	-8.0	NA	NA	988.9	NA	NA		M	NA	NA	NA	NA
2019/11/22 04:18:00	AWS3	6.88	44	8.28	40	-1.9	63	-8.0	NA	NA	989.0	NA	NA		M	NA	NA	NA	NA
2019/11/22 04:19:00	AWS3	6.96	42	8.49	40	-1.9	64	-7.9	NA	NA	988.9	NA	NA		M	NA	NA	NA	NA
2019/11/22 04:20:00	AWS3	7.44	44	9.21	49	-1.9	64	-7.9	NA	NA	988.9	NA	NA		M	NA	NA	NA	NA
2019/11/22 04:21:00	AWS3	7.27	47	9.21	49	-1.9	64	-7.8	NA	NA	988.9	NA	NA		M	NA	NA	NA	NA
2019/11/22 04:22:00	AWS3	6.58	48	9.21	49	-1.9	64	-7.8	NA	NA	989.0	NA	NA		M	NA	NA	NA	NA
2019/11/22 04:23:00	AWS3	6.33	54	9.21	49	-1.9	64	-7.7	NA	NA	989.1	NA	NA		M	NA	NA	NA	NA
2019/11/22 04:24:00	AWS3	5.87	55	9.21	49	-1.9	64	-7.7	NA	NA	989.0	NA	NA		M	NA	NA	NA	NA
2019/11/22 04:25:00	AWS3	5.14	49	9.21	49	-1.9	64	-7.7	NA	NA	989.1	NA	NA		M	NA	NA	NA	NA
2019/11/22 04:26:00	AWS3	4.89	48	9.21	49	-1.9	65	-7.7	NA	NA	989.1	NA	NA		M	NA	NA	NA	NA
2019/11/22 04:27:00	AWS3	5.53	47	9.21	49	-1.9	65	-7.7	NA	NA	989.0	NA	NA		M	NA	NA	NA	NA
2019/11/22 04:28:00	AWS3	6.68	40	9.21	49	-2.0	65	-7.7	NA	NA	988.9	NA	NA		M	NA	NA	NA	NA
2019/11/22 04:29:00	AWS3	7.22	38	9.21	49	-2.0	65	-7.6	NA	NA	988.8	NA	NA		M	NA	NA	NA	NA
2019/11/22 04:30:00	AWS3	7.27	41	8.64	42	-2.0	66	-7.5	NA	NA	988.8	NA	NA		M	NA	NA	NA	NA
2019/11/22 04:31:00	AWS3	7.04	41	8.49	36	-2.0	67	-7.4	NA	NA	988.9	NA	NA		M	NA	NA	NA	NA
2019/11/22 04:32:00	AWS3	6.66	44	8.49	36	-2.1	67	-7.3	NA	NA	988.9	NA	NA		M	NA	NA	NA	NA
2019/11/22 04:33:00	AWS3	7.02	44	8.49	36	-2.1	68	-7.3	NA	NA	988.8	NA	NA		M	NA	NA	NA	NA
2019/11/22 04:34:00	AWS3	7.28	42	8.49	36	-2.2	68	-7.3	NA	NA	988.8	NA	NA		M	NA	NA	NA	NA
2019/11/22 04:35:00	AWS3	6.92	40	8.49	36	-2.2	68	-7.3	NA	NA	988.9	NA	NA		M	NA	NA	NA	NA
2019/11/22 04:36:00	AWS3	6.22	41	8.49	36	-2.2	68	-7.3	NA	NA	988.9	NA	NA		M	NA	NA	NA	NA
2019/11/22 04:37:00	AWS3	5.51	46	8.49	36	-2.2	69	-7.2	NA	NA	989.0	NA	NA		M	NA	NA	NA	NA
2019/11/22 04:38:00	AWS3	5.40	50	8.39	42	-2.2	69	-7.1	NA	NA	989.0	NA	NA		M	NA	NA	NA	NA
2019/11/22 04:39:00	AWS3	5.37	49	8.39	42	-2.2	70	-7.0	NA	NA	989.0	NA	NA		M	NA	NA	NA	NA
2019/11/22 04:40:00	AWS3	5.62	47	8.39	42	-2.2	70	-7.0	NA	NA	988.9	NA	NA		M	NA	NA	NA	NA
2019/11/22 04:41:00	AWS3	5.67	48	8.39	42	-2.2	70	-7.0	NA	NA	989.0	NA	NA		M	NA	NA	NA	NA
2019/11/22 04:42:00	AWS3	5.36	47	8.39	42	-2.2	70	-7.0	NA	NA	989.1	NA	NA		M	NA	NA	NA	NA
2019/11/22 04:43:00	AWS3	5.25	44	7.77	43	-2.3	70	-7.1	NA	NA	989.0	NA	NA		M	NA	NA	NA	NA
2019/11/22 04:44:00	AWS3	5.16	41	7.61	36	-2.3	70	-7.1	NA	NA	989.0	NA	NA		M	NA	NA	NA	NA
2019/11/22 04:45:00	AWS3	5.02	45	6.53	42	-2.3	70	-7.1	NA	NA	988.9	NA	NA		M	NA	NA	NA	NA
2019/11/22 04:46:00	AWS3	4.53	45	6.53	42	-2.3	70	-7.0	NA	NA	988.9	NA	NA		M	NA	NA	NA	NA
2019/11/22 04:47:00	AWS3	4.19	42	6.53	42	-2.3	71	-6.9	NA	NA	989.1	NA	NA		M	NA	NA	NA	NA
2019/11/22 04:48:00	AWS3	4.18	45	6.53	42	-2.3	71	-6.9	NA	NA	988.8	NA	NA		M	NA	NA	NA	NA
2019/11/22 04:49:01	AWS3	4.46	46	6.53	42	-2.3	71	-6.8	NA	NA	988.8	NA	NA		M	NA	NA	NA	NA
2019/11/22 04:50:00	AWS3	4.70	49	6.28	41	-2.3	71	-6.9	NA	NA	988.9	NA	NA		M	NA	NA	NA	NA
2019/11/22 04:51:01	AWS3	4.74	46	6.28	41	-2.3	71	-6.9	NA	NA	988.9	NA	NA		M	NA	NA	NA	NA
2019/11/22 04:52:00	AWS3	4.57	42	6.28	41	-2.3	71	-6.9	NA	NA	988.7	NA	NA		M	NA	NA	NA	NA
2019/11/22 04:53:00	AWS3	4.38	46	5.71	49	-2.3	71	-6.9	NA	NA	988.7	NA	NA		M	NA	NA	NA	NA
2019/11/22 04:54:01	AWS3	4.28	52	5.56	61	-2.3	71	-6.9	NA	NA	988.7	NA	NA		M	NA	NA	NA	NA
2019/11/22 04:55:00	AWS3	3.93	59	5.56	61	-2.3	71	-6.9	NA	NA	988.9	NA	NA		M	NA	NA	NA	NA
2019/11/22 04:56:00	AWS3	4.11	57	5.56	61	-2.3	71	-6.9	NA	NA	989.0	NA	NA		M	NA	NA	NA	NA
2019/11/22 04:57:00	AWS3	3.97	60	5.56	61	-2.3	71	-6.9	NA	NA	989.1	NA	NA		M	NA	NA	NA	NA
2019/11/22 04:58:00	AWS3	3.37	72	5.56	61	-2.3	71	-6.8	NA	NA	989.0	NA	NA		M	NA	NA	NA	NA
2019/11/22 04:59:00	AWS3	3.44	89	5.56	61	-2.3	71	-6.8	NA	NA	989.1	NA	NA		M	NA	NA	NA	NA
2019/11/22 05:00:00	AWS3	3.70	97	5.30	38	-2.3	70	-7.0	NA	NA	989.1	NA	NA		M	NA	NA	NA	NA
2019/11/22 05:01:00	AWS3	4.00	100	5.14	45	-2.4	70	-7.1	NA	NA	989.0	NA	NA		M	NA	NA	NA	NA
2019/11/22 05:02:00	AWS3	4.48	107	5.14	45	-2.5	69	-7.4	NA	NA	989.1	NA	NA		M	NA	NA	NA	NA
2019/11/22 05:03:00	AWS3	4.66	107	5.04	108	-2.5	68	-7.7	NA	NA	989.1	NA	NA		M	NA	NA	NA	NA
2019/11/22 05:04:00	AWS3	4.42	103	5.04	108	-2.6	66	-8.1	NA	NA	989.1	NA	NA		M	NA	NA	NA	NA
2019/11/22 05:05:01	AWS3	4.09	99	5.04	108	-2.7	65	-8.3	NA	NA	989.1	NA	NA		M	NA	NA	NA	NA
2019/11/22 05:06:01	AWS3	3.94	96	5.04	108	-2.7	64	-8.5	NA	NA	988.9	NA	NA		M	NA	NA	NA	NA
2019/11/22 05:07:01	AWS3	3.83	96	5.04	108	-2.8	64	-8.6	NA	NA	989.1	NA	NA		M	NA	NA	NA	NA
2019/11/22 05:08:01	AWS3	3.66	94	5.04	108	-2.8	64	-8.6	NA	NA	988.9	NA	NA		M	NA	NA	NA	NA
2019/11/22 05:09:01	AWS3	3.22	90	5.04	108	-2.8	64	-8.6	NA	NA	989.0	NA	NA		M	NA	NA	NA	NA
2019/11/22 05:10:01	AWS3	3.07	88	5.04	108	-2.8	65	-8.4	NA	NA	989.1	NA	NA		M	NA	NA	NA	NA
2019/11/22 05:11:01	AWS3	3.17	84	5.04	108	-2.8	66	-8.3	NA	NA	988.9	NA	NA		M	NA	NA	NA	NA
2019/11/22 05:12:01	AWS3	3.18	80	5.04	108	-2.8	66	-8.2	NA	NA	988.9	NA	NA		M	NA	NA	NA	NA
2019/11/22 05:13:01	AWS3	2.97	81	4.58	101	-2.8	66	-8.2	NA	NA	988.9	NA	NA		M	NA	NA	NA	NA
2019/11/22 05:14:01	AWS3	2.77	81	4.42	101	-2.7	66	-8.2	NA	NA	989.0	NA	NA		M	NA	NA	NA	NA
2019/11/22 05:15:00	AWS3	2.79	83	4.12	101	-2.7	66	-8.3	NA	NA	988.7	NA	NA		M	NA	NA	NA	NA
2019/11/22 05:16:00	AWS3	2.47	83	4.12	101	-2.7	65	-8.4	NA	NA	988.8	NA	NA		M	NA	NA	NA	NA
2019/11/22 05:17:00	AWS3	2.09	85	3.70	85	-2.7	65	-8.4	NA	NA	988.8	NA	NA		M	NA	NA	NA	NA
2019/11/22 05:18:00	AWS3	2.23	92	3.70	85	-2.6	65	-8.4	NA	NA	988.8	NA	NA		M	NA	NA	NA	NA
2019/11/22 05:19:00	AWS3	2.53	93	3.70	85	-2.6	64	-8.5	NA	NA	988.9	NA	NA		M	NA	NA	NA	NA
2019/11/22 05:20:00	AWS3	2.45	86	3.70	85	-2.5	64	-8.5	NA	NA	988.8	NA	NA		M	NA	NA	NA	NA
2019/11/22 05:21:00	AWS3	2.37	76	3.45	79	-2.4	64	-8.4	NA	NA	988.9	NA	NA		M	NA	NA	NA	NA
2019/11/22 05:22:00	AWS3	1.98	78	3.29	84	-2.4	63	-8.4	NA	NA	988.7	NA	NA		M	NA	NA	NA	NA
2019/11/22 05:23:00	AWS3	1.72	83	3.29	84	-2.4	63	-8.4	NA	NA	988.8	NA	NA		M	NA	NA	NA	NA
2019/11/22 05:24:00	AWS3	1.82	78	3.29	84	-2.3	64	-8.3	NA	NA	988.8	NA	NA		M	NA	NA	NA	NA
2019/11/22 05:25:00	AWS3	1.86	66	2.88	95	-2.3	64	-8.3	NA	NA	988.8	NA	NA		M	NA	NA	NA	NA
2019/11/22 05:26:00	AWS3	1.83	53	2.88	95	-2.4	63	-8.4	NA	NA	988.9	NA	NA		M	NA	NA	NA	NA
2019/11/22 05:27:00	AWS3	1.75	45	2.88	95	-2.4	63	-8.4	NA	NA	988.6	NA	NA		M	NA	NA	NA	NA
2019/11/22 05:28:00	AWS3	1.96	41	2.88	95	-2.4	63	-8.4	NA	NA	988.7	NA	NA		M	NA	NA	NA	NA
2019/11/22 05:29:00	AWS3	2.12	42	2.68	73	-2.4	64	-8.4	NA	NA	988.7	NA	NA		M	NA	NA	NA	NA
2019/11/22 05:30:00	AWS3	2.12	45	2.68	73	-2.5	64	-8.4	NA	NA	988.4	NA	NA		M	NA	NA	NA	NA
2019/11/22 05:31:00	AWS3	2.18	42	2.52	43	-2.5	65	-8.2	NA	NA	988.7	NA	NA		M	NA	NA	NA	NA
2019/11/22 05:32:00	AWS3	1.91	34	2.52	43	-2.5	66	-8.0	NA	NA	988.8	NA	NA		M	NA	NA	NA	NA
2019/11/22 05:33:00	AWS3	1.81	35	2.52	43	-2.5	66	-7.9	NA	NA	988.6	NA	NA		M	NA	NA	NA	NA
2019/11/22 05:34:00	AWS3	2.16	38	2.52	43	-2.4	67	-7.8	NA	NA	988.5	NA	NA		M	NA	NA	NA	NA
2019/11/22 05:35:00	AWS3	2.23	35	2.52	43	-2.4	67	-7.7	NA	NA	988.7	NA	NA		M	NA	NA	NA	NA
2019/11/22 05:36:00	AWS3	2.14	35	2.52	43	-2.4	67	-7.7	NA	NA	988.7	NA	NA		M	NA	NA	NA	NA
2019/11/22 05:37:00	AWS3	1.89	36	2.52	43	-2.4	67	-7.7	NA	NA	988.8	NA	NA		M	NA	NA	NA	NA
2019/11/22 05:38:00	AWS3	1.57	41	2.52	43	-2.4	67	-7.7	NA	NA	988.8	NA	NA		M	NA	NA	NA	NA
2019/11/22 05:39:00	AWS3	1.56	43	2.52	43	-2.4	67	-7.7	NA	NA	988.8	NA	NA		M	NA	NA	NA	NA
2019/11/22 05:40:00	AWS3	1.57	40	2.52	43	-2.3	67	-7.6	NA	NA	988.8	NA	NA		M	NA	NA	NA	NA
2019/11/22 05:41:00	AWS3	1.59	44	2.42	36	-2.3	67	-7.6	NA	NA	988.8	NA	NA		M	NA	NA	NA	NA
2019/11/22 05:42:00	AWS3	1.69	57	2.42	36	-2.3	68	-7.5	NA	NA	988.8	NA	NA		M	NA	NA	NA	NA
2019/11/22 05:43:00	AWS3	1.60	57	2.42	36	-2.3	68	-7.5	NA	NA	988.7	NA	NA		M	NA	NA	NA	NA
2019/11/22 05:44:00	AWS3	0.97	48	2.31	36	-2.3	68	-7.4	NA	NA	988.7	NA	NA		M	NA	NA	NA	NA
2019/11/22 05:45:00	AWS3	0.40	68	2.31	36	-2.3	68	-7.3	NA	NA	988.7	NA	NA		M	NA	NA	NA	NA
2019/11/22 05:46:00	AWS3	0.68	92	2.16	39	-2.3	68	-7.3	NA	NA	988.8	NA	NA		M	NA	NA	NA	NA
2019/11/22 05:47:00	AWS3	1.08	89	2.16	39	-2.2	69	-7.2	NA	NA	988.8	NA	NA		M	NA	NA	NA	NA
2019/11/22 05:48:00	AWS3	0.83	91	2.16	39	-2.2	68	-7.2	NA	NA	988.8	NA	NA		M	NA	NA	NA	NA
2019/11/22 05:49:00	AWS3	0.81	104	2.16	39	-2.2	68	-7.3	NA	NA	988.7	NA	NA		M	NA	NA	NA	NA
2019/11/22 05:50:00	AWS3	1.33	102	2.16	39	-2.2	67	-7.4	NA	NA	988.7	NA	NA		M	NA	NA	NA	NA
2019/11/22 05:51:00	AWS3	1.47	92	1.95	52	-2.2	67	-7.5	NA	NA	988.7	NA	NA		M	NA	NA	NA	NA
2019/11/22 05:52:00	AWS3	1.06	84	1.95	52	-2.2	67	-7.6	NA	NA	988.7	NA	NA		M	NA	NA	NA	NA
2019/11/22 05:53:00	AWS3	1.11	75	1.75	66	-2.2	67	-7.6	NA	NA	988.7	NA	NA		M	NA	NA	NA	NA
2019/11/22 05:54:00	AWS3	1.50	69	1.75	66	-2.2	67	-7.5	NA	NA	988.7	NA	NA		M	NA	NA	NA	NA
2019/11/22 05:55:00	AWS3	1.37	77	1.75	66	-2.2	67	-7.5	NA	NA	988.7	NA	NA		M	NA	NA	NA	NA
2019/11/22 05:56:00	AWS3	1.06	92	1.75	66	-2.2	66	-7.7	NA	NA	988.7	NA	NA		M	NA	NA	NA	NA
2019/11/22 05:57:00	AWS3	1.00	98	1.75	66	-2.2	66	-7.8	NA	NA	988.6	NA	NA		M	NA	NA	NA	NA
2019/11/22 05:58:00	AWS3	1.23	99	1.75	66	-2.2	65	-8.0	NA	NA	988.7	NA	NA		M	NA	NA	NA	NA
2019/11/22 05:59:00	AWS3	0.92	106	1.75	66	-2.2	64	-8.2	NA	NA	988.7	NA	NA		M	NA	NA	NA	NA
2019/11/22 06:00:00	AWS3	0.60	108	1.75	66	-2.2	63	-8.2	NA	NA	988.7	NA	NA		M	NA	NA	NA	NA
2019/11/22 06:01:00	AWS3	0.65	99	1.75	66	-2.2	63	-8.3	NA	NA	988.7	NA	NA		M	NA	NA	NA	NA
2019/11/22 06:02:00	AWS3	0.74	102	1.75	66	-2.2	63	-8.3	NA	NA	988.7	NA	NA		M	NA	NA	NA	NA
2019/11/22 06:03:00	AWS3	0.75	107	1.75	66	-2.2	63	-8.3	NA	NA	988.7	NA	NA		M	NA	NA	NA	NA
2019/11/22 06:04:00	AWS3	0.86	99	1.49	93	-2.2	64	-8.2	NA	NA	988.7	NA	NA		M	NA	NA	NA	NA
2019/11/22 06:05:00	AWS3	1.03	100	1.49	93	-2.2	63	-8.3	NA	NA	988.6	NA	NA		M	NA	NA	NA	NA
2019/11/22 06:06:00	AWS3	0.94	115	1.49	93	-2.2	63	-8.3	NA	NA	988.6	NA	NA		M	NA	NA	NA	NA
2019/11/22 06:07:00	AWS3	0.88	128	1.49	93	-2.2	63	-8.3	NA	NA	988.6	NA	NA		M	NA	NA	NA	NA
2019/11/22 06:08:00	AWS3	1.08	139	1.65	147	-2.2	63	-8.4	NA	NA	988.5	NA	NA		M	NA	NA	NA	NA
2019/11/22 06:09:00	AWS3	1.10	144	1.65	147	-2.3	63	-8.4	NA	NA	988.5	NA	NA		M	NA	NA	NA	NA
2019/11/22 06:10:00	AWS3	1.10	142	1.65	147	-2.3	64	-8.3	NA	NA	988.5	NA	NA		M	NA	NA	NA	NA
2019/11/22 06:11:00	AWS3	1.34	144	1.65	146	-2.4	64	-8.2	NA	NA	988.6	NA	NA		M	NA	NA	NA	NA
2019/11/22 06:12:00	AWS3	1.30	142	1.65	146	-2.4	65	-8.1	NA	NA	988.5	NA	NA		M	NA	NA	NA	NA
2019/11/22 06:13:00	AWS3	1.30	136	1.65	146	-2.5	65	-8.1	NA	NA	988.5	NA	NA		M	NA	NA	NA	NA
2019/11/22 06:14:00	AWS3	1.41	142	1.65	146	-2.5	65	-8.1	NA	NA	988.4	NA	NA		M	NA	NA	NA	NA
2019/11/22 06:15:00	AWS3	1.50	153	1.70	157	-2.5	65	-8.1	NA	NA	988.4	NA	NA		M	NA	NA	NA	NA
2019/11/22 06:16:00	AWS3	0.99	155	1.70	157	-2.5	66	-8.1	NA	NA	988.5	NA	NA		M	NA	NA	NA	NA
2019/11/22 06:17:00	AWS3	0.32	148	1.70	157	-2.5	66	-8.0	NA	NA	988.5	NA	NA		M	NA	NA	NA	NA
2019/11/22 06:18:00	AWS3	0.77	147	1.70	157	-2.5	67	-7.9	NA	NA	988.5	NA	NA		M	NA	NA	NA	NA
2019/11/22 06:19:00	AWS3	1.36	152	1.70	157	-2.5	67	-7.8	NA	NA	988.4	NA	NA		M	NA	NA	NA	NA
2019/11/22 06:20:00	AWS3	1.33	153	1.70	157	-2.5	68	-7.6	NA	NA	988.3	NA	NA		M	NA	NA	NA	NA
2019/11/22 06:21:00	AWS3	0.85	150	1.70	157	-2.5	68	-7.6	NA	NA	988.3	NA	NA		M	NA	NA	NA	NA
2019/11/22 06:22:00	AWS3	0.96	143	1.70	157	-2.6	69	-7.5	NA	NA	988.4	NA	NA		M	NA	NA	NA	NA
2019/11/22 06:23:00	AWS3	1.50	140	2.01	145	-2.6	69	-7.5	NA	NA	988.4	NA	NA		M	NA	NA	NA	NA
2019/11/22 06:24:00	AWS3	1.71	143	2.11	141	-2.6	69	-7.5	NA	NA	988.4	NA	NA		M	NA	NA	NA	NA
2019/11/22 06:25:00	AWS3	1.85	148	2.11	141	-2.6	69	-7.5	NA	NA	988.4	NA	NA		M	NA	NA	NA	NA
2019/11/22 06:26:00	AWS3	1.76	152	2.11	141	-2.6	70	-7.4	NA	NA	988.3	NA	NA		M	NA	NA	NA	NA
2019/11/22 06:27:00	AWS3	1.18	155	2.11	141	-2.7	70	-7.4	NA	NA	988.4	NA	NA		M	NA	NA	NA	NA
2019/11/22 06:28:00	AWS3	0.57	155	2.11	141	-2.7	70	-7.3	NA	NA	988.4	NA	NA		M	NA	NA	NA	NA
2019/11/22 06:29:00	AWS3	0.38	150	2.11	141	-2.7	71	-7.3	NA	NA	988.4	NA	NA		M	NA	NA	NA	NA
2019/11/22 06:30:00	AWS3	0.96	147	2.11	141	-2.7	71	-7.2	NA	NA	988.4	NA	NA		M	NA	NA	NA	NA
2019/11/22 06:31:00	AWS3	1.62	150	2.11	141	-2.7	71	-7.3	NA	NA	988.4	NA	NA		M	NA	NA	NA	NA
2019/11/22 06:32:00	AWS3	1.52	147	2.11	141	-2.8	71	-7.3	NA	NA	988.4	NA	NA		M	NA	NA	NA	NA
2019/11/22 06:33:00	AWS3	1.59	143	2.11	141	-2.8	71	-7.3	NA	NA	988.4	NA	NA		M	NA	NA	NA	NA
2019/11/22 06:34:00	AWS3	1.67	143	2.06	146	-2.8	71	-7.2	NA	NA	988.3	NA	NA		M	NA	NA	NA	NA
2019/11/22 06:35:00	AWS3	1.65	144	2.01	153	-2.8	72	-7.2	NA	NA	988.3	NA	NA		M	NA	NA	NA	NA
2019/11/22 06:36:00	AWS3	1.47	150	2.01	153	-2.8	72	-7.2	NA	NA	988.3	NA	NA		M	NA	NA	NA	NA
2019/11/22 06:37:00	AWS3	0.87	158	2.01	153	-2.8	72	-7.1	NA	NA	988.2	NA	NA		M	NA	NA	NA	NA
2019/11/22 06:38:00	AWS3	0.84	158	2.01	153	-2.8	72	-7.1	NA	NA	988.2	NA	NA		M	NA	NA	NA	NA
2019/11/22 06:39:00	AWS3	1.17	152	2.01	153	-2.8	73	-7.0	NA	NA	988.3	NA	NA		M	NA	NA	NA	NA
2019/11/22 06:40:00	AWS3	1.46	149	2.26	151	-2.8	73	-7.0	NA	NA	988.2	NA	NA		M	NA	NA	NA	NA
2019/11/22 06:41:00	AWS3	2.05	150	2.62	151	-2.8	74	-6.9	NA	NA	988.2	NA	NA		M	NA	NA	NA	NA
2019/11/22 06:42:00	AWS3	2.27	152	2.62	151	-2.9	74	-6.8	NA	NA	988.3	NA	NA		M	NA	NA	NA	NA
2019/11/22 06:43:00	AWS3	2.01	150	2.62	151	-2.9	75	-6.7	NA	NA	988.3	NA	NA		M	NA	NA	NA	NA
2019/11/22 06:44:01	AWS3	1.64	149	2.62	151	-3.0	76	-6.6	NA	NA	988.2	NA	NA		M	NA	NA	NA	NA
2019/11/22 06:45:00	AWS3	1.70	158	2.62	151	-3.0	77	-6.5	NA	NA	988.3	NA	NA		M	NA	NA	NA	NA
2019/11/22 06:46:00	AWS3	2.02	158	2.62	151	-3.1	78	-6.4	NA	NA	988.2	NA	NA		M	NA	NA	NA	NA
2019/11/22 06:47:00	AWS3	2.04	154	2.62	151	-3.1	79	-6.3	NA	NA	988.2	NA	NA		M	NA	NA	NA	NA
2019/11/22 06:48:00	AWS3	1.44	148	2.62	151	-3.2	80	-6.1	NA	NA	988.2	NA	NA		M	NA	NA	NA	NA
2019/11/22 06:49:00	AWS3	1.79	146	3.29	152	-3.2	81	-6.0	NA	NA	988.2	NA	NA		M	NA	NA	NA	NA
2019/11/22 06:50:00	AWS3	2.86	154	3.29	152	-3.3	81	-6.0	NA	NA	988.2	NA	NA		M	NA	NA	NA	NA
2019/11/22 06:51:00	AWS3	2.84	157	3.29	152	-3.3	82	-5.9	NA	NA	988.3	NA	NA		M	NA	NA	NA	NA
2019/11/22 06:52:00	AWS3	2.59	158	3.29	152	-3.3	82	-5.9	NA	NA	988.3	NA	NA		M	NA	NA	NA	NA
2019/11/22 06:53:00	AWS3	2.03	153	3.29	152	-3.3	83	-5.9	NA	NA	988.1	NA	NA		M	NA	NA	NA	NA
2019/11/22 06:54:00	AWS3	1.70	147	3.29	152	-3.4	83	-5.8	NA	NA	988.2	NA	NA		M	NA	NA	NA	NA
2019/11/22 06:55:00	AWS3	2.17	150	3.29	152	-3.4	83	-5.8	NA	NA	988.3	NA	NA		M	NA	NA	NA	NA
2019/11/22 06:56:00	AWS3	2.25	154	3.29	152	-3.3	84	-5.7	NA	NA	988.2	NA	NA		M	NA	NA	NA	NA
2019/11/22 06:57:00	AWS3	2.00	157	3.29	152	-3.3	84	-5.7	NA	NA	988.2	NA	NA		M	NA	NA	NA	NA
2019/11/22 06:58:00	AWS3	2.15	160	3.29	152	-3.3	84	-5.6	NA	NA	987.9	NA	NA		M	NA	NA	NA	NA
2019/11/22 06:59:00	AWS3	2.35	160	3.29	152	-3.3	84	-5.6	NA	NA	988.1	NA	NA		M	NA	NA	NA	NA
2019/11/22 07:00:00	AWS3	2.19	162	3.04	152	-3.3	84	-5.6	NA	NA	988.2	NA	NA		M	NA	NA	NA	NA
2019/11/22 07:01:00	AWS3	1.89	161	3.04	152	-3.3	84	-5.6	NA	NA	988.2	NA	NA		M	NA	NA	NA	NA
2019/11/22 07:02:00	AWS3	1.84	156	3.04	152	-3.3	84	-5.7	NA	NA	988.1	NA	NA		M	NA	NA	NA	NA
2019/11/22 07:03:00	AWS3	1.64	154	3.04	152	-3.4	84	-5.6	NA	NA	988.2	NA	NA		M	NA	NA	NA	NA
2019/11/22 07:04:00	AWS3	1.68	151	2.88	155	-3.3	84	-5.6	NA	NA	988.2	NA	NA		M	NA	NA	NA	NA
2019/11/22 07:05:00	AWS3	2.15	151	2.73	166	-3.4	85	-5.6	NA	NA	988.3	NA	NA		M	NA	NA	NA	NA
2019/11/22 07:06:00	AWS3	2.04	156	2.73	166	-3.4	85	-5.5	NA	NA	988.2	NA	NA		M	NA	NA	NA	NA
2019/11/22 07:07:00	AWS3	1.87	156	2.73	166	-3.4	85	-5.5	NA	NA	987.9	NA	NA		M	NA	NA	NA	NA
2019/11/22 07:08:00	AWS3	1.98	151	2.73	166	-3.4	86	-5.5	NA	NA	988.0	NA	NA		M	NA	NA	NA	NA
2019/11/22 07:09:00	AWS3	2.09	148	2.62	155	-3.4	86	-5.4	NA	NA	988.2	NA	NA		M	NA	NA	NA	NA
2019/11/22 07:10:00	AWS3	2.19	149	2.62	155	-3.4	86	-5.4	NA	NA	988.0	NA	NA		M	NA	NA	NA	NA
2019/11/22 07:11:00	AWS3	2.18	148	2.62	155	-3.4	86	-5.4	NA	NA	988.2	NA	NA		M	NA	NA	NA	NA
2019/11/22 07:12:00	AWS3	2.25	149	2.68	152	-3.4	86	-5.4	NA	NA	988.1	NA	NA		M	NA	NA	NA	NA
2019/11/22 07:13:00	AWS3	2.34	152	2.68	152	-3.5	86	-5.4	NA	NA	988.1	NA	NA		M	NA	NA	NA	NA
2019/11/22 07:14:00	AWS3	2.04	153	2.68	152	-3.5	86	-5.4	NA	NA	988.0	NA	NA		M	NA	NA	NA	NA
2019/11/22 07:15:00	AWS3	1.85	149	2.68	152	-3.5	86	-5.4	NA	NA	987.9	NA	NA		M	NA	NA	NA	NA
2019/11/22 07:16:00	AWS3	2.20	148	2.78	152	-3.4	87	-5.3	NA	NA	988.0	NA	NA		M	NA	NA	NA	NA
2019/11/22 07:17:00	AWS3	2.46	149	3.14	150	-3.4	87	-5.2	NA	NA	988.0	NA	NA		M	NA	NA	NA	NA
2019/11/22 07:18:00	AWS3	2.73	149	3.14	150	-3.4	88	-5.2	NA	NA	987.8	NA	NA		M	NA	NA	NA	NA
2019/11/22 07:19:00	AWS3	2.95	149	3.45	151	-3.4	88	-5.1	NA	NA	987.9	NA	NA		M	NA	NA	NA	NA
2019/11/22 07:20:00	AWS3	2.98	149	3.45	144	-3.4	88	-5.1	NA	NA	988.0	NA	NA		M	NA	NA	NA	NA
2019/11/22 07:21:00	AWS3	3.10	149	3.45	144	-3.4	88	-5.1	NA	NA	988.0	NA	NA		M	NA	NA	NA	NA
2019/11/22 07:22:00	AWS3	3.01	149	3.76	151	-3.4	89	-5.0	NA	NA	988.0	NA	NA		M	NA	NA	NA	NA
2019/11/22 07:23:00	AWS3	2.94	148	3.76	151	-3.5	89	-5.0	NA	NA	988.2	NA	NA		M	NA	NA	NA	NA
2019/11/22 07:24:00	AWS3	2.99	143	3.81	140	-3.5	90	-4.9	NA	NA	988.0	NA	NA		M	NA	NA	NA	NA
2019/11/22 07:25:00	AWS3	3.16	141	3.81	140	-3.5	90	-4.9	NA	NA	988.2	NA	NA		M	NA	NA	NA	NA
2019/11/22 07:26:00	AWS3	3.28	146	3.81	140	-3.5	90	-4.9	NA	NA	988.0	NA	NA		M	NA	NA	NA	NA
2019/11/22 07:27:00	AWS3	3.15	149	3.81	140	-3.5	90	-4.9	NA	NA	987.7	NA	NA		M	NA	NA	NA	NA
2019/11/22 07:28:00	AWS3	3.04	149	3.81	140	-3.6	91	-4.9	NA	NA	988.1	NA	NA		M	NA	NA	NA	NA
2019/11/22 07:29:00	AWS3	2.75	148	3.81	140	-3.6	91	-4.8	NA	NA	987.9	NA	NA		M	NA	NA	NA	NA
2019/11/22 07:30:00	AWS3	2.58	149	3.81	140	-3.6	91	-4.8	NA	NA	987.9	NA	NA		M	NA	NA	NA	NA
2019/11/22 07:31:00	AWS3	2.82	151	3.81	140	-3.6	92	-4.7	NA	NA	987.8	NA	NA		M	NA	NA	NA	NA
2019/11/22 07:32:00	AWS3	3.12	149	3.81	140	-3.5	92	-4.7	NA	NA	987.9	NA	NA		M	NA	NA	NA	NA
2019/11/22 07:33:00	AWS3	2.97	147	3.81	140	-3.5	92	-4.7	NA	NA	987.9	NA	NA		M	NA	NA	NA	NA
2019/11/22 07:34:00	AWS3	2.61	152	3.81	140	-3.6	92	-4.6	NA	NA	988.1	NA	NA		M	NA	NA	NA	NA
2019/11/22 07:35:00	AWS3	2.11	153	3.65	148	-3.6	92	-4.6	NA	NA	988.3	NA	NA		M	NA	NA	NA	NA
2019/11/22 07:36:00	AWS3	1.65	153	3.60	149	-3.6	93	-4.6	NA	NA	988.3	NA	NA		M	NA	NA	NA	NA
2019/11/22 07:37:00	AWS3	2.02	153	3.60	149	-3.6	93	-4.5	NA	NA	988.3	NA	NA		M	NA	NA	NA	NA
2019/11/22 07:38:00	AWS3	2.38	149	3.60	149	-3.5	93	-4.5	NA	NA	988.3	NA	NA		M	NA	NA	NA	NA
2019/11/22 07:39:00	AWS3	2.51	147	3.60	149	-3.5	93	-4.5	NA	NA	988.3	NA	NA		M	NA	NA	NA	NA
2019/11/22 07:40:00	AWS3	3.04	147	3.60	149	-3.5	93	-4.4	NA	NA	988.3	NA	NA		M	NA	NA	NA	NA
2019/11/22 07:41:00	AWS3	3.40	147	3.76	154	-3.5	94	-4.4	NA	NA	988.3	NA	NA		M	NA	NA	NA	NA
2019/11/22 07:42:00	AWS3	3.45	147	3.76	154	-3.6	94	-4.4	NA	NA	988.2	NA	NA		M	NA	NA	NA	NA
2019/11/22 07:43:00	AWS3	3.20	149	3.76	154	-3.6	94	-4.4	NA	NA	988.2	NA	NA		M	NA	NA	NA	NA
2019/11/22 07:44:00	AWS3	2.64	148	3.76	154	-3.6	94	-4.4	NA	NA	988.3	NA	NA		M	NA	NA	NA	NA
2019/11/22 07:45:00	AWS3	2.52	145	3.76	154	-3.5	94	-4.4	NA	NA	988.3	NA	NA		M	NA	NA	NA	NA
2019/11/22 07:46:00	AWS3	2.86	145	3.76	154	-3.5	94	-4.4	NA	NA	988.3	NA	NA		M	NA	NA	NA	NA
2019/11/22 07:47:00	AWS3	3.19	150	3.76	154	-3.5	94	-4.3	NA	NA	988.2	NA	NA		M	NA	NA	NA	NA
2019/11/22 07:48:00	AWS3	3.26	153	3.76	154	-3.5	94	-4.3	NA	NA	988.2	NA	NA		M	NA	NA	NA	NA
2019/11/22 07:49:00	AWS3	3.10	152	3.76	154	-3.5	94	-4.3	NA	NA	988.2	NA	NA		M	NA	NA	NA	NA
2019/11/22 07:50:00	AWS3	2.91	149	3.76	154	-3.5	95	-4.2	NA	NA	988.3	NA	NA		M	NA	NA	NA	NA
2019/11/22 07:51:00	AWS3	2.58	152	3.76	154	-3.5	95	-4.2	NA	NA	988.3	NA	NA		M	NA	NA	NA	NA
2019/11/22 07:52:00	AWS3	2.33	158	3.65	155	-3.5	95	-4.2	NA	NA	988.2	NA	NA		M	NA	NA	NA	NA
2019/11/22 07:53:00	AWS3	2.19	156	3.65	155	-3.5	95	-4.1	NA	NA	988.3	NA	NA		M	NA	NA	NA	NA
2019/11/22 07:54:00	AWS3	2.08	147	3.65	155	-3.4	95	-4.1	NA	NA	988.2	NA	NA		M	NA	NA	NA	NA
2019/11/22 07:55:00	AWS3	2.06	144	3.65	155	-3.4	95	-4.1	NA	NA	988.3	NA	NA		M	NA	NA	NA	NA
2019/11/22 07:56:00	AWS3	2.15	142	3.65	155	-3.4	95	-4.1	NA	NA	988.3	NA	NA		M	NA	NA	NA	NA
2019/11/22 07:57:00	AWS3	1.74	138	3.50	157	-3.4	95	-4.1	NA	NA	988.2	NA	NA		M	NA	NA	NA	NA
2019/11/22 07:58:00	AWS3	0.86	129	3.50	157	-3.4	95	-4.0	NA	NA	988.3	NA	NA		M	NA	NA	NA	NA
2019/11/22 07:59:00	AWS3	0.37	121	3.19	150	-3.3	95	-4.0	NA	NA	988.4	NA	NA		M	NA	NA	NA	NA
2019/11/22 08:00:00	AWS3	0.72	127	2.78	155	-3.3	95	-4.0	NA	NA	988.4	NA	NA		M	NA	NA	NA	NA
2019/11/22 08:01:00	AWS3	1.58	137	2.78	155	-3.3	95	-4.0	NA	NA	988.2	NA	NA		M	NA	NA	NA	NA
2019/11/22 08:02:00	AWS3	2.03	146	2.62	145	-3.3	95	-3.9	NA	NA	988.3	NA	NA		M	NA	NA	NA	NA
2019/11/22 08:03:00	AWS3	1.94	147	2.62	145	-3.3	95	-4.0	NA	NA	988.2	NA	NA		M	NA	NA	NA	NA
2019/11/22 08:04:00	AWS3	1.93	143	2.62	145	-3.3	95	-4.0	NA	NA	988.2	NA	NA		M	NA	NA	NA	NA
2019/11/22 08:05:00	AWS3	2.00	140	2.47	144	-3.3	95	-4.0	NA	NA	988.3	NA	NA		M	NA	NA	NA	NA
2019/11/22 08:06:00	AWS3	1.93	140	2.37	151	-3.3	95	-4.0	NA	NA	988.3	NA	NA		M	NA	NA	NA	NA
2019/11/22 08:07:00	AWS3	1.88	148	2.37	151	-3.3	95	-3.9	NA	NA	988.3	NA	NA		M	NA	NA	NA	NA
2019/11/22 08:08:00	AWS3	1.84	148	2.37	151	-3.3	96	-3.9	NA	NA	988.3	NA	NA		M	NA	NA	NA	NA
2019/11/22 08:09:00	AWS3	1.64	143	2.37	151	-3.3	96	-3.9	NA	NA	988.3	NA	NA		M	NA	NA	NA	NA
2019/11/22 08:10:00	AWS3	1.68	144	2.47	151	-3.3	96	-3.8	NA	NA	988.2	NA	NA		M	NA	NA	NA	NA
2019/11/22 08:11:00	AWS3	1.88	151	2.62	152	-3.3	96	-3.8	NA	NA	988.2	NA	NA		M	NA	NA	NA	NA
2019/11/22 08:12:00	AWS3	2.20	154	2.78	154	-3.2	96	-3.8	NA	NA	988.2	NA	NA		M	NA	NA	NA	NA
2019/11/22 08:13:00	AWS3	2.31	149	2.78	154	-3.2	96	-3.8	NA	NA	988.1	NA	NA		M	NA	NA	NA	NA
2019/11/22 08:14:00	AWS3	2.38	141	3.09	136	-3.2	96	-3.8	NA	NA	988.1	NA	NA		M	NA	NA	NA	NA
2019/11/22 08:15:00	AWS3	2.76	139	3.34	142	-3.2	96	-3.8	NA	NA	988.2	NA	NA		M	NA	NA	NA	NA
2019/11/22 08:16:00	AWS3	2.90	140	3.34	142	-3.2	96	-3.8	NA	NA	988.2	NA	NA		M	NA	NA	NA	NA
2019/11/22 08:17:00	AWS3	2.96	144	3.34	142	-3.2	96	-3.7	NA	NA	988.1	NA	NA		M	NA	NA	NA	NA
2019/11/22 08:18:00	AWS3	3.08	147	3.40	149	-3.2	96	-3.7	NA	NA	988.1	NA	NA		M	NA	NA	NA	NA
2019/11/22 08:19:00	AWS3	3.25	150	3.86	152	-3.2	96	-3.7	NA	NA	988.2	NA	NA		M	NA	NA	NA	NA
2019/11/22 08:20:00	AWS3	2.79	151	3.86	152	-3.2	96	-3.7	NA	NA	988.2	NA	NA		M	NA	NA	NA	NA
2019/11/22 08:21:00	AWS3	2.54	151	3.86	152	-3.2	96	-3.7	NA	NA	988.1	NA	NA		M	NA	NA	NA	NA
2019/11/22 08:22:00	AWS3	2.57	160	3.86	152	-3.2	96	-3.7	NA	NA	988.1	NA	NA		M	NA	NA	NA	NA
2019/11/22 08:23:00	AWS3	2.39	170	3.86	152	-3.2	96	-3.7	NA	NA	988.1	NA	NA		M	NA	NA	NA	NA
2019/11/22 08:24:00	AWS3	2.09	169	3.86	152	-3.2	96	-3.7	NA	NA	988.2	NA	NA		M	NA	NA	NA	NA
2019/11/22 08:25:00	AWS3	1.58	155	3.86	152	-3.2	96	-3.7	NA	NA	988.2	NA	NA		M	NA	NA	NA	NA
2019/11/22 08:26:00	AWS3	1.17	140	3.86	152	-3.1	97	-3.6	NA	NA	988.2	NA	NA		M	NA	NA	NA	NA
2019/11/22 08:27:00	AWS3	0.96	126	3.86	152	-3.1	97	-3.5	NA	NA	988.3	NA	NA		M	NA	NA	NA	NA
2019/11/22 08:28:00	AWS3	1.56	127	3.86	152	-3.1	97	-3.5	NA	NA	988.1	NA	NA		M	NA	NA	NA	NA
2019/11/22 08:29:00	AWS3	2.35	135	3.24	143	-3.0	97	-3.4	NA	NA	988.2	NA	NA		M	NA	NA	NA	NA
2019/11/22 08:30:00	AWS3	2.56	144	3.24	143	-3.0	97	-3.4	NA	NA	988.2	NA	NA		M	NA	NA	NA	NA
2019/11/22 08:31:00	AWS3	2.40	150	3.09	138	-2.9	97	-3.3	NA	NA	988.1	NA	NA		M	NA	NA	NA	NA
2019/11/22 08:32:00	AWS3	2.38	146	3.09	138	-2.9	97	-3.3	NA	NA	988.2	NA	NA		M	NA	NA	NA	NA
2019/11/22 08:33:00	AWS3	2.31	140	3.09	138	-2.8	97	-3.2	NA	NA	988.2	NA	NA		M	NA	NA	NA	NA
2019/11/22 08:34:00	AWS3	2.44	135	3.29	129	-2.8	97	-3.2	NA	NA	988.2	NA	NA		M	NA	NA	NA	NA
2019/11/22 08:35:00	AWS3	2.47	134	3.29	129	-2.8	97	-3.2	NA	NA	988.2	NA	NA		M	NA	NA	NA	NA
2019/11/22 08:36:00	AWS3	1.80	138	3.29	129	-2.8	97	-3.2	NA	NA	988.2	NA	NA		M	NA	NA	NA	NA
2019/11/22 08:37:00	AWS3	1.39	150	3.29	129	-2.8	97	-3.2	NA	NA	988.2	NA	NA		M	NA	NA	NA	NA
2019/11/22 08:38:00	AWS3	1.39	152	3.29	129	-2.8	97	-3.2	NA	NA	988.2	NA	NA		M	NA	NA	NA	NA
2019/11/22 08:39:00	AWS3	1.70	140	3.29	129	-2.8	97	-3.2	NA	NA	988.2	NA	NA		M	NA	NA	NA	NA
2019/11/22 08:40:00	AWS3	1.95	141	3.29	129	-2.8	97	-3.2	NA	NA	988.2	NA	NA		M	NA	NA	NA	NA
2019/11/22 08:41:00	AWS3	1.64	148	3.29	129	-2.8	97	-3.2	NA	NA	988.2	NA	NA		M	NA	NA	NA	NA
2019/11/22 08:42:00	AWS3	1.13	153	3.29	129	-2.9	97	-3.3	NA	NA	988.2	NA	NA		M	NA	NA	NA	NA
2019/11/22 08:43:00	AWS3	1.09	160	3.29	129	-2.9	97	-3.3	NA	NA	988.2	NA	NA		M	NA	NA	NA	NA
2019/11/22 08:44:00	AWS3	1.31	162	2.68	135	-2.9	97	-3.3	NA	NA	988.2	NA	NA		M	NA	NA	NA	NA
2019/11/22 08:45:00	AWS3	1.45	165	2.52	159	-2.8	97	-3.3	NA	NA	988.2	NA	NA		M	NA	NA	NA	NA
2019/11/22 08:46:00	AWS3	1.36	163	2.52	159	-2.8	97	-3.3	NA	NA	988.3	NA	NA		M	NA	NA	NA	NA
2019/11/22 08:47:00	AWS3	1.23	152	2.52	159	-2.8	97	-3.3	NA	NA	988.1	NA	NA		M	NA	NA	NA	NA
2019/11/22 08:48:00	AWS3	1.11	149	2.52	159	-2.8	97	-3.3	NA	NA	988.1	NA	NA		M	NA	NA	NA	NA
2019/11/22 08:49:00	AWS3	0.64	147	2.52	159	-2.8	97	-3.3	NA	NA	988.2	NA	NA		M	NA	NA	NA	NA
2019/11/22 08:50:00	AWS3	0.96	145	1.95	161	-2.8	97	-3.2	NA	NA	988.2	NA	NA		M	NA	NA	NA	NA
2019/11/22 08:51:00	AWS3	1.62	155	2.31	159	-2.8	97	-3.2	NA	NA	988.0	NA	NA		M	NA	NA	NA	NA
2019/11/22 08:52:00	AWS3	1.33	154	2.31	159	-2.7	97	-3.2	NA	NA	988.1	NA	NA		M	NA	NA	NA	NA
2019/11/22 08:53:00	AWS3	1.50	137	2.42	134	-2.7	97	-3.1	NA	NA	988.2	NA	NA		M	NA	NA	NA	NA
2019/11/22 08:54:00	AWS3	2.03	138	2.52	134	-2.7	97	-3.1	NA	NA	988.1	NA	NA		M	NA	NA	NA	NA
2019/11/22 08:55:00	AWS3	1.47	148	2.52	134	-2.7	97	-3.1	NA	NA	988.1	NA	NA		M	NA	NA	NA	NA
2019/11/22 08:56:00	AWS3	1.12	141	2.52	134	-2.7	97	-3.1	NA	NA	988.3	NA	NA		M	NA	NA	NA	NA
2019/11/22 08:57:00	AWS3	1.80	130	3.34	137	-2.7	97	-3.1	NA	NA	988.1	NA	NA		M	NA	NA	NA	NA
2019/11/22 08:58:00	AWS3	2.07	133	3.34	137	-2.7	97	-3.1	NA	NA	988.1	NA	NA		M	NA	NA	NA	NA
2019/11/22 08:59:00	AWS3	2.39	143	3.34	137	-2.7	97	-3.1	NA	NA	988.2	NA	NA		M	NA	NA	NA	NA
2019/11/22 09:00:00	AWS3	2.19	155	3.34	137	-2.7	97	-3.1	NA	NA	988.3	NA	NA		M	NA	NA	NA	NA
2019/11/22 09:01:00	AWS3	1.48	154	3.34	137	-2.7	97	-3.1	NA	NA	988.1	NA	NA		M	NA	NA	NA	NA
2019/11/22 09:02:00	AWS3	1.62	151	3.34	137	-2.7	97	-3.1	NA	NA	988.1	NA	NA		M	NA	NA	NA	NA
2019/11/22 09:03:00	AWS3	2.06	155	3.34	137	-2.7	97	-3.1	NA	NA	988.1	NA	NA		M	NA	NA	NA	NA
2019/11/22 09:04:00	AWS3	2.25	155	3.34	137	-2.7	97	-3.1	NA	NA	988.1	NA	NA		M	NA	NA	NA	NA
2019/11/22 09:05:00	AWS3	2.57	154	3.34	137	-2.7	97	-3.1	NA	NA	988.0	NA	NA		M	NA	NA	NA	NA
2019/11/22 09:06:00	AWS3	2.95	151	3.34	137	-2.7	97	-3.1	NA	NA	987.9	NA	NA		M	NA	NA	NA	NA
2019/11/22 09:07:00	AWS3	2.65	149	3.24	154	-2.7	97	-3.1	NA	NA	988.0	NA	NA		M	NA	NA	NA	NA
2019/11/22 09:08:00	AWS3	2.07	149	3.24	154	-2.7	97	-3.1	NA	NA	988.2	NA	NA		M	NA	NA	NA	NA
2019/11/22 09:09:00	AWS3	1.08	145	3.24	154	-2.7	97	-3.1	NA	NA	988.2	NA	NA		M	NA	NA	NA	NA
2019/11/22 09:10:00	AWS3	1.13	143	3.24	154	-2.7	97	-3.1	NA	NA	988.0	NA	NA		M	NA	NA	NA	NA
2019/11/22 09:11:00	AWS3	1.65	147	3.24	154	-2.7	97	-3.1	NA	NA	988.1	NA	NA		M	NA	NA	NA	NA
2019/11/22 09:12:00	AWS3	1.53	148	3.24	154	-2.6	97	-3.1	NA	NA	988.0	NA	NA		M	NA	NA	NA	NA
2019/11/22 09:13:00	AWS3	1.97	154	3.24	154	-2.6	97	-3.1	NA	NA	988.2	NA	NA		M	NA	NA	NA	NA
2019/11/22 09:14:00	AWS3	2.40	158	3.24	154	-2.6	97	-3.1	NA	NA	987.9	NA	NA		M	NA	NA	NA	NA
2019/11/22 09:15:00	AWS3	2.34	160	3.24	154	-2.7	97	-3.1	NA	NA	988.1	NA	NA		M	NA	NA	NA	NA
2019/11/22 09:16:00	AWS3	1.52	159	3.04	144	-2.7	97	-3.1	NA	NA	988.0	NA	NA		M	NA	NA	NA	NA
2019/11/22 09:17:00	AWS3	0.45	156	2.88	157	-2.7	97	-3.1	NA	NA	988.1	NA	NA		M	NA	NA	NA	NA
2019/11/22 09:18:00	AWS3	0.00	141	2.88	157	-2.6	97	-3.0	NA	NA	988.3	NA	NA		M	NA	NA	NA	NA
2019/11/22 09:19:00	AWS3	0.20	113	2.88	157	-2.6	97	-3.0	NA	NA	988.0	NA	NA		M	NA	NA	NA	NA
2019/11/22 09:20:00	AWS3	1.18	140	2.88	157	-2.6	97	-3.0	NA	NA	988.0	NA	NA		M	NA	NA	NA	NA
2019/11/22 09:21:00	AWS3	2.19	169	2.88	170	-2.5	97	-2.9	NA	NA	988.2	NA	NA		M	NA	NA	NA	NA
2019/11/22 09:22:00	AWS3	2.51	170	2.93	164	-2.5	97	-2.9	NA	NA	987.9	NA	NA		M	NA	NA	NA	NA
2019/11/22 09:23:00	AWS3	1.75	149	2.93	164	-2.5	97	-2.9	NA	NA	987.9	NA	NA		M	NA	NA	NA	NA
2019/11/22 09:24:00	AWS3	1.15	71	2.93	164	-2.5	97	-2.9	NA	NA	988.2	NA	NA		M	NA	NA	NA	NA
2019/11/22 09:25:00	AWS3	1.24	36	2.93	164	-2.5	97	-2.9	NA	NA	987.9	NA	NA		M	NA	NA	NA	NA
2019/11/22 09:26:00	AWS3	0.55	43	2.93	164	-2.5	97	-2.9	NA	NA	988.2	NA	NA		M	NA	NA	NA	NA
2019/11/22 09:27:00	AWS3	0.16	92	2.93	164	-2.5	97	-2.8	NA	NA	988.2	NA	NA		M	NA	NA	NA	NA
2019/11/22 09:28:00	AWS3	0.66	166	2.93	164	-2.5	97	-2.8	NA	NA	988.0	NA	NA		M	NA	NA	NA	NA
2019/11/22 09:29:00	AWS3	0.97	177	2.93	164	-2.5	97	-2.8	NA	NA	988.2	NA	NA		M	NA	NA	NA	NA
2019/11/22 09:30:00	AWS3	0.46	152	2.93	164	-2.5	97	-2.8	NA	NA	988.3	NA	NA		M	NA	NA	NA	NA
2019/11/22 09:31:00	AWS3	0.00	51	2.93	164	-2.4	98	-2.8	NA	NA	988.3	NA	NA		M	NA	NA	NA	NA
2019/11/22 09:32:00	AWS3	0.00	357	2.06	156	-2.4	98	-2.7	NA	NA	988.2	NA	NA		M	NA	NA	NA	NA
2019/11/22 09:33:00	AWS3	0.00	253	1.70	16	-2.4	98	-2.7	NA	NA	988.2	NA	NA		M	NA	NA	NA	NA
2019/11/22 09:34:00	AWS3	0.00	188	1.70	16	-2.4	98	-2.7	NA	NA	988.3	NA	NA		M	NA	NA	NA	NA
2019/11/22 09:35:00	AWS3	0.00	168	1.44	176	-2.3	98	-2.6	NA	NA	988.3	NA	NA		M	NA	NA	NA	NA
2019/11/22 09:36:00	AWS3	0.00	357	1.44	176	-2.3	98	-2.6	NA	NA	988.3	NA	NA		M	NA	NA	NA	NA
2019/11/22 09:37:00	AWS3	0.00	48	1.44	176	-2.3	98	-2.6	NA	NA	988.3	NA	NA		M	NA	NA	NA	NA
2019/11/22 09:38:00	AWS3	0.00	124	1.44	176	-2.3	98	-2.6	NA	NA	988.2	NA	NA		M	NA	NA	NA	NA
2019/11/22 09:39:00	AWS3	0.00	106	M	M	-2.2	98	-2.5	NA	NA	988.2	NA	NA		M	NA	NA	NA	NA
2019/11/22 09:40:00	AWS3	0.77	26	2.52	328	-2.1	98	-2.4	NA	NA	988.2	NA	NA		M	NA	NA	NA	NA
2019/11/22 09:41:00	AWS3	1.39	27	2.57	90	-2.0	98	-2.3	NA	NA	988.2	NA	NA		M	NA	NA	NA	NA
2019/11/22 09:42:00	AWS3	1.22	17	2.62	40	-2.0	98	-2.3	NA	NA	988.3	NA	NA		M	NA	NA	NA	NA
2019/11/22 09:43:00	AWS3	0.60	342	2.62	40	-1.9	98	-2.2	NA	NA	988.3	NA	NA		M	NA	NA	NA	NA
2019/11/22 09:44:00	AWS3	0.86	10	3.40	3	-1.9	98	-2.2	NA	NA	988.3	NA	NA		M	NA	NA	NA	NA
2019/11/22 09:45:00	AWS3	2.33	28	3.40	3	-1.8	97	-2.2	NA	NA	988.3	NA	NA		M	NA	NA	NA	NA
2019/11/22 09:46:00	AWS3	2.86	28	3.76	7	-1.8	97	-2.2	NA	NA	988.2	NA	NA		M	NA	NA	NA	NA
2019/11/22 09:47:00	AWS3	4.52	35	7.72	39	-1.7	98	-2.0	NA	NA	988.1	NA	NA		M	NA	NA	NA	NA
2019/11/22 09:48:00	AWS3	5.39	38	7.72	39	-1.5	98	-1.8	NA	NA	988.1	NA	NA		M	NA	NA	NA	NA
2019/11/22 09:49:00	AWS3	4.48	24	7.72	39	-1.3	97	-1.7	NA	NA	988.1	NA	NA		M	NA	NA	NA	NA
2019/11/22 09:50:00	AWS3	5.10	17	7.72	39	-1.0	96	-1.6	NA	NA	988.1	NA	NA		M	NA	NA	NA	NA
2019/11/22 09:51:00	AWS3	5.20	27	7.72	39	-0.8	95	-1.6	NA	NA	988.2	NA	NA		M	NA	NA	NA	NA
2019/11/22 09:52:00	AWS3	4.25	33	7.72	39	-0.7	93	-1.7	NA	NA	988.2	NA	NA		M	NA	NA	NA	NA
2019/11/22 09:53:00	AWS3	3.71	40	7.72	39	-0.6	90	-2.0	NA	NA	988.2	NA	NA		M	NA	NA	NA	NA
2019/11/22 09:54:00	AWS3	3.90	35	7.72	39	-0.6	88	-2.3	NA	NA	988.2	NA	NA		M	NA	NA	NA	NA
2019/11/22 09:55:00	AWS3	4.64	29	8.39	29	-0.5	86	-2.6	NA	NA	988.1	NA	NA		M	NA	NA	NA	NA
2019/11/22 09:56:00	AWS3	5.78	33	8.39	29	-0.5	85	-2.8	NA	NA	988.0	NA	NA		M	NA	NA	NA	NA
2019/11/22 09:57:00	AWS3	6.18	37	8.39	29	-0.5	84	-2.9	NA	NA	988.0	NA	NA		M	NA	NA	NA	NA
2019/11/22 09:58:00	AWS3	5.73	33	8.39	29	-0.5	83	-3.0	NA	NA	988.0	NA	NA		M	NA	NA	NA	NA
2019/11/22 09:59:00	AWS3	5.57	31	8.39	29	-0.5	83	-3.0	NA	NA	988.0	NA	NA		M	NA	NA	NA	NA
2019/11/22 10:00:00	AWS3	5.59	40	8.39	29	-0.5	83	-3.0	NA	NA	988.0	NA	NA		M	NA	NA	NA	NA
2019/11/22 10:01:00	AWS3	5.67	42	8.39	29	-0.6	83	-3.0	NA	NA	987.9	NA	NA		M	NA	NA	NA	NA
2019/11/22 10:02:00	AWS3	5.84	38	8.39	29	-0.6	84	-3.0	NA	NA	987.9	NA	NA		M	NA	NA	NA	NA
2019/11/22 10:03:00	AWS3	6.22	36	8.39	29	-0.6	84	-3.0	NA	NA	987.9	NA	NA		M	NA	NA	NA	NA
2019/11/22 10:04:00	AWS3	7.25	32	8.75	33	-0.6	84	-2.9	NA	NA	987.8	NA	NA		M	NA	NA	NA	NA
2019/11/22 10:05:00	AWS3	8.30	32	9.77	24	-0.6	85	-2.8	NA	NA	987.7	NA	NA		M	NA	NA	NA	NA
2019/11/22 10:06:00	AWS3	8.19	37	9.77	24	-0.6	85	-2.8	NA	NA	987.7	NA	NA		M	NA	NA	NA	NA
2019/11/22 10:07:00	AWS3	7.99	37	9.77	24	-0.6	86	-2.7	NA	NA	987.7	NA	NA		M	NA	NA	NA	NA
2019/11/22 10:08:00	AWS3	8.68	33	11.27	25	-0.6	86	-2.6	NA	NA	987.5	NA	NA		M	NA	NA	NA	NA
2019/11/22 10:09:00	AWS3	9.47	32	11.27	25	-0.6	87	-2.5	NA	NA	987.4	NA	NA		M	NA	NA	NA	NA
2019/11/22 10:10:00	AWS3	8.64	33	11.27	25	-0.6	87	-2.5	NA	NA	987.7	NA	NA		M	NA	NA	NA	NA
2019/11/22 10:11:00	AWS3	8.15	35	11.27	25	-0.7	88	-2.4	NA	NA	987.4	NA	NA		M	NA	NA	NA	NA
2019/11/22 10:12:00	AWS3	8.41	36	11.27	25	-0.7	88	-2.3	NA	NA	987.5	NA	NA		M	NA	NA	NA	NA
2019/11/22 10:13:00	AWS3	8.38	36	11.27	25	-0.7	89	-2.3	NA	NA	987.5	NA	NA		M	NA	NA	NA	NA
2019/11/22 10:14:00	AWS3	8.71	34	11.27	25	-0.7	89	-2.3	NA	NA	987.5	NA	NA		M	NA	NA	NA	NA
2019/11/22 10:15:00	AWS3	8.78	33	11.27	25	-0.7	89	-2.3	NA	NA	987.5	NA	NA		M	NA	NA	NA	NA
2019/11/22 10:16:00	AWS3	8.73	36	11.27	25	-0.7	89	-2.3	NA	NA	987.5	NA	NA		M	NA	NA	NA	NA
2019/11/22 10:17:00	AWS3	8.92	34	11.27	25	-0.8	90	-2.3	NA	NA	987.4	NA	NA		M	NA	NA	NA	NA
2019/11/22 10:18:00	AWS3	8.79	33	11.01	34	-0.8	90	-2.2	NA	NA	987.5	NA	NA		M	NA	NA	NA	NA
2019/11/22 10:19:00	AWS3	8.17	38	10.60	27	-0.8	90	-2.2	NA	NA	987.6	NA	NA		M	NA	NA	NA	NA
2019/11/22 10:20:00	AWS3	7.92	38	10.60	27	-0.8	91	-2.1	NA	NA	987.6	NA	NA		M	NA	NA	NA	NA
2019/11/22 10:21:00	AWS3	7.79	37	10.60	27	-0.8	91	-2.1	NA	NA	987.6	NA	NA		M	NA	NA	NA	NA
2019/11/22 10:22:00	AWS3	7.48	37	10.60	27	-0.8	91	-2.0	NA	NA	987.7	NA	NA		M	NA	NA	NA	NA
2019/11/22 10:23:00	AWS3	7.86	36	10.60	27	-0.7	91	-2.0	NA	NA	987.5	NA	NA		M	NA	NA	NA	NA
2019/11/22 10:24:00	AWS3	8.04	38	10.60	27	-0.7	91	-2.0	NA	NA	987.7	NA	NA		M	NA	NA	NA	NA
2019/11/22 10:25:00	AWS3	7.87	40	10.60	27	-0.7	91	-1.9	NA	NA	987.6	NA	NA		M	NA	NA	NA	NA
2019/11/22 10:26:00	AWS3	7.69	39	10.60	27	-0.7	91	-1.9	NA	NA	987.6	NA	NA		M	NA	NA	NA	NA
2019/11/22 10:27:00	AWS3	6.91	40	10.60	27	-0.7	91	-1.9	NA	NA	987.8	NA	NA		M	NA	NA	NA	NA
2019/11/22 10:28:00	AWS3	6.07	40	10.55	46	-0.6	91	-1.9	NA	NA	987.8	NA	NA		M	NA	NA	NA	NA
2019/11/22 10:29:00	AWS3	5.83	40	10.55	46	-0.6	91	-1.9	NA	NA	987.8	NA	NA		M	NA	NA	NA	NA
2019/11/22 10:30:00	AWS3	5.87	41	10.55	46	-0.6	91	-1.9	NA	NA	987.9	NA	NA		M	NA	NA	NA	NA
2019/11/22 10:31:00	AWS3	6.02	40	10.55	46	-0.6	91	-1.9	NA	NA	987.8	NA	NA		M	NA	NA	NA	NA
2019/11/22 10:32:00	AWS3	6.04	41	10.55	46	-0.6	91	-1.8	NA	NA	987.9	NA	NA		M	NA	NA	NA	NA
2019/11/22 10:33:00	AWS3	5.81	40	10.55	46	-0.5	91	-1.8	NA	NA	987.9	NA	NA		M	NA	NA	NA	NA
2019/11/22 10:34:00	AWS3	5.49	39	10.55	46	-0.5	91	-1.8	NA	NA	987.9	NA	NA		M	NA	NA	NA	NA
2019/11/22 10:35:00	AWS3	6.38	39	10.55	46	-0.4	90	-1.8	NA	NA	987.7	NA	NA		M	NA	NA	NA	NA
2019/11/22 10:36:00	AWS3	7.58	38	8.49	29	-0.4	90	-1.8	NA	NA	987.7	NA	NA		M	NA	NA	NA	NA
2019/11/22 10:37:00	AWS3	6.92	40	8.49	29	-0.4	89	-1.9	NA	NA	987.8	NA	NA		M	NA	NA	NA	NA
2019/11/22 10:38:00	AWS3	6.37	37	8.49	29	-0.3	89	-1.9	NA	NA	987.8	NA	NA		M	NA	NA	NA	NA
2019/11/22 10:39:00	AWS3	6.89	32	8.49	29	-0.3	89	-2.0	NA	NA	987.7	NA	NA		M	NA	NA	NA	NA
2019/11/22 10:40:00	AWS3	7.72	35	9.93	34	-0.3	88	-2.0	NA	NA	987.7	NA	NA		M	NA	NA	NA	NA
2019/11/22 10:41:00	AWS3	7.65	36	9.93	34	-0.3	87	-2.1	NA	NA	987.7	NA	NA		M	NA	NA	NA	NA
2019/11/22 10:42:00	AWS3	7.27	33	9.93	34	-0.2	87	-2.2	NA	NA	987.7	NA	NA		M	NA	NA	NA	NA
2019/11/22 10:43:00	AWS3	7.40	34	9.93	34	-0.2	86	-2.2	NA	NA	987.6	NA	NA		M	NA	NA	NA	NA
2019/11/22 10:44:00	AWS3	6.69	33	9.93	34	-0.1	85	-2.3	NA	NA	987.8	NA	NA		M	NA	NA	NA	NA
2019/11/22 10:45:00	AWS3	6.47	33	9.93	34	-0.1	84	-2.4	NA	NA	987.7	NA	NA		M	NA	NA	NA	NA
2019/11/22 10:46:00	AWS3	7.08	35	9.93	34	-0.0	84	-2.5	NA	NA	987.7	NA	NA		M	NA	NA	NA	NA
2019/11/22 10:47:00	AWS3	7.39	33	9.93	34	0.0	83	-2.5	NA	NA	987.5	NA	NA		M	NA	NA	NA	NA
2019/11/22 10:48:00	AWS3	8.30	29	10.91	17	0.1	83	-2.5	NA	NA	987.3	NA	NA		M	NA	NA	NA	NA
2019/11/22 10:49:00	AWS3	8.08	27	10.91	17	0.1	82	-2.6	NA	NA	987.5	NA	NA		M	NA	NA	NA	NA
2019/11/22 10:50:00	AWS3	7.31	30	10.91	17	0.1	82	-2.6	NA	NA	987.6	NA	NA		M	NA	NA	NA	NA
2019/11/22 10:51:00	AWS3	7.98	36	10.91	17	0.2	81	-2.6	NA	NA	987.4	NA	NA		M	NA	NA	NA	NA
2019/11/22 10:52:00	AWS3	7.92	39	10.91	17	0.2	81	-2.7	NA	NA	987.6	NA	NA		M	NA	NA	NA	NA
2019/11/22 10:53:00	AWS3	7.44	35	10.91	17	0.2	81	-2.7	NA	NA	987.5	NA	NA		M	NA	NA	NA	NA
2019/11/22 10:54:00	AWS3	7.16	35	10.91	17	0.2	81	-2.8	NA	NA	987.6	NA	NA		M	NA	NA	NA	NA
2019/11/22 10:55:00	AWS3	6.74	36	10.91	17	0.1	81	-2.8	NA	NA	987.6	NA	NA		M	NA	NA	NA	NA
2019/11/22 10:56:00	AWS3	7.59	34	10.91	17	0.1	81	-2.8	NA	NA	987.5	NA	NA		M	NA	NA	NA	NA
2019/11/22 10:57:00	AWS3	8.72	32	10.91	17	0.2	81	-2.7	NA	NA	987.4	NA	NA		M	NA	NA	NA	NA
2019/11/22 10:58:00	AWS3	8.33	32	10.34	44	0.2	81	-2.7	NA	NA	987.5	NA	NA		M	NA	NA	NA	NA
2019/11/22 10:59:00	AWS3	8.13	35	11.11	45	0.3	80	-2.7	NA	NA	987.3	NA	NA		M	NA	NA	NA	NA
2019/11/22 11:00:00	AWS3	8.07	33	11.11	45	0.4	80	-2.7	NA	NA	987.4	NA	NA		M	NA	NA	NA	NA
2019/11/22 11:01:00	AWS3	7.70	30	11.11	45	0.4	80	-2.7	NA	NA	987.6	NA	NA		M	NA	NA	NA	NA
2019/11/22 11:02:00	AWS3	8.24	30	11.11	45	0.4	79	-2.8	NA	NA	987.4	NA	NA		M	NA	NA	NA	NA
2019/11/22 11:03:00	AWS3	7.92	30	11.11	45	0.4	79	-2.8	NA	NA	987.5	NA	NA		M	NA	NA	NA	NA
2019/11/22 11:04:00	AWS3	8.10	29	11.11	45	0.4	79	-2.8	NA	NA	987.4	NA	NA		M	NA	NA	NA	NA
2019/11/22 11:05:00	AWS3	9.44	28	11.78	37	0.4	79	-2.8	NA	NA	987.3	NA	NA		M	NA	NA	NA	NA
2019/11/22 11:06:00	AWS3	8.92	30	11.78	37	0.4	79	-2.8	NA	NA	987.5	NA	NA		M	NA	NA	NA	NA
2019/11/22 11:07:00	AWS3	8.23	33	11.78	35	0.4	79	-2.8	NA	NA	987.4	NA	NA		M	NA	NA	NA	NA
2019/11/22 11:08:00	AWS3	8.56	30	11.78	35	0.4	79	-2.8	NA	NA	987.5	NA	NA		M	NA	NA	NA	NA
2019/11/22 11:09:00	AWS3	8.88	30	11.78	35	0.4	79	-2.8	NA	NA	987.3	NA	NA		M	NA	NA	NA	NA
2019/11/22 11:10:00	AWS3	8.38	30	11.78	35	0.4	79	-2.9	NA	NA	987.6	NA	NA		M	NA	NA	NA	NA
2019/11/22 11:11:00	AWS3	7.37	26	11.78	35	0.3	79	-2.9	NA	NA	987.7	NA	NA		M	NA	NA	NA	NA
2019/11/22 11:12:00	AWS3	7.50	28	11.78	35	0.3	79	-2.9	NA	NA	987.6	NA	NA		M	NA	NA	NA	NA
2019/11/22 11:13:00	AWS3	7.95	30	11.78	35	0.3	79	-2.9	NA	NA	987.5	NA	NA		M	NA	NA	NA	NA
2019/11/22 11:14:00	AWS3	7.72	32	11.78	35	0.3	79	-2.9	NA	NA	987.6	NA	NA		M	NA	NA	NA	NA
2019/11/22 11:15:00	AWS3	7.69	35	11.78	35	0.3	79	-2.9	NA	NA	987.6	NA	NA		M	NA	NA	NA	NA
2019/11/22 11:16:00	AWS3	8.55	33	11.78	35	0.4	79	-2.9	NA	NA	987.3	NA	NA		M	NA	NA	NA	NA
2019/11/22 11:17:00	AWS3	8.06	25	11.78	35	0.4	78	-2.9	NA	NA	987.5	NA	NA		M	NA	NA	NA	NA
2019/11/22 11:18:00	AWS3	6.97	24	10.96	34	0.5	78	-2.9	NA	NA	987.5	NA	NA		M	NA	NA	NA	NA
2019/11/22 11:19:00	AWS3	6.84	29	10.96	34	0.5	78	-3.0	NA	NA	987.5	NA	NA		M	NA	NA	NA	NA
2019/11/22 11:20:00	AWS3	7.96	29	12.14	24	0.4	78	-3.0	NA	NA	987.2	NA	NA		M	NA	NA	NA	NA
2019/11/22 11:21:00	AWS3	8.79	32	12.14	24	0.4	78	-3.0	NA	NA	987.3	NA	NA		M	NA	NA	NA	NA
2019/11/22 11:22:00	AWS3	7.82	33	12.14	24	0.3	78	-3.1	NA	NA	987.6	NA	NA		M	NA	NA	NA	NA
2019/11/22 11:23:00	AWS3	8.30	33	12.14	24	0.3	78	-3.0	NA	NA	987.3	NA	NA		M	NA	NA	NA	NA
2019/11/22 11:24:00	AWS3	9.51	36	12.14	24	0.4	78	-3.0	NA	NA	987.2	NA	NA		M	NA	NA	NA	NA
2019/11/22 11:25:00	AWS3	9.10	33	12.14	24	0.5	78	-3.0	NA	NA	987.4	NA	NA		M	NA	NA	NA	NA
2019/11/22 11:26:00	AWS3	8.93	31	12.14	24	0.5	77	-3.0	NA	NA	987.3	NA	NA		M	NA	NA	NA	NA
2019/11/22 11:27:00	AWS3	9.52	32	12.14	24	0.6	77	-3.0	NA	NA	987.2	NA	NA		M	NA	NA	NA	NA
2019/11/22 11:28:00	AWS3	9.12	32	12.14	24	0.6	77	-3.0	NA	NA	987.4	NA	NA		M	NA	NA	NA	NA
2019/11/22 11:29:00	AWS3	8.63	32	12.14	24	0.6	77	-3.0	NA	NA	987.3	NA	NA		M	NA	NA	NA	NA
2019/11/22 11:30:00	AWS3	8.57	33	11.68	44	0.6	77	-3.0	NA	NA	987.3	NA	NA		M	NA	NA	NA	NA
2019/11/22 11:31:00	AWS3	8.13	35	11.68	44	0.6	78	-2.9	NA	NA	987.4	NA	NA		M	NA	NA	NA	NA
2019/11/22 11:32:00	AWS3	8.58	35	11.68	28	0.6	78	-2.9	NA	NA	987.3	NA	NA		M	NA	NA	NA	NA
2019/11/22 11:33:00	AWS3	9.09	34	11.68	28	0.6	78	-2.8	NA	NA	987.2	NA	NA		M	NA	NA	NA	NA
2019/11/22 11:34:00	AWS3	8.11	31	11.68	28	0.6	78	-2.7	NA	NA	987.5	NA	NA		M	NA	NA	NA	NA
2019/11/22 11:35:00	AWS3	7.85	29	11.68	28	0.7	78	-2.7	NA	NA	987.5	NA	NA		M	NA	NA	NA	NA
2019/11/22 11:36:00	AWS3	9.01	29	11.68	28	0.7	78	-2.7	NA	NA	987.3	NA	NA		M	NA	NA	NA	NA
2019/11/22 11:37:00	AWS3	9.04	31	11.68	28	0.6	78	-2.8	NA	NA	987.4	NA	NA		M	NA	NA	NA	NA
2019/11/22 11:38:00	AWS3	8.31	30	11.68	28	0.6	79	-2.7	NA	NA	987.5	NA	NA		M	NA	NA	NA	NA
2019/11/22 11:39:00	AWS3	8.10	28	11.68	28	0.5	79	-2.7	NA	NA	987.5	NA	NA		M	NA	NA	NA	NA
2019/11/22 11:40:00	AWS3	9.13	32	12.24	42	0.5	79	-2.6	NA	NA	987.2	NA	NA		M	NA	NA	NA	NA
2019/11/22 11:41:00	AWS3	9.54	33	12.24	42	0.5	80	-2.6	NA	NA	987.4	NA	NA		M	NA	NA	NA	NA
2019/11/22 11:42:00	AWS3	7.98	31	12.24	42	0.6	80	-2.5	NA	NA	987.6	NA	NA		M	NA	NA	NA	NA
2019/11/22 11:43:00	AWS3	8.15	29	12.24	42	0.6	80	-2.5	NA	NA	987.2	NA	NA		M	NA	NA	NA	NA
2019/11/22 11:44:00	AWS3	9.35	27	12.24	42	0.6	80	-2.5	NA	NA	987.3	NA	NA		M	NA	NA	NA	NA
2019/11/22 11:45:00	AWS3	9.05	29	12.24	42	0.5	80	-2.5	NA	NA	987.3	NA	NA		M	NA	NA	NA	NA
2019/11/22 11:46:00	AWS3	7.85	30	12.24	42	0.5	81	-2.5	NA	NA	987.5	NA	NA		M	NA	NA	NA	NA
2019/11/22 11:47:00	AWS3	7.92	29	12.24	42	0.4	81	-2.4	NA	NA	987.3	NA	NA		M	NA	NA	NA	NA
2019/11/22 11:48:00	AWS3	9.35	30	12.24	42	0.4	82	-2.4	NA	NA	987.1	NA	NA		M	NA	NA	NA	NA
2019/11/22 11:49:00	AWS3	9.31	31	12.24	42	0.4	82	-2.3	NA	NA	987.4	NA	NA		M	NA	NA	NA	NA
2019/11/22 11:50:00	AWS3	7.93	29	11.27	34	0.4	82	-2.3	NA	NA	987.5	NA	NA		M	NA	NA	NA	NA
2019/11/22 11:51:00	AWS3	8.14	31	11.16	29	0.5	82	-2.3	NA	NA	987.2	NA	NA		M	NA	NA	NA	NA
2019/11/22 11:52:00	AWS3	8.80	28	11.16	29	0.5	82	-2.3	NA	NA	987.3	NA	NA		M	NA	NA	NA	NA
2019/11/22 11:53:00	AWS3	8.16	26	11.06	44	0.4	82	-2.3	NA	NA	987.4	NA	NA		M	NA	NA	NA	NA
2019/11/22 11:54:00	AWS3	7.73	27	11.06	44	0.4	82	-2.3	NA	NA	987.5	NA	NA		M	NA	NA	NA	NA
2019/11/22 11:55:00	AWS3	8.73	30	11.06	29	0.4	82	-2.3	NA	NA	987.2	NA	NA		M	NA	NA	NA	NA
2019/11/22 11:56:00	AWS3	9.93	33	11.99	36	0.5	82	-2.2	NA	NA	987.1	NA	NA		M	NA	NA	NA	NA
2019/11/22 11:57:00	AWS3	9.66	33	11.99	36	0.5	82	-2.2	NA	NA	987.3	NA	NA		M	NA	NA	NA	NA
2019/11/22 11:58:00	AWS3	9.87	33	11.99	36	0.6	82	-2.2	NA	NA	987.0	NA	NA		M	NA	NA	NA	NA
2019/11/22 11:59:00	AWS3	9.51	36	11.99	36	0.6	82	-2.1	NA	NA	987.3	NA	NA		M	NA	NA	NA	NA
2019/11/22 12:00:00	AWS3	9.18	37	11.99	36	0.6	82	-2.1	NA	NA	987.3	NA	NA		M	NA	NA	NA	NA
2019/11/22 12:01:00	AWS3	9.85	37	12.45	36	0.6	82	-2.0	NA	NA	987.1	NA	NA		M	NA	NA	NA	NA
2019/11/22 12:02:00	AWS3	10.12	32	12.45	36	0.6	83	-2.0	NA	NA	987.1	NA	NA		M	NA	NA	NA	NA
2019/11/22 12:03:00	AWS3	10.03	29	12.45	36	0.6	83	-1.9	NA	NA	987.2	NA	NA		M	NA	NA	NA	NA
2019/11/22 12:04:00	AWS3	9.44	31	12.45	36	0.6	83	-1.9	NA	NA	987.3	NA	NA		M	NA	NA	NA	NA
2019/11/22 12:05:00	AWS3	8.65	27	12.45	36	0.6	83	-1.9	NA	NA	987.4	NA	NA		M	NA	NA	NA	NA
2019/11/22 12:06:00	AWS3	8.17	24	12.45	36	0.6	84	-1.9	NA	NA	987.5	NA	NA		M	NA	NA	NA	NA
2019/11/22 12:07:00	AWS3	8.19	24	12.45	36	0.6	84	-1.9	NA	NA	987.4	NA	NA		M	NA	NA	NA	NA
2019/11/22 12:08:00	AWS3	8.49	31	12.45	36	0.6	84	-1.9	NA	NA	987.2	NA	NA		M	NA	NA	NA	NA
2019/11/22 12:09:00	AWS3	8.68	35	12.45	36	0.6	84	-1.8	NA	NA	987.3	NA	NA		M	NA	NA	NA	NA
2019/11/22 12:10:00	AWS3	8.39	30	12.45	36	0.5	84	-1.9	NA	NA	987.3	NA	NA		M	NA	NA	NA	NA
2019/11/22 12:11:00	AWS3	8.45	28	11.88	29	0.5	84	-1.9	NA	NA	987.4	NA	NA		M	NA	NA	NA	NA
2019/11/22 12:12:00	AWS3	8.40	29	11.78	32	0.5	83	-1.9	NA	NA	987.5	NA	NA		M	NA	NA	NA	NA
2019/11/22 12:13:00	AWS3	8.67	29	11.78	32	0.5	83	-2.0	NA	NA	987.3	NA	NA		M	NA	NA	NA	NA
2019/11/22 12:14:00	AWS3	9.11	28	11.52	40	0.5	83	-2.0	NA	NA	987.3	NA	NA		M	NA	NA	NA	NA
2019/11/22 12:15:00	AWS3	9.10	27	11.52	40	0.5	83	-2.0	NA	NA	987.3	NA	NA		M	NA	NA	NA	NA
2019/11/22 12:16:00	AWS3	8.65	26	11.52	40	0.5	83	-2.1	NA	NA	987.5	NA	NA		M	NA	NA	NA	NA
2019/11/22 12:17:00	AWS3	7.53	28	11.52	40	0.5	83	-2.1	NA	NA	987.5	NA	NA		M	NA	NA	NA	NA
2019/11/22 12:18:00	AWS3	7.95	30	11.52	40	0.5	83	-2.0	NA	NA	987.4	NA	NA		M	NA	NA	NA	NA
2019/11/22 12:19:00	AWS3	7.75	32	11.52	40	0.5	83	-2.0	NA	NA	987.6	NA	NA		M	NA	NA	NA	NA
2019/11/22 12:20:00	AWS3	7.19	30	11.52	40	0.6	83	-2.0	NA	NA	987.4	NA	NA		M	NA	NA	NA	NA
2019/11/22 12:21:00	AWS3	7.70	29	11.52	40	0.6	83	-2.0	NA	NA	987.5	NA	NA		M	NA	NA	NA	NA
2019/11/22 12:22:00	AWS3	8.20	31	11.52	40	0.7	82	-2.0	NA	NA	987.2	NA	NA		M	NA	NA	NA	NA
2019/11/22 12:23:00	AWS3	7.88	30	11.11	32	0.7	82	-2.0	NA	NA	987.5	NA	NA		M	NA	NA	NA	NA
2019/11/22 12:24:00	AWS3	8.56	29	11.42	19	0.7	82	-2.1	NA	NA	987.2	NA	NA		M	NA	NA	NA	NA
2019/11/22 12:25:00	AWS3	10.19	31	11.42	19	0.7	82	-2.1	NA	NA	987.2	NA	NA		M	NA	NA	NA	NA
2019/11/22 12:26:00	AWS3	9.69	34	11.42	19	0.6	82	-2.1	NA	NA	987.3	NA	NA		M	NA	NA	NA	NA
2019/11/22 12:27:00	AWS3	9.51	32	11.42	19	0.6	82	-2.1	NA	NA	987.3	NA	NA		M	NA	NA	NA	NA
2019/11/22 12:28:00	AWS3	9.54	31	11.42	19	0.6	83	-2.0	NA	NA	987.3	NA	NA		M	NA	NA	NA	NA
2019/11/22 12:29:00	AWS3	8.83	32	11.42	19	0.6	83	-2.0	NA	NA	987.3	NA	NA		M	NA	NA	NA	NA
2019/11/22 12:30:00	AWS3	8.85	33	11.42	19	0.6	83	-2.0	NA	NA	987.3	NA	NA		M	NA	NA	NA	NA
2019/11/22 12:31:00	AWS3	8.97	32	11.42	19	0.6	83	-1.9	NA	NA	987.3	NA	NA		M	NA	NA	NA	NA
2019/11/22 12:32:00	AWS3	9.24	30	12.14	32	0.7	83	-1.9	NA	NA	987.2	NA	NA		M	NA	NA	NA	NA
2019/11/22 12:33:00	AWS3	9.73	30	12.14	32	0.7	83	-1.9	NA	NA	987.2	NA	NA		M	NA	NA	NA	NA
2019/11/22 12:34:00	AWS3	9.18	29	12.14	32	0.7	82	-1.9	NA	NA	987.3	NA	NA		M	NA	NA	NA	NA
2019/11/22 12:35:00	AWS3	8.77	32	12.14	32	0.8	83	-1.9	NA	NA	987.3	NA	NA		M	NA	NA	NA	NA
2019/11/22 12:36:00	AWS3	9.09	36	12.14	32	0.8	83	-1.8	NA	NA	987.3	NA	NA		M	NA	NA	NA	NA
2019/11/22 12:37:00	AWS3	8.58	36	12.14	32	0.8	83	-1.8	NA	NA	987.5	NA	NA		M	NA	NA	NA	NA
2019/11/22 12:38:00	AWS3	8.43	30	12.14	32	0.8	83	-1.8	NA	NA	987.3	NA	NA		M	NA	NA	NA	NA
2019/11/22 12:39:00	AWS3	8.99	29	12.14	32	0.8	83	-1.8	NA	NA	987.3	NA	NA		M	NA	NA	NA	NA
2019/11/22 12:40:00	AWS3	9.10	29	12.14	32	0.8	83	-1.8	NA	NA	987.2	NA	NA		M	NA	NA	NA	NA
2019/11/22 12:41:00	AWS3	8.72	32	12.14	32	0.8	83	-1.8	NA	NA	987.3	NA	NA		M	NA	NA	NA	NA
2019/11/22 12:42:00	AWS3	8.23	35	11.88	25	0.8	83	-1.8	NA	NA	987.3	NA	NA		M	NA	NA	NA	NA
2019/11/22 12:43:00	AWS3	8.72	32	11.88	25	0.8	83	-1.7	NA	NA	987.2	NA	NA		M	NA	NA	NA	NA
2019/11/22 12:44:00	AWS3	9.65	30	11.68	29	0.8	83	-1.7	NA	NA	987.0	NA	NA		M	NA	NA	NA	NA
2019/11/22 12:45:00	AWS3	9.96	30	11.68	29	0.8	83	-1.7	NA	NA	987.2	NA	NA		M	NA	NA	NA	NA
2019/11/22 12:46:00	AWS3	9.22	32	11.68	29	0.8	84	-1.7	NA	NA	987.3	NA	NA		M	NA	NA	NA	NA
2019/11/22 12:47:00	AWS3	8.67	30	11.68	29	0.8	84	-1.6	NA	NA	987.3	NA	NA		M	NA	NA	NA	NA
2019/11/22 12:48:00	AWS3	8.57	29	11.68	29	0.8	84	-1.6	NA	NA	987.3	NA	NA		M	NA	NA	NA	NA
2019/11/22 12:49:00	AWS3	8.14	28	11.68	29	0.8	84	-1.6	NA	NA	987.5	NA	NA		M	NA	NA	NA	NA
2019/11/22 12:50:00	AWS3	7.88	25	11.68	29	0.7	84	-1.7	NA	NA	987.4	NA	NA		M	NA	NA	NA	NA
2019/11/22 12:51:00	AWS3	7.52	28	11.68	29	0.7	84	-1.7	NA	NA	987.5	NA	NA		M	NA	NA	NA	NA
2019/11/22 12:52:00	AWS3	7.67	30	11.68	29	0.6	85	-1.7	NA	NA	987.4	NA	NA		M	NA	NA	NA	NA
2019/11/22 12:53:00	AWS3	7.84	31	11.42	41	0.6	85	-1.6	NA	NA	987.5	NA	NA		M	NA	NA	NA	NA
2019/11/22 12:54:00	AWS3	7.46	30	11.42	41	0.6	86	-1.6	NA	NA	987.4	NA	NA		M	NA	NA	NA	NA
2019/11/22 12:55:00	AWS3	8.58	28	11.01	38	0.6	86	-1.5	NA	NA	987.2	NA	NA		M	NA	NA	NA	NA
2019/11/22 12:56:00	AWS3	9.81	33	12.55	40	0.6	86	-1.4	NA	NA	987.2	NA	NA		M	NA	NA	NA	NA
2019/11/22 12:57:00	AWS3	9.14	33	12.55	40	0.6	86	-1.4	NA	NA	987.4	NA	NA		M	NA	NA	NA	NA
2019/11/22 12:58:00	AWS3	8.03	26	12.55	40	0.6	87	-1.4	NA	NA	987.4	NA	NA		M	NA	NA	NA	NA
2019/11/22 12:59:00	AWS3	8.12	26	12.55	40	0.6	87	-1.4	NA	NA	987.2	NA	NA		M	NA	NA	NA	NA
2019/11/22 13:00:00	AWS3	8.92	30	12.55	40	0.6	87	-1.4	NA	NA	987.3	NA	NA		M	NA	NA	NA	NA
2019/11/22 13:01:00	AWS3	8.63	28	12.55	40	0.6	87	-1.4	NA	NA	987.3	NA	NA		M	NA	NA	NA	NA
2019/11/22 13:02:00	AWS3	8.09	27	12.55	40	0.6	87	-1.4	NA	NA	987.4	NA	NA		M	NA	NA	NA	NA
2019/11/22 13:03:00	AWS3	8.84	30	12.55	40	0.6	86	-1.4	NA	NA	987.3	NA	NA		M	NA	NA	NA	NA
2019/11/22 13:04:00	AWS3	9.35	29	12.55	40	0.6	86	-1.4	NA	NA	987.3	NA	NA		M	NA	NA	NA	NA
2019/11/22 13:05:00	AWS3	8.80	28	12.55	40	0.6	86	-1.4	NA	NA	987.4	NA	NA		M	NA	NA	NA	NA
2019/11/22 13:06:00	AWS3	8.63	27	10.91	41	0.6	86	-1.4	NA	NA	987.4	NA	NA		M	NA	NA	NA	NA
2019/11/22 13:07:00	AWS3	8.49	26	10.91	41	0.6	87	-1.4	NA	NA	987.4	NA	NA		M	NA	NA	NA	NA
2019/11/22 13:08:00	AWS3	7.85	30	10.91	41	0.5	87	-1.4	NA	NA	987.5	NA	NA		M	NA	NA	NA	NA
2019/11/22 13:09:00	AWS3	7.92	32	10.91	41	0.5	87	-1.3	NA	NA	987.4	NA	NA		M	NA	NA	NA	NA
2019/11/22 13:10:00	AWS3	8.41	32	10.91	41	0.5	87	-1.3	NA	NA	987.4	NA	NA		M	NA	NA	NA	NA
2019/11/22 13:11:00	AWS3	8.45	31	10.91	41	0.5	87	-1.3	NA	NA	987.4	NA	NA		M	NA	NA	NA	NA
2019/11/22 13:12:00	AWS3	8.58	34	10.91	41	0.5	87	-1.3	NA	NA	987.2	NA	NA		M	NA	NA	NA	NA
2019/11/22 13:13:00	AWS3	9.09	35	10.44	43	0.6	87	-1.3	NA	NA	987.2	NA	NA		M	NA	NA	NA	NA
2019/11/22 13:14:00	AWS3	8.77	29	10.44	43	0.6	87	-1.3	NA	NA	987.4	NA	NA		M	NA	NA	NA	NA
2019/11/22 13:15:00	AWS3	8.07	26	10.44	43	0.6	87	-1.3	NA	NA	987.4	NA	NA		M	NA	NA	NA	NA
2019/11/22 13:16:00	AWS3	8.54	29	10.44	43	0.6	87	-1.3	NA	NA	987.3	NA	NA		M	NA	NA	NA	NA
2019/11/22 13:17:00	AWS3	9.17	30	11.78	32	0.6	87	-1.4	NA	NA	987.3	NA	NA		M	NA	NA	NA	NA
2019/11/22 13:18:00	AWS3	8.45	27	11.78	32	0.6	87	-1.4	NA	NA	987.5	NA	NA		M	NA	NA	NA	NA
2019/11/22 13:19:00	AWS3	7.23	27	11.78	32	0.5	87	-1.4	NA	NA	987.6	NA	NA		M	NA	NA	NA	NA
2019/11/22 13:20:00	AWS3	7.04	31	11.78	32	0.5	87	-1.4	NA	NA	987.5	NA	NA		M	NA	NA	NA	NA
2019/11/22 13:21:00	AWS3	8.22	32	11.78	32	0.5	87	-1.3	NA	NA	987.4	NA	NA		M	NA	NA	NA	NA
2019/11/22 13:22:00	AWS3	9.41	31	11.78	32	0.5	88	-1.3	NA	NA	987.3	NA	NA		M	NA	NA	NA	NA
2019/11/22 13:23:00	AWS3	9.28	31	11.78	32	0.5	88	-1.3	NA	NA	987.3	NA	NA		M	NA	NA	NA	NA
2019/11/22 13:24:00	AWS3	8.16	32	11.78	32	0.4	89	-1.2	NA	NA	987.5	NA	NA		M	NA	NA	NA	NA
2019/11/22 13:25:00	AWS3	8.34	31	11.78	32	0.4	89	-1.2	NA	NA	987.3	NA	NA		M	NA	NA	NA	NA
2019/11/22 13:26:00	AWS3	8.70	28	11.78	32	0.4	89	-1.2	NA	NA	987.4	NA	NA		M	NA	NA	NA	NA
2019/11/22 13:27:00	AWS3	8.64	26	11.16	30	0.3	90	-1.2	NA	NA	987.4	NA	NA		M	NA	NA	NA	NA
2019/11/22 13:28:00	AWS3	8.51	31	11.16	30	0.3	90	-1.2	NA	NA	987.4	NA	NA		M	NA	NA	NA	NA
2019/11/22 13:29:00	AWS3	7.85	35	11.16	30	0.2	90	-1.1	NA	NA	987.4	NA	NA		M	NA	NA	NA	NA
2019/11/22 13:30:00	AWS3	8.43	34	11.16	30	0.2	91	-1.1	NA	NA	987.3	NA	NA		M	NA	NA	NA	NA
2019/11/22 13:31:00	AWS3	9.43	34	11.16	30	0.2	91	-1.1	NA	NA	987.3	NA	NA		M	NA	NA	NA	NA
2019/11/22 13:32:00	AWS3	9.30	32	11.16	30	0.2	91	-1.0	NA	NA	987.4	NA	NA		M	NA	NA	NA	NA
2019/11/22 13:33:00	AWS3	8.86	29	11.16	30	0.2	92	-1.0	NA	NA	987.4	NA	NA		M	NA	NA	NA	NA
2019/11/22 13:34:00	AWS3	8.66	30	11.16	30	0.3	92	-0.9	NA	NA	987.4	NA	NA		M	NA	NA	NA	NA
2019/11/22 13:35:00	AWS3	8.33	31	11.16	30	0.3	92	-0.9	NA	NA	987.4	NA	NA		M	NA	NA	NA	NA
2019/11/22 13:36:00	AWS3	8.63	28	11.16	30	0.2	92	-0.9	NA	NA	987.4	NA	NA		M	NA	NA	NA	NA
2019/11/22 13:37:00	AWS3	8.96	28	11.01	34	0.2	92	-0.9	NA	NA	987.4	NA	NA		M	NA	NA	NA	NA
2019/11/22 13:38:00	AWS3	9.11	30	11.01	34	0.2	92	-0.9	NA	NA	987.4	NA	NA		M	NA	NA	NA	NA
2019/11/22 13:39:00	AWS3	9.03	31	11.01	45	0.2	92	-0.8	NA	NA	987.4	NA	NA		M	NA	NA	NA	NA
2019/11/22 13:40:00	AWS3	8.01	31	11.01	45	0.3	92	-0.8	NA	NA	987.7	NA	NA		M	NA	NA	NA	NA
2019/11/22 13:41:00	AWS3	8.60	30	11.57	34	0.3	93	-0.8	NA	NA	987.3	NA	NA		M	NA	NA	NA	NA
2019/11/22 13:42:00	AWS3	8.69	34	11.57	34	0.3	93	-0.7	NA	NA	987.6	NA	NA		M	NA	NA	NA	NA
2019/11/22 13:43:00	AWS3	7.90	36	11.57	34	0.3	93	-0.8	NA	NA	987.5	NA	NA		M	NA	NA	NA	NA
2019/11/22 13:44:00	AWS3	8.64	35	11.57	34	0.3	93	-0.8	NA	NA	987.4	NA	NA		M	NA	NA	NA	NA
2019/11/22 13:45:00	AWS3	9.77	36	11.57	34	0.3	93	-0.7	NA	NA	987.1	NA	NA		M	NA	NA	NA	NA
2019/11/22 13:46:00	AWS3	10.14	36	11.57	34	0.3	93	-0.7	NA	NA	987.3	NA	NA		M	NA	NA	NA	NA
2019/11/22 13:47:00	AWS3	9.18	36	11.57	34	0.3	93	-0.7	NA	NA	987.5	NA	NA		M	NA	NA	NA	NA
2019/11/22 13:48:00	AWS3	8.82	32	11.57	34	0.3	93	-0.7	NA	NA	987.4	NA	NA		M	NA	NA	NA	NA
2019/11/22 13:49:00	AWS3	8.27	29	11.57	34	0.3	93	-0.7	NA	NA	987.6	NA	NA		M	NA	NA	NA	NA
2019/11/22 13:50:00	AWS3	7.95	34	11.57	34	0.3	93	-0.7	NA	NA	987.5	NA	NA		M	NA	NA	NA	NA
2019/11/22 13:51:00	AWS3	8.42	37	11.57	34	0.3	93	-0.7	NA	NA	987.5	NA	NA		M	NA	NA	NA	NA
2019/11/22 13:52:00	AWS3	8.75	34	11.57	34	0.3	93	-0.7	NA	NA	987.4	NA	NA		M	NA	NA	NA	NA
2019/11/22 13:53:00	AWS3	9.76	34	11.78	37	0.3	93	-0.6	NA	NA	987.2	NA	NA		M	NA	NA	NA	NA
2019/11/22 13:54:00	AWS3	10.08	33	11.78	37	0.3	94	-0.6	NA	NA	987.4	NA	NA		M	NA	NA	NA	NA
2019/11/22 13:55:00	AWS3	9.76	34	11.88	44	0.4	94	-0.5	NA	NA	987.3	NA	NA		M	NA	NA	NA	NA
2019/11/22 13:56:00	AWS3	9.29	34	11.88	44	0.4	93	-0.6	NA	NA	987.5	NA	NA		M	NA	NA	NA	NA
2019/11/22 13:57:00	AWS3	8.88	33	11.88	44	0.4	93	-0.5	NA	NA	987.3	NA	NA		M	NA	NA	NA	NA
2019/11/22 13:58:00	AWS3	9.01	32	11.88	44	0.4	93	-0.6	NA	NA	987.3	NA	NA		M	NA	NA	NA	NA
2019/11/22 13:59:00	AWS3	8.98	29	11.88	44	0.4	93	-0.6	NA	NA	987.4	NA	NA		M	NA	NA	NA	NA
2019/11/22 14:00:00	AWS3	9.05	30	11.88	44	0.4	93	-0.6	NA	NA	987.4	NA	NA		M	NA	NA	NA	NA
2019/11/22 14:01:00	AWS3	8.83	33	11.88	44	0.4	93	-0.6	NA	NA	987.6	NA	NA		M	NA	NA	NA	NA
2019/11/22 14:02:00	AWS3	9.10	33	11.88	44	0.4	93	-0.6	NA	NA	987.4	NA	NA		M	NA	NA	NA	NA
2019/11/22 14:03:00	AWS3	9.66	37	11.88	44	0.4	93	-0.6	NA	NA	987.5	NA	NA		M	NA	NA	NA	NA
2019/11/22 14:04:00	AWS3	8.79	38	11.88	44	0.4	93	-0.6	NA	NA	987.7	NA	NA		M	NA	NA	NA	NA
2019/11/22 14:05:00	AWS3	8.24	35	11.01	27	0.4	93	-0.6	NA	NA	987.4	NA	NA		M	NA	NA	NA	NA
2019/11/22 14:06:00	AWS3	9.06	36	11.52	48	0.4	93	-0.6	NA	NA	987.5	NA	NA		M	NA	NA	NA	NA
2019/11/22 14:07:00	AWS3	9.17	36	11.52	48	0.4	93	-0.6	NA	NA	987.6	NA	NA		M	NA	NA	NA	NA
2019/11/22 14:08:00	AWS3	8.95	35	11.52	48	0.4	93	-0.6	NA	NA	987.4	NA	NA		M	NA	NA	NA	NA
2019/11/22 14:09:00	AWS3	9.31	33	11.52	48	0.4	93	-0.6	NA	NA	987.4	NA	NA		M	NA	NA	NA	NA
2019/11/22 14:10:00	AWS3	9.69	34	12.35	42	0.4	93	-0.5	NA	NA	987.5	NA	NA		M	NA	NA	NA	NA
2019/11/22 14:11:00	AWS3	8.65	36	12.35	42	0.5	94	-0.5	NA	NA	987.8	NA	NA		M	NA	NA	NA	NA
2019/11/22 14:12:00	AWS3	8.17	31	12.35	42	0.5	94	-0.4	NA	NA	987.6	NA	NA		M	NA	NA	NA	NA
2019/11/22 14:13:00	AWS3	9.31	28	12.35	42	0.5	94	-0.4	NA	NA	987.3	NA	NA		M	NA	NA	NA	NA
2019/11/22 14:14:00	AWS3	9.32	27	12.35	42	0.5	94	-0.4	NA	NA	987.6	NA	NA		M	NA	NA	NA	NA
2019/11/22 14:15:00	AWS3	9.29	30	12.35	42	0.5	94	-0.4	NA	NA	987.4	NA	NA		M	NA	NA	NA	NA
2019/11/22 14:16:00	AWS3	9.55	32	12.35	42	0.5	94	-0.4	NA	NA	987.5	NA	NA		M	NA	NA	NA	NA
2019/11/22 14:17:00	AWS3	9.66	30	12.35	42	0.5	94	-0.4	NA	NA	987.5	NA	NA		M	NA	NA	NA	NA
2019/11/22 14:18:00	AWS3	9.17	30	12.35	42	0.5	94	-0.4	NA	NA	987.7	NA	NA		M	NA	NA	NA	NA
2019/11/22 14:19:00	AWS3	8.45	32	12.35	42	0.5	94	-0.4	NA	NA	987.6	NA	NA		M	NA	NA	NA	NA
2019/11/22 14:20:00	AWS3	8.13	34	11.11	29	0.5	94	-0.5	NA	NA	987.7	NA	NA		M	NA	NA	NA	NA
2019/11/22 14:21:00	AWS3	8.33	35	11.11	29	0.5	93	-0.5	NA	NA	987.6	NA	NA		M	NA	NA	NA	NA
2019/11/22 14:22:00	AWS3	8.59	35	11.11	29	0.5	93	-0.5	NA	NA	987.7	NA	NA		M	NA	NA	NA	NA
2019/11/22 14:23:00	AWS3	8.32	33	11.11	29	0.5	94	-0.4	NA	NA	987.6	NA	NA		M	NA	NA	NA	NA
2019/11/22 14:24:00	AWS3	8.51	32	11.11	29	0.5	94	-0.5	NA	NA	987.6	NA	NA		M	NA	NA	NA	NA
2019/11/22 14:25:00	AWS3	9.41	33	11.68	34	0.5	94	-0.4	NA	NA	987.4	NA	NA		M	NA	NA	NA	NA
2019/11/22 14:26:00	AWS3	9.94	34	11.68	34	0.5	94	-0.4	NA	NA	987.4	NA	NA		M	NA	NA	NA	NA
2019/11/22 14:27:00	AWS3	9.40	35	11.73	36	0.5	94	-0.4	NA	NA	987.6	NA	NA		M	NA	NA	NA	NA
2019/11/22 14:28:00	AWS3	8.45	38	11.73	36	0.5	94	-0.4	NA	NA	987.7	NA	NA		M	NA	NA	NA	NA
2019/11/22 14:29:00	AWS3	8.19	34	11.73	36	0.5	94	-0.4	NA	NA	987.6	NA	NA		M	NA	NA	NA	NA
2019/11/22 14:30:00	AWS3	8.80	29	11.73	36	0.5	93	-0.4	NA	NA	987.5	NA	NA		M	NA	NA	NA	NA
2019/11/22 14:31:00	AWS3	8.86	32	11.73	36	0.5	93	-0.5	NA	NA	987.6	NA	NA		M	NA	NA	NA	NA
2019/11/22 14:32:00	AWS3	9.33	33	11.73	36	0.5	93	-0.5	NA	NA	987.4	NA	NA		M	NA	NA	NA	NA
2019/11/22 14:33:00	AWS3	8.65	35	11.73	36	0.5	93	-0.5	NA	NA	987.7	NA	NA		M	NA	NA	NA	NA
2019/11/22 14:34:00	AWS3	7.29	37	11.73	36	0.6	93	-0.4	NA	NA	987.8	NA	NA		M	NA	NA	NA	NA
2019/11/22 14:35:00	AWS3	7.31	33	11.73	36	0.6	93	-0.4	NA	NA	987.7	NA	NA		M	NA	NA	NA	NA
2019/11/22 14:36:00	AWS3	8.17	30	12.71	26	0.6	93	-0.4	NA	NA	987.5	NA	NA		M	NA	NA	NA	NA
2019/11/22 14:37:00	AWS3	8.93	30	12.71	26	0.6	93	-0.5	NA	NA	987.4	NA	NA		M	NA	NA	NA	NA
2019/11/22 14:38:00	AWS3	8.35	32	12.71	26	0.6	92	-0.5	NA	NA	987.6	NA	NA		M	NA	NA	NA	NA
2019/11/22 14:39:00	AWS3	7.83	29	12.71	26	0.6	92	-0.5	NA	NA	987.7	NA	NA		M	NA	NA	NA	NA
2019/11/22 14:40:00	AWS3	8.31	29	12.71	26	0.6	92	-0.6	NA	NA	987.6	NA	NA		M	NA	NA	NA	NA
2019/11/22 14:41:00	AWS3	8.93	32	12.71	26	0.6	92	-0.6	NA	NA	987.5	NA	NA		M	NA	NA	NA	NA
2019/11/22 14:42:00	AWS3	9.03	34	12.71	26	0.7	91	-0.6	NA	NA	987.5	NA	NA		M	NA	NA	NA	NA
2019/11/22 14:43:00	AWS3	10.10	35	12.71	26	0.7	91	-0.6	NA	NA	987.3	NA	NA		M	NA	NA	NA	NA
2019/11/22 14:44:00	AWS3	10.67	33	12.71	26	0.7	91	-0.6	NA	NA	987.3	NA	NA		M	NA	NA	NA	NA
2019/11/22 14:45:00	AWS3	9.68	35	12.71	26	0.8	90	-0.6	NA	NA	987.4	NA	NA		M	NA	NA	NA	NA
2019/11/22 14:46:00	AWS3	9.50	35	12.55	39	0.8	90	-0.7	NA	NA	987.4	NA	NA		M	NA	NA	NA	NA
2019/11/22 14:47:00	AWS3	9.50	31	12.55	39	0.8	89	-0.7	NA	NA	987.4	NA	NA		M	NA	NA	NA	NA
2019/11/22 14:48:00	AWS3	8.47	31	12.55	39	0.8	89	-0.8	NA	NA	987.6	NA	NA		M	NA	NA	NA	NA
2019/11/22 14:49:00	AWS3	8.17	32	12.55	39	0.8	88	-0.9	NA	NA	987.6	NA	NA		M	NA	NA	NA	NA
2019/11/22 14:50:00	AWS3	8.64	31	12.55	39	0.8	88	-0.9	NA	NA	987.6	NA	NA		M	NA	NA	NA	NA
2019/11/22 14:51:00	AWS3	8.90	30	12.55	39	0.8	88	-1.0	NA	NA	987.5	NA	NA		M	NA	NA	NA	NA
2019/11/22 14:52:00	AWS3	10.14	30	12.76	28	0.8	88	-0.9	NA	NA	987.1	NA	NA		M	NA	NA	NA	NA
2019/11/22 14:53:00	AWS3	10.59	27	12.76	28	0.8	88	-0.9	NA	NA	987.3	NA	NA		M	NA	NA	NA	NA
2019/11/22 14:54:00	AWS3	9.75	27	12.76	28	0.9	88	-0.9	NA	NA	987.5	NA	NA		M	NA	NA	NA	NA
2019/11/22 14:55:00	AWS3	9.02	31	12.76	28	0.9	88	-0.9	NA	NA	987.5	NA	NA		M	NA	NA	NA	NA
2019/11/22 14:56:00	AWS3	8.66	34	12.76	28	0.9	88	-0.9	NA	NA	987.6	NA	NA		M	NA	NA	NA	NA
2019/11/22 14:57:00	AWS3	8.86	33	12.76	28	0.9	88	-0.9	NA	NA	987.4	NA	NA		M	NA	NA	NA	NA
2019/11/22 14:58:00	AWS3	8.40	31	12.76	28	0.9	87	-1.0	NA	NA	987.6	NA	NA		M	NA	NA	NA	NA
2019/11/22 14:59:00	AWS3	8.64	32	12.76	28	0.9	87	-1.0	NA	NA	987.4	NA	NA		M	NA	NA	NA	NA
2019/11/22 15:00:00	AWS3	8.89	33	12.76	28	0.9	87	-1.0	NA	NA	987.6	NA	NA		M	NA	NA	NA	NA
2019/11/22 15:01:00	AWS3	8.39	35	12.76	28	0.9	87	-1.1	NA	NA	987.6	NA	NA		M	NA	NA	NA	NA
2019/11/22 15:02:00	AWS3	9.16	34	11.99	1	0.8	87	-1.1	NA	NA	987.4	NA	NA		M	NA	NA	NA	NA
2019/11/22 15:03:00	AWS3	9.34	31	11.47	39	0.8	87	-1.1	NA	NA	987.6	NA	NA		M	NA	NA	NA	NA
2019/11/22 15:04:00	AWS3	8.58	29	11.47	39	0.9	87	-1.1	NA	NA	987.7	NA	NA		M	NA	NA	NA	NA
2019/11/22 15:05:00	AWS3	8.17	30	11.47	39	0.9	86	-1.2	NA	NA	987.7	NA	NA		M	NA	NA	NA	NA
2019/11/22 15:06:00	AWS3	7.82	31	11.47	39	0.9	86	-1.2	NA	NA	987.8	NA	NA		M	NA	NA	NA	NA
2019/11/22 15:07:00	AWS3	8.14	27	11.47	39	0.9	86	-1.2	NA	NA	987.5	NA	NA		M	NA	NA	NA	NA
2019/11/22 15:08:00	AWS3	9.02	29	11.47	39	0.9	86	-1.2	NA	NA	987.4	NA	NA		M	NA	NA	NA	NA
2019/11/22 15:09:00	AWS3	9.50	34	11.27	50	0.9	86	-1.2	NA	NA	987.4	NA	NA		M	NA	NA	NA	NA
2019/11/22 15:10:00	AWS3	9.64	35	11.63	34	1.0	85	-1.2	NA	NA	987.4	NA	NA		M	NA	NA	NA	NA
2019/11/22 15:11:00	AWS3	9.20	35	11.63	34	1.0	85	-1.2	NA	NA	987.6	NA	NA		M	NA	NA	NA	NA
2019/11/22 15:12:00	AWS3	8.99	34	11.63	34	1.1	85	-1.2	NA	NA	987.5	NA	NA		M	NA	NA	NA	NA
2019/11/22 15:13:00	AWS3	9.17	32	11.63	34	1.1	84	-1.3	NA	NA	987.5	NA	NA		M	NA	NA	NA	NA
2019/11/22 15:14:00	AWS3	8.68	32	11.63	34	1.1	84	-1.3	NA	NA	987.5	NA	NA		M	NA	NA	NA	NA
2019/11/22 15:15:00	AWS3	9.49	33	12.50	34	1.1	84	-1.3	NA	NA	987.3	NA	NA		M	NA	NA	NA	NA
2019/11/22 15:16:00	AWS3	10.42	33	12.50	34	1.1	84	-1.3	NA	NA	987.4	NA	NA		M	NA	NA	NA	NA
2019/11/22 15:17:00	AWS3	10.03	34	12.50	34	1.2	84	-1.2	NA	NA	987.3	NA	NA		M	NA	NA	NA	NA
2019/11/22 15:18:00	AWS3	9.76	33	12.50	34	1.2	84	-1.2	NA	NA	987.5	NA	NA		M	NA	NA	NA	NA
2019/11/22 15:19:00	AWS3	9.70	32	12.50	34	1.2	84	-1.2	NA	NA	987.5	NA	NA		M	NA	NA	NA	NA
2019/11/22 15:20:00	AWS3	9.28	31	12.50	34	1.2	84	-1.2	NA	NA	987.6	NA	NA		M	NA	NA	NA	NA
2019/11/22 15:21:00	AWS3	9.23	32	12.50	34	1.1	84	-1.3	NA	NA	987.5	NA	NA		M	NA	NA	NA	NA
2019/11/22 15:22:00	AWS3	9.88	30	12.50	34	1.1	84	-1.3	NA	NA	987.4	NA	NA		M	NA	NA	NA	NA
2019/11/22 15:23:00	AWS3	10.56	28	12.55	39	1.1	84	-1.3	NA	NA	987.4	NA	NA		M	NA	NA	NA	NA
2019/11/22 15:24:00	AWS3	11.32	32	13.84	26	1.2	84	-1.3	NA	NA	987.2	NA	NA		M	NA	NA	NA	NA
2019/11/22 15:25:00	AWS3	10.95	30	13.84	26	1.2	84	-1.2	NA	NA	987.5	NA	NA		M	NA	NA	NA	NA
2019/11/22 15:26:00	AWS3	9.74	29	13.84	26	1.3	83	-1.2	NA	NA	987.6	NA	NA		M	NA	NA	NA	NA
2019/11/22 15:27:00	AWS3	9.76	30	13.84	26	1.3	83	-1.3	NA	NA	987.6	NA	NA		M	NA	NA	NA	NA
2019/11/22 15:28:00	AWS3	10.55	29	13.84	26	1.3	83	-1.3	NA	NA	987.4	NA	NA		M	NA	NA	NA	NA
2019/11/22 15:29:00	AWS3	10.22	31	13.84	26	1.3	83	-1.3	NA	NA	987.6	NA	NA		M	NA	NA	NA	NA
2019/11/22 15:30:00	AWS3	9.85	32	13.84	26	1.3	83	-1.3	NA	NA	987.6	NA	NA		M	NA	NA	NA	NA
2019/11/22 15:31:00	AWS3	10.40	32	13.84	26	1.3	83	-1.3	NA	NA	987.5	NA	NA		M	NA	NA	NA	NA
2019/11/22 15:32:00	AWS3	10.08	33	13.84	26	1.3	83	-1.3	NA	NA	987.6	NA	NA		M	NA	NA	NA	NA
2019/11/22 15:33:00	AWS3	9.76	33	13.84	26	1.3	83	-1.2	NA	NA	987.5	NA	NA		M	NA	NA	NA	NA
2019/11/22 15:34:00	AWS3	9.86	32	13.38	42	1.3	83	-1.2	NA	NA	987.6	NA	NA		M	NA	NA	NA	NA
2019/11/22 15:35:00	AWS3	9.95	27	13.38	42	1.3	83	-1.2	NA	NA	987.5	NA	NA		M	NA	NA	NA	NA
2019/11/22 15:36:00	AWS3	10.54	26	13.38	42	1.4	83	-1.1	NA	NA	987.5	NA	NA		M	NA	NA	NA	NA
2019/11/22 15:37:00	AWS3	10.31	28	13.38	42	1.4	83	-1.1	NA	NA	987.6	NA	NA		M	NA	NA	NA	NA
2019/11/22 15:38:00	AWS3	10.14	31	13.38	42	1.4	83	-1.1	NA	NA	987.5	NA	NA		M	NA	NA	NA	NA
2019/11/22 15:39:00	AWS3	9.80	32	13.38	42	1.5	83	-1.2	NA	NA	987.6	NA	NA		M	NA	NA	NA	NA
2019/11/22 15:40:00	AWS3	9.13	32	13.38	42	1.5	83	-1.2	NA	NA	987.7	NA	NA		M	NA	NA	NA	NA
2019/11/22 15:41:00	AWS3	8.73	31	12.40	53	1.5	83	-1.2	NA	NA	987.8	NA	NA		M	NA	NA	NA	NA
2019/11/22 15:42:00	AWS3	9.41	26	12.40	53	1.4	83	-1.2	NA	NA	987.5	NA	NA		M	NA	NA	NA	NA
2019/11/22 15:43:00	AWS3	9.60	28	12.40	53	1.4	83	-1.2	NA	NA	987.7	NA	NA		M	NA	NA	NA	NA
2019/11/22 15:44:00	AWS3	8.43	30	12.40	53	1.4	83	-1.1	NA	NA	987.8	NA	NA		M	NA	NA	NA	NA
2019/11/22 15:45:00	AWS3	8.91	27	12.14	28	1.3	84	-1.1	NA	NA	987.7	NA	NA		M	NA	NA	NA	NA
2019/11/22 15:46:00	AWS3	9.88	26	12.55	35	1.4	84	-1.1	NA	NA	987.7	NA	NA		M	NA	NA	NA	NA
2019/11/22 15:47:00	AWS3	10.19	26	12.55	35	1.4	84	-1.0	NA	NA	987.5	NA	NA		M	NA	NA	NA	NA
2019/11/22 15:48:00	AWS3	9.94	24	12.55	35	1.4	84	-1.1	NA	NA	987.6	NA	NA		M	NA	NA	NA	NA
2019/11/22 15:49:00	AWS3	10.08	26	13.74	34	1.4	84	-1.1	NA	NA	987.6	NA	NA		M	NA	NA	NA	NA
2019/11/22 15:50:00	AWS3	11.23	27	13.74	34	1.4	84	-1.1	NA	NA	987.4	NA	NA		M	NA	NA	NA	NA
2019/11/22 15:51:00	AWS3	10.84	28	13.74	34	1.4	83	-1.1	NA	NA	987.7	NA	NA		M	NA	NA	NA	NA
2019/11/22 15:52:00	AWS3	10.69	27	13.74	34	1.4	83	-1.2	NA	NA	987.5	NA	NA		M	NA	NA	NA	NA
2019/11/22 15:53:00	AWS3	10.80	26	13.74	34	1.3	83	-1.2	NA	NA	987.8	NA	NA		M	NA	NA	NA	NA
2019/11/22 15:54:00	AWS3	10.53	25	13.74	34	1.3	83	-1.2	NA	NA	987.6	NA	NA		M	NA	NA	NA	NA
2019/11/22 15:55:00	AWS3	10.29	25	13.74	34	1.3	83	-1.3	NA	NA	987.8	NA	NA		M	NA	NA	NA	NA
2019/11/22 15:56:00	AWS3	10.52	26	13.74	34	1.4	82	-1.3	NA	NA	987.5	NA	NA		M	NA	NA	NA	NA
2019/11/22 15:57:00	AWS3	11.30	25	13.74	34	1.4	82	-1.3	NA	NA	987.5	NA	NA		M	NA	NA	NA	NA
2019/11/22 15:58:00	AWS3	11.17	26	13.74	34	1.4	82	-1.3	NA	NA	987.5	NA	NA		M	NA	NA	NA	NA
2019/11/22 15:59:00	AWS3	10.84	27	13.74	34	1.4	82	-1.4	NA	NA	987.5	NA	NA		M	NA	NA	NA	NA
2019/11/22 16:00:00	AWS3	11.36	24	14.71	26	1.5	81	-1.4	NA	NA	987.3	NA	NA		M	NA	NA	NA	NA
2019/11/22 16:01:00	AWS3	11.41	26	14.71	26	1.5	81	-1.5	NA	NA	987.5	NA	NA		M	NA	NA	NA	NA
2019/11/22 16:02:00	AWS3	11.28	33	14.71	26	1.5	81	-1.5	NA	NA	987.4	NA	NA		M	NA	NA	NA	NA
2019/11/22 16:03:00	AWS3	11.29	31	14.71	26	1.5	81	-1.5	NA	NA	987.4	NA	NA		M	NA	NA	NA	NA
2019/11/22 16:04:00	AWS3	10.78	27	14.71	26	1.5	81	-1.5	NA	NA	987.6	NA	NA		M	NA	NA	NA	NA
2019/11/22 16:05:00	AWS3	11.82	26	14.71	26	1.5	81	-1.5	NA	NA	987.4	NA	NA		M	NA	NA	NA	NA
2019/11/22 16:06:00	AWS3	12.87	26	15.48	40	1.5	81	-1.4	NA	NA	987.4	NA	NA		M	NA	NA	NA	NA
2019/11/22 16:07:00	AWS3	11.64	27	15.48	40	1.5	81	-1.4	NA	NA	987.6	NA	NA		M	NA	NA	NA	NA
2019/11/22 16:08:00	AWS3	10.76	28	15.48	40	1.5	81	-1.4	NA	NA	987.5	NA	NA		M	NA	NA	NA	NA
2019/11/22 16:09:00	AWS3	10.56	29	15.48	40	1.5	81	-1.4	NA	NA	987.8	NA	NA		M	NA	NA	NA	NA
2019/11/22 16:10:00	AWS3	11.11	26	15.48	40	1.5	81	-1.4	NA	NA	987.3	NA	NA		M	NA	NA	NA	NA
2019/11/22 16:11:00	AWS3	12.02	24	15.48	40	1.5	81	-1.4	NA	NA	987.5	NA	NA		M	NA	NA	NA	NA
2019/11/22 16:12:00	AWS3	12.03	24	15.48	40	1.5	81	-1.5	NA	NA	987.4	NA	NA		M	NA	NA	NA	NA
2019/11/22 16:13:00	AWS3	12.04	24	15.48	40	1.5	81	-1.5	NA	NA	987.6	NA	NA		M	NA	NA	NA	NA
2019/11/22 16:14:00	AWS3	11.21	28	15.48	40	1.5	81	-1.5	NA	NA	987.7	NA	NA		M	NA	NA	NA	NA
2019/11/22 16:15:00	AWS3	11.41	35	15.48	40	1.5	81	-1.5	NA	NA	987.5	NA	NA		M	NA	NA	NA	NA
2019/11/22 16:16:00	AWS3	11.41	33	15.48	40	1.5	81	-1.4	NA	NA	987.7	NA	NA		M	NA	NA	NA	NA
2019/11/22 16:17:00	AWS3	11.10	31	15.07	28	1.5	81	-1.4	NA	NA	987.5	NA	NA		M	NA	NA	NA	NA
2019/11/22 16:18:00	AWS3	11.41	32	15.07	28	1.5	81	-1.4	NA	NA	987.5	NA	NA		M	NA	NA	NA	NA
2019/11/22 16:19:00	AWS3	11.56	31	15.07	28	1.5	81	-1.4	NA	NA	987.6	NA	NA		M	NA	NA	NA	NA
2019/11/22 16:20:00	AWS3	12.30	30	15.07	28	1.6	81	-1.4	NA	NA	987.4	NA	NA		M	NA	NA	NA	NA
2019/11/22 16:21:00	AWS3	12.16	29	14.76	36	1.6	81	-1.4	NA	NA	987.6	NA	NA		M	NA	NA	NA	NA
2019/11/22 16:22:00	AWS3	11.49	29	14.76	36	1.5	81	-1.4	NA	NA	987.6	NA	NA		M	NA	NA	NA	NA
2019/11/22 16:23:00	AWS3	11.94	28	14.76	36	1.5	81	-1.4	NA	NA	987.5	NA	NA		M	NA	NA	NA	NA
2019/11/22 16:24:00	AWS3	11.77	32	14.76	36	1.6	81	-1.3	NA	NA	987.7	NA	NA		M	NA	NA	NA	NA
2019/11/22 16:25:00	AWS3	11.17	33	14.76	36	1.6	81	-1.3	NA	NA	987.8	NA	NA		M	NA	NA	NA	NA
2019/11/22 16:26:00	AWS3	11.34	29	14.76	36	1.6	81	-1.3	NA	NA	987.8	NA	NA		M	NA	NA	NA	NA
2019/11/22 16:27:00	AWS3	12.07	26	14.66	20	1.5	81	-1.4	NA	NA	987.5	NA	NA		M	NA	NA	NA	NA
2019/11/22 16:28:00	AWS3	12.57	26	14.76	34	1.5	81	-1.3	NA	NA	987.4	NA	NA		M	NA	NA	NA	NA
2019/11/22 16:29:00	AWS3	12.01	25	14.76	34	1.5	81	-1.4	NA	NA	987.7	NA	NA		M	NA	NA	NA	NA
2019/11/22 16:30:00	AWS3	11.82	26	14.76	34	1.4	81	-1.4	NA	NA	987.6	NA	NA		M	NA	NA	NA	NA
2019/11/22 16:31:00	AWS3	11.95	30	14.76	34	1.4	82	-1.4	NA	NA	987.6	NA	NA		M	NA	NA	NA	NA
2019/11/22 16:32:00	AWS3	11.80	33	14.76	34	1.4	82	-1.4	NA	NA	987.7	NA	NA		M	NA	NA	NA	NA
2019/11/22 16:33:00	AWS3	12.10	35	14.76	34	1.5	82	-1.4	NA	NA	987.5	NA	NA		M	NA	NA	NA	NA
2019/11/22 16:34:00	AWS3	12.00	30	14.76	34	1.5	82	-1.3	NA	NA	987.7	NA	NA		M	NA	NA	NA	NA
2019/11/22 16:35:00	AWS3	11.20	29	14.76	34	1.5	81	-1.3	NA	NA	987.8	NA	NA		M	NA	NA	NA	NA
2019/11/22 16:36:00	AWS3	11.16	35	14.76	34	1.6	81	-1.3	NA	NA	987.8	NA	NA		M	NA	NA	NA	NA
2019/11/22 16:37:00	AWS3	10.82	34	14.76	34	1.6	81	-1.3	NA	NA	988.0	NA	NA		M	NA	NA	NA	NA
2019/11/22 16:38:00	AWS3	10.12	29	14.66	43	1.6	81	-1.3	NA	NA	987.8	NA	NA		M	NA	NA	NA	NA
2019/11/22 16:39:00	AWS3	10.97	30	14.66	43	1.6	81	-1.3	NA	NA	987.6	NA	NA		M	NA	NA	NA	NA
2019/11/22 16:40:00	AWS3	12.14	29	14.66	43	1.6	81	-1.3	NA	NA	987.7	NA	NA		M	NA	NA	NA	NA
2019/11/22 16:41:00	AWS3	11.40	29	14.15	31	1.6	81	-1.3	NA	NA	987.9	NA	NA		M	NA	NA	NA	NA
2019/11/22 16:42:00	AWS3	11.39	30	15.95	36	1.5	81	-1.3	NA	NA	987.7	NA	NA		M	NA	NA	NA	NA
2019/11/22 16:43:00	AWS3	12.23	30	15.95	36	1.5	81	-1.3	NA	NA	987.7	NA	NA		M	NA	NA	NA	NA
2019/11/22 16:44:00	AWS3	11.85	27	15.95	36	1.5	81	-1.3	NA	NA	987.9	NA	NA		M	NA	NA	NA	NA
2019/11/22 16:45:00	AWS3	12.56	26	16.67	26	1.5	82	-1.3	NA	NA	987.6	NA	NA		M	NA	NA	NA	NA
2019/11/22 16:46:00	AWS3	12.81	22	16.67	26	1.5	82	-1.2	NA	NA	987.7	NA	NA		M	NA	NA	NA	NA
2019/11/22 16:47:00	AWS3	12.17	20	16.67	26	1.4	83	-1.2	NA	NA	987.8	NA	NA		M	NA	NA	NA	NA
2019/11/22 16:48:00	AWS3	11.89	26	16.67	26	1.4	83	-1.2	NA	NA	987.8	NA	NA		M	NA	NA	NA	NA
2019/11/22 16:49:00	AWS3	11.87	32	16.67	26	1.3	84	-1.1	NA	NA	987.7	NA	NA		M	NA	NA	NA	NA
2019/11/22 16:50:00	AWS3	12.13	31	16.67	26	1.3	84	-1.1	NA	NA	987.7	NA	NA		M	NA	NA	NA	NA
2019/11/22 16:51:00	AWS3	12.32	30	16.67	26	1.3	84	-1.1	NA	NA	987.8	NA	NA		M	NA	NA	NA	NA
2019/11/22 16:52:00	AWS3	12.69	32	16.67	26	1.3	84	-1.0	NA	NA	987.7	NA	NA		M	NA	NA	NA	NA
2019/11/22 16:53:00	AWS3	12.40	32	16.67	26	1.4	84	-1.0	NA	NA	987.7	NA	NA		M	NA	NA	NA	NA
2019/11/22 16:54:00	AWS3	11.74	28	16.67	26	1.4	84	-1.1	NA	NA	987.9	NA	NA		M	NA	NA	NA	NA
2019/11/22 16:55:00	AWS3	11.51	26	15.48	31	1.4	83	-1.1	NA	NA	987.8	NA	NA		M	NA	NA	NA	NA
2019/11/22 16:56:00	AWS3	11.31	29	15.48	31	1.4	83	-1.1	NA	NA	987.9	NA	NA		M	NA	NA	NA	NA
2019/11/22 16:57:00	AWS3	11.28	35	15.48	31	1.4	83	-1.1	NA	NA	987.9	NA	NA		M	NA	NA	NA	NA
2019/11/22 16:58:00	AWS3	11.47	32	16.00	24	1.4	83	-1.1	NA	NA	987.9	NA	NA		M	NA	NA	NA	NA
2019/11/22 16:59:00	AWS3	11.89	28	16.00	24	1.4	83	-1.1	NA	NA	987.7	NA	NA		M	NA	NA	NA	NA
2019/11/22 17:00:00	AWS3	11.46	27	16.00	24	1.5	83	-1.1	NA	NA	988.0	NA	NA		M	NA	NA	NA	NA
2019/11/22 17:01:00	AWS3	10.87	29	16.00	24	1.5	82	-1.2	NA	NA	988.1	NA	NA		M	NA	NA	NA	NA
2019/11/22 17:02:00	AWS3	11.05	30	16.00	24	1.5	82	-1.2	NA	NA	988.0	NA	NA		M	NA	NA	NA	NA
2019/11/22 17:03:00	AWS3	10.99	31	16.00	24	1.5	82	-1.2	NA	NA	988.0	NA	NA		M	NA	NA	NA	NA
2019/11/22 17:04:00	AWS3	12.06	33	16.00	24	1.5	82	-1.3	NA	NA	987.8	NA	NA		M	NA	NA	NA	NA
2019/11/22 17:05:00	AWS3	12.42	32	16.00	24	1.5	82	-1.3	NA	NA	987.9	NA	NA		M	NA	NA	NA	NA
2019/11/22 17:06:00	AWS3	11.02	34	16.00	24	1.4	82	-1.3	NA	NA	987.9	NA	NA		M	NA	NA	NA	NA
2019/11/22 17:07:00	AWS3	11.56	32	16.00	24	1.4	82	-1.3	NA	NA	987.8	NA	NA		M	NA	NA	NA	NA
2019/11/22 17:08:00	AWS3	12.76	29	15.64	31	1.5	82	-1.2	NA	NA	987.7	NA	NA		M	NA	NA	NA	NA
2019/11/22 17:09:00	AWS3	11.31	31	15.64	31	1.5	82	-1.2	NA	NA	988.2	NA	NA		M	NA	NA	NA	NA
2019/11/22 17:10:00	AWS3	11.47	31	15.64	31	1.5	82	-1.2	NA	NA	987.7	NA	NA		M	NA	NA	NA	NA
2019/11/22 17:11:00	AWS3	12.70	30	15.64	31	1.5	82	-1.2	NA	NA	987.9	NA	NA		M	NA	NA	NA	NA
2019/11/22 17:12:00	AWS3	12.09	29	15.64	31	1.5	82	-1.3	NA	NA	988.0	NA	NA		M	NA	NA	NA	NA
2019/11/22 17:13:00	AWS3	12.26	26	15.64	31	1.4	82	-1.3	NA	NA	987.8	NA	NA		M	NA	NA	NA	NA
2019/11/22 17:14:00	AWS3	12.37	24	15.64	31	1.4	83	-1.2	NA	NA	987.9	NA	NA		M	NA	NA	NA	NA
2019/11/22 17:15:00	AWS3	12.33	27	15.64	31	1.4	83	-1.2	NA	NA	987.8	NA	NA		M	NA	NA	NA	NA
2019/11/22 17:16:00	AWS3	13.03	31	16.41	38	1.4	83	-1.2	NA	NA	987.7	NA	NA		M	NA	NA	NA	NA
2019/11/22 17:17:00	AWS3	12.46	32	16.41	38	1.3	83	-1.2	NA	NA	988.0	NA	NA		M	NA	NA	NA	NA
2019/11/22 17:18:00	AWS3	11.49	31	16.41	38	1.3	83	-1.2	NA	NA	988.2	NA	NA		M	NA	NA	NA	NA
2019/11/22 17:19:00	AWS3	11.41	30	16.41	38	1.4	83	-1.2	NA	NA	988.2	NA	NA		M	NA	NA	NA	NA
2019/11/22 17:20:00	AWS3	11.50	31	16.41	38	1.4	83	-1.1	NA	NA	988.1	NA	NA		M	NA	NA	NA	NA
2019/11/22 17:21:00	AWS3	12.08	28	16.41	38	1.4	83	-1.1	NA	NA	987.9	NA	NA		M	NA	NA	NA	NA
2019/11/22 17:22:00	AWS3	11.33	28	16.41	38	1.4	83	-1.1	NA	NA	988.3	NA	NA		M	NA	NA	NA	NA
2019/11/22 17:23:00	AWS3	10.19	30	16.41	38	1.4	83	-1.1	NA	NA	988.2	NA	NA		M	NA	NA	NA	NA
2019/11/22 17:24:00	AWS3	10.95	28	16.41	38	1.4	83	-1.1	NA	NA	988.0	NA	NA		M	NA	NA	NA	NA
2019/11/22 17:25:00	AWS3	11.87	31	16.41	38	1.4	83	-1.1	NA	NA	988.0	NA	NA		M	NA	NA	NA	NA
2019/11/22 17:26:00	AWS3	12.81	33	16.57	31	1.5	83	-1.1	NA	NA	987.9	NA	NA		M	NA	NA	NA	NA
2019/11/22 17:27:00	AWS3	13.23	31	16.57	31	1.5	83	-1.1	NA	NA	988.0	NA	NA		M	NA	NA	NA	NA
2019/11/22 17:28:00	AWS3	12.49	28	16.57	31	1.5	83	-1.1	NA	NA	988.1	NA	NA		M	NA	NA	NA	NA
2019/11/22 17:29:00	AWS3	10.37	29	16.57	31	1.5	83	-1.1	NA	NA	988.6	NA	NA		M	NA	NA	NA	NA
2019/11/22 17:30:00	AWS3	10.13	31	16.57	31	1.4	83	-1.1	NA	NA	988.2	NA	NA		M	NA	NA	NA	NA
2019/11/22 17:31:00	AWS3	12.65	32	16.77	35	1.4	83	-1.1	NA	NA	987.9	NA	NA		M	NA	NA	NA	NA
2019/11/22 17:32:00	AWS3	13.19	33	16.77	35	1.4	83	-1.1	NA	NA	988.0	NA	NA		M	NA	NA	NA	NA
2019/11/22 17:33:00	AWS3	12.49	31	16.77	35	1.4	83	-1.1	NA	NA	988.1	NA	NA		M	NA	NA	NA	NA
2019/11/22 17:34:00	AWS3	12.88	29	16.77	35	1.5	83	-1.1	NA	NA	988.0	NA	NA		M	NA	NA	NA	NA
2019/11/22 17:35:00	AWS3	13.32	30	16.77	35	1.5	83	-1.1	NA	NA	988.1	NA	NA		M	NA	NA	NA	NA
2019/11/22 17:36:00	AWS3	12.37	30	16.77	35	1.5	83	-1.1	NA	NA	988.3	NA	NA		M	NA	NA	NA	NA
2019/11/22 17:37:00	AWS3	11.92	31	16.77	35	1.4	83	-1.1	NA	NA	988.2	NA	NA		M	NA	NA	NA	NA
2019/11/22 17:38:00	AWS3	12.58	31	16.77	35	1.4	83	-1.1	NA	NA	988.1	NA	NA		M	NA	NA	NA	NA
2019/11/22 17:39:00	AWS3	11.81	28	16.77	35	1.4	84	-1.1	NA	NA	988.4	NA	NA		M	NA	NA	NA	NA
2019/11/22 17:40:00	AWS3	11.66	30	16.77	35	1.3	84	-1.1	NA	NA	988.2	NA	NA		M	NA	NA	NA	NA
2019/11/22 17:41:00	AWS3	11.83	30	16.77	35	1.3	84	-1.1	NA	NA	988.4	NA	NA		M	NA	NA	NA	NA
2019/11/22 17:42:00	AWS3	10.72	29	16.10	27	1.3	84	-1.1	NA	NA	988.6	NA	NA		M	NA	NA	NA	NA
2019/11/22 17:43:00	AWS3	10.72	29	16.10	27	1.3	84	-1.1	NA	NA	988.5	NA	NA		M	NA	NA	NA	NA
2019/11/22 17:44:00	AWS3	11.07	30	15.48	31	1.2	85	-1.1	NA	NA	988.4	NA	NA		M	NA	NA	NA	NA
2019/11/22 17:45:00	AWS3	11.57	32	14.97	31	1.2	85	-1.1	NA	NA	988.3	NA	NA		M	NA	NA	NA	NA
2019/11/22 17:46:00	AWS3	11.47	31	14.97	31	1.2	85	-1.1	NA	NA	988.5	NA	NA		M	NA	NA	NA	NA
2019/11/22 17:47:00	AWS3	12.17	33	15.64	27	1.3	85	-1.0	NA	NA	988.0	NA	NA		M	NA	NA	NA	NA
2019/11/22 17:48:00	AWS3	12.26	33	15.64	27	1.3	85	-1.0	NA	NA	988.5	NA	NA		M	NA	NA	NA	NA
2019/11/22 17:49:01	AWS3	11.21	30	15.64	27	1.3	84	-1.0	NA	NA	988.4	NA	NA		M	NA	NA	NA	NA
2019/11/22 17:50:00	AWS3	12.25	31	15.64	27	1.3	84	-1.0	NA	NA	988.1	NA	NA		M	NA	NA	NA	NA
2019/11/22 17:51:00	AWS3	12.61	31	15.64	27	1.4	84	-1.0	NA	NA	988.4	NA	NA		M	NA	NA	NA	NA
2019/11/22 17:52:00	AWS3	11.64	30	15.64	27	1.4	84	-1.1	NA	NA	988.6	NA	NA		M	NA	NA	NA	NA
2019/11/22 17:53:00	AWS3	11.60	29	15.64	27	1.4	84	-1.1	NA	NA	988.5	NA	NA		M	NA	NA	NA	NA
2019/11/22 17:54:00	AWS3	12.76	30	15.90	25	1.4	84	-1.1	NA	NA	988.2	NA	NA		M	NA	NA	NA	NA
2019/11/22 17:55:00	AWS3	13.41	29	15.90	25	1.4	83	-1.1	NA	NA	988.2	NA	NA		M	NA	NA	NA	NA
2019/11/22 17:56:00	AWS3	13.43	27	15.90	25	1.4	83	-1.1	NA	NA	988.2	NA	NA		M	NA	NA	NA	NA
2019/11/22 17:57:00	AWS3	13.73	27	16.10	18	1.4	83	-1.1	NA	NA	988.0	NA	NA		M	NA	NA	NA	NA
2019/11/22 17:58:00	AWS3	13.56	27	17.80	17	1.4	83	-1.1	NA	NA	988.3	NA	NA		M	NA	NA	NA	NA
2019/11/22 17:59:00	AWS3	12.92	28	17.80	17	1.3	83	-1.2	NA	NA	988.4	NA	NA		M	NA	NA	NA	NA
2019/11/22 18:00:00	AWS3	12.07	30	17.80	17	1.3	84	-1.2	NA	NA	988.6	NA	NA		M	NA	NA	NA	NA
2019/11/22 18:01:00	AWS3	11.34	31	17.80	17	1.3	84	-1.1	NA	NA	988.5	NA	NA		M	NA	NA	NA	NA
2019/11/22 18:02:00	AWS3	11.04	31	17.80	17	1.3	84	-1.1	NA	NA	988.6	NA	NA		M	NA	NA	NA	NA
2019/11/22 18:03:00	AWS3	11.12	30	17.80	17	1.3	84	-1.1	NA	NA	988.5	NA	NA		M	NA	NA	NA	NA
2019/11/22 18:04:00	AWS3	12.08	32	17.80	17	1.3	84	-1.0	NA	NA	988.3	NA	NA		M	NA	NA	NA	NA
2019/11/22 18:05:00	AWS3	12.99	31	17.80	17	1.4	84	-1.0	NA	NA	988.4	NA	NA		M	NA	NA	NA	NA
2019/11/22 18:06:00	AWS3	12.33	28	17.80	17	1.4	84	-1.0	NA	NA	988.6	NA	NA		M	NA	NA	NA	NA
2019/11/22 18:07:00	AWS3	11.90	29	17.80	17	1.4	84	-1.0	NA	NA	988.4	NA	NA		M	NA	NA	NA	NA
2019/11/22 18:08:00	AWS3	12.97	30	17.80	17	1.4	84	-1.0	NA	NA	988.1	NA	NA		M	NA	NA	NA	NA
2019/11/22 18:09:00	AWS3	13.26	29	16.20	38	1.4	84	-1.0	NA	NA	988.4	NA	NA		M	NA	NA	NA	NA
2019/11/22 18:10:00	AWS3	12.77	28	16.20	38	1.4	84	-1.0	NA	NA	988.5	NA	NA		M	NA	NA	NA	NA
2019/11/22 18:11:00	AWS3	12.36	27	16.20	38	1.4	84	-1.0	NA	NA	988.7	NA	NA		M	NA	NA	NA	NA
2019/11/22 18:12:00	AWS3	11.98	26	16.20	38	1.4	84	-1.0	NA	NA	988.7	NA	NA		M	NA	NA	NA	NA
2019/11/22 18:13:00	AWS3	12.24	26	16.20	38	1.3	84	-1.0	NA	NA	988.7	NA	NA		M	NA	NA	NA	NA
2019/11/22 18:14:00	AWS3	12.30	24	16.20	38	1.3	85	-1.0	NA	NA	988.6	NA	NA		M	NA	NA	NA	NA
2019/11/22 18:15:00	AWS3	12.28	27	16.20	38	1.3	85	-1.0	NA	NA	988.4	NA	NA		M	NA	NA	NA	NA
2019/11/22 18:16:00	AWS3	12.84	37	16.20	38	1.3	85	-0.9	NA	NA	988.4	NA	NA		M	NA	NA	NA	NA
2019/11/22 18:17:00	AWS3	12.47	36	16.20	38	1.3	85	-0.9	NA	NA	988.5	NA	NA		M	NA	NA	NA	NA
2019/11/22 18:18:00	AWS3	13.30	33	18.67	34	1.4	84	-1.0	NA	NA	988.0	NA	NA		M	NA	NA	NA	NA
2019/11/22 18:19:00	AWS3	14.75	33	18.67	34	1.4	84	-1.0	NA	NA	988.1	NA	NA		M	NA	NA	NA	NA
2019/11/22 18:20:00	AWS3	14.27	31	18.67	34	1.5	84	-1.0	NA	NA	988.4	NA	NA		M	NA	NA	NA	NA
2019/11/22 18:21:00	AWS3	13.24	28	18.67	34	1.4	83	-1.1	NA	NA	988.7	NA	NA		M	NA	NA	NA	NA
2019/11/22 18:22:00	AWS3	10.09	15	18.67	34	1.4	83	-1.1	NA	NA	989.3	NA	NA		M	NA	NA	NA	NA
2019/11/22 18:23:00	AWS3	7.54	12	18.67	34	1.4	83	-1.1	NA	NA	989.3	NA	NA		M	NA	NA	NA	NA
2019/11/22 18:24:00	AWS3	10.26	26	18.67	34	1.4	83	-1.1	NA	NA	988.4	NA	NA		M	NA	NA	NA	NA
2019/11/22 18:25:00	AWS3	13.97	35	18.67	34	1.4	83	-1.1	NA	NA	988.1	NA	NA		M	NA	NA	NA	NA
2019/11/22 18:26:00	AWS3	14.54	35	18.67	34	1.4	83	-1.1	NA	NA	988.4	NA	NA		M	NA	NA	NA	NA
2019/11/22 18:27:00	AWS3	13.64	34	18.67	34	1.5	83	-1.1	NA	NA	988.5	NA	NA		M	NA	NA	NA	NA
2019/11/22 18:28:00	AWS3	12.05	29	17.59	29	1.5	83	-1.1	NA	NA	989.0	NA	NA		M	NA	NA	NA	NA
2019/11/22 18:29:00	AWS3	10.24	23	17.59	29	1.5	83	-1.1	NA	NA	989.1	NA	NA		M	NA	NA	NA	NA
2019/11/22 18:30:00	AWS3	9.87	27	17.59	29	1.4	83	-1.1	NA	NA	989.1	NA	NA		M	NA	NA	NA	NA
2019/11/22 18:31:00	AWS3	10.70	32	17.59	29	1.4	84	-1.0	NA	NA	988.9	NA	NA		M	NA	NA	NA	NA
2019/11/22 18:32:00	AWS3	11.68	32	17.59	29	1.3	85	-1.0	NA	NA	988.7	NA	NA		M	NA	NA	NA	NA
2019/11/22 18:33:00	AWS3	11.78	31	17.59	29	1.3	85	-0.9	NA	NA	988.9	NA	NA		M	NA	NA	NA	NA
2019/11/22 18:34:00	AWS3	11.55	30	17.59	29	1.3	85	-0.9	NA	NA	988.9	NA	NA		M	NA	NA	NA	NA
2019/11/22 18:35:00	AWS3	11.23	31	17.59	29	1.4	85	-0.9	NA	NA	989.0	NA	NA		M	NA	NA	NA	NA
2019/11/22 18:36:00	AWS3	10.57	31	17.29	34	1.4	84	-1.0	NA	NA	989.0	NA	NA		M	NA	NA	NA	NA
2019/11/22 18:37:00	AWS3	10.81	30	14.04	32	1.4	84	-1.0	NA	NA	988.9	NA	NA		M	NA	NA	NA	NA
2019/11/22 18:38:00	AWS3	11.94	31	15.64	34	1.4	84	-0.9	NA	NA	988.8	NA	NA		M	NA	NA	NA	NA
2019/11/22 18:39:00	AWS3	12.14	30	15.64	34	1.4	84	-0.9	NA	NA	988.9	NA	NA		M	NA	NA	NA	NA
2019/11/22 18:40:00	AWS3	12.01	32	15.64	34	1.4	85	-0.9	NA	NA	988.8	NA	NA		M	NA	NA	NA	NA
2019/11/22 18:41:00	AWS3	11.62	33	15.64	34	1.4	85	-0.9	NA	NA	989.0	NA	NA		M	NA	NA	NA	NA
2019/11/22 18:42:00	AWS3	11.23	30	15.64	34	1.3	85	-0.9	NA	NA	989.0	NA	NA		M	NA	NA	NA	NA
2019/11/22 18:43:00	AWS3	11.38	27	15.64	34	1.3	86	-0.8	NA	NA	989.1	NA	NA		M	NA	NA	NA	NA
2019/11/22 18:44:01	AWS3	12.27	26	15.64	34	1.3	86	-0.9	NA	NA	988.8	NA	NA		M	NA	NA	NA	NA
2019/11/22 18:45:00	AWS3	12.42	26	15.64	34	1.3	85	-0.9	NA	NA	989.0	NA	NA		M	NA	NA	NA	NA
2019/11/22 18:46:00	AWS3	11.56	29	15.64	34	1.3	85	-1.0	NA	NA	989.0	NA	NA		M	NA	NA	NA	NA
2019/11/22 18:47:00	AWS3	12.53	30	15.64	34	1.3	84	-1.0	NA	NA	988.8	NA	NA		M	NA	NA	NA	NA
2019/11/22 18:48:00	AWS3	12.72	29	15.28	36	1.4	84	-1.1	NA	NA	989.1	NA	NA		M	NA	NA	NA	NA
2019/11/22 18:49:00	AWS3	12.43	29	15.28	36	1.4	83	-1.2	NA	NA	988.8	NA	NA		M	NA	NA	NA	NA
2019/11/22 18:50:00	AWS3	12.72	27	15.28	36	1.3	83	-1.2	NA	NA	989.0	NA	NA		M	NA	NA	NA	NA
2019/11/22 18:51:00	AWS3	12.04	26	15.28	36	1.3	83	-1.2	NA	NA	989.2	NA	NA		M	NA	NA	NA	NA
2019/11/22 18:52:00	AWS3	11.77	25	15.28	36	1.2	83	-1.3	NA	NA	988.9	NA	NA		M	NA	NA	NA	NA
2019/11/22 18:53:00	AWS3	11.37	26	15.28	36	1.2	84	-1.3	NA	NA	989.3	NA	NA		M	NA	NA	NA	NA
2019/11/22 18:54:00	AWS3	10.75	30	15.28	36	1.2	84	-1.2	NA	NA	989.3	NA	NA		M	NA	NA	NA	NA
2019/11/22 18:55:00	AWS3	11.23	29	15.28	36	1.2	84	-1.2	NA	NA	989.1	NA	NA		M	NA	NA	NA	NA
2019/11/22 18:56:00	AWS3	11.34	28	15.28	36	1.3	84	-1.2	NA	NA	989.2	NA	NA		M	NA	NA	NA	NA
2019/11/22 18:57:00	AWS3	10.70	32	14.25	28	1.3	83	-1.2	NA	NA	989.4	NA	NA		M	NA	NA	NA	NA
2019/11/22 18:58:00	AWS3	11.09	34	14.25	28	1.3	83	-1.2	NA	NA	989.1	NA	NA		M	NA	NA	NA	NA
2019/11/22 18:59:00	AWS3	11.69	32	14.25	28	1.3	83	-1.3	NA	NA	989.2	NA	NA		M	NA	NA	NA	NA
2019/11/22 19:00:00	AWS3	11.24	27	14.25	28	1.4	83	-1.3	NA	NA	989.2	NA	NA		M	NA	NA	NA	NA
2019/11/22 19:01:00	AWS3	11.36	27	14.25	28	1.4	83	-1.3	NA	NA	989.1	NA	NA		M	NA	NA	NA	NA
2019/11/22 19:02:00	AWS3	10.84	28	13.84	25	1.4	83	-1.3	NA	NA	989.5	NA	NA		M	NA	NA	NA	NA
2019/11/22 19:03:00	AWS3	10.84	27	14.10	42	1.4	83	-1.3	NA	NA	989.2	NA	NA		M	NA	NA	NA	NA
2019/11/22 19:04:00	AWS3	11.55	28	14.10	42	1.3	83	-1.3	NA	NA	989.4	NA	NA		M	NA	NA	NA	NA
2019/11/22 19:05:00	AWS3	10.71	29	14.10	42	1.4	83	-1.2	NA	NA	989.6	NA	NA		M	NA	NA	NA	NA
2019/11/22 19:06:00	AWS3	10.49	31	14.10	42	1.4	83	-1.2	NA	NA	989.5	NA	NA		M	NA	NA	NA	NA
2019/11/22 19:07:00	AWS3	10.58	33	14.10	42	1.4	83	-1.2	NA	NA	989.6	NA	NA		M	NA	NA	NA	NA
2019/11/22 19:08:00	AWS3	10.56	31	14.10	42	1.4	83	-1.2	NA	NA	989.5	NA	NA		M	NA	NA	NA	NA
2019/11/22 19:09:00	AWS3	11.03	30	14.10	42	1.4	83	-1.1	NA	NA	989.5	NA	NA		M	NA	NA	NA	NA
2019/11/22 19:10:00	AWS3	11.35	30	14.10	42	1.4	83	-1.1	NA	NA	989.5	NA	NA		M	NA	NA	NA	NA
2019/11/22 19:11:00	AWS3	10.95	27	14.10	42	1.4	84	-1.1	NA	NA	989.7	NA	NA		M	NA	NA	NA	NA
2019/11/22 19:12:00	AWS3	11.10	27	14.10	42	1.4	84	-1.1	NA	NA	989.5	NA	NA		M	NA	NA	NA	NA
2019/11/22 19:13:00	AWS3	12.01	30	14.30	32	1.3	84	-1.0	NA	NA	989.5	NA	NA		M	NA	NA	NA	NA
2019/11/22 19:14:00	AWS3	12.13	33	14.30	32	1.4	85	-1.0	NA	NA	989.5	NA	NA		M	NA	NA	NA	NA
2019/11/22 19:15:00	AWS3	11.65	32	14.30	32	1.3	85	-0.9	NA	NA	989.6	NA	NA		M	NA	NA	NA	NA
2019/11/22 19:16:00	AWS3	10.51	31	14.30	32	1.3	85	-0.9	NA	NA	989.8	NA	NA		M	NA	NA	NA	NA
2019/11/22 19:17:00	AWS3	10.20	33	14.30	32	1.3	85	-0.9	NA	NA	989.7	NA	NA		M	NA	NA	NA	NA
2019/11/22 19:18:00	AWS3	10.45	32	14.30	32	1.3	85	-0.9	NA	NA	989.8	NA	NA		M	NA	NA	NA	NA
2019/11/22 19:19:00	AWS3	10.11	32	14.30	32	1.2	86	-0.9	NA	NA	989.9	NA	NA		M	NA	NA	NA	NA
2019/11/22 19:20:00	AWS3	9.80	31	14.30	32	1.2	86	-0.9	NA	NA	989.9	NA	NA		M	NA	NA	NA	NA
2019/11/22 19:21:00	AWS3	9.95	29	14.30	32	1.2	86	-0.8	NA	NA	989.9	NA	NA		M	NA	NA	NA	NA
2019/11/22 19:22:00	AWS3	10.04	30	14.30	32	1.2	86	-0.8	NA	NA	990.0	NA	NA		M	NA	NA	NA	NA
2019/11/22 19:23:00	AWS3	9.83	27	13.68	42	1.3	86	-0.8	NA	NA	989.8	NA	NA		M	NA	NA	NA	NA
2019/11/22 19:24:00	AWS3	10.57	26	13.27	33	1.3	86	-0.8	NA	NA	989.8	NA	NA		M	NA	NA	NA	NA
2019/11/22 19:25:00	AWS3	10.90	25	13.22	33	1.2	86	-0.8	NA	NA	989.8	NA	NA		M	NA	NA	NA	NA
2019/11/22 19:26:00	AWS3	10.62	26	13.22	33	1.2	86	-0.9	NA	NA	989.8	NA	NA		M	NA	NA	NA	NA
2019/11/22 19:27:00	AWS3	10.63	30	13.22	33	1.2	86	-0.9	NA	NA	989.9	NA	NA		M	NA	NA	NA	NA
2019/11/22 19:28:00	AWS3	11.10	32	13.84	31	1.3	86	-0.8	NA	NA	989.7	NA	NA		M	NA	NA	NA	NA
2019/11/22 19:29:00	AWS3	11.16	30	13.84	31	1.3	86	-0.8	NA	NA	989.9	NA	NA		M	NA	NA	NA	NA
2019/11/22 19:30:00	AWS3	10.65	32	13.84	31	1.4	86	-0.8	NA	NA	989.9	NA	NA		M	NA	NA	NA	NA
2019/11/22 19:31:00	AWS3	10.05	34	13.84	31	1.4	85	-0.8	NA	NA	990.0	NA	NA		M	NA	NA	NA	NA
2019/11/22 19:32:00	AWS3	9.24	30	13.84	31	1.5	85	-0.8	NA	NA	990.1	NA	NA		M	NA	NA	NA	NA
2019/11/22 19:33:00	AWS3	9.26	27	13.84	31	1.5	85	-0.8	NA	NA	990.0	NA	NA		M	NA	NA	NA	NA
2019/11/22 19:34:00	AWS3	9.33	31	13.84	31	1.5	85	-0.8	NA	NA	990.2	NA	NA		M	NA	NA	NA	NA
2019/11/22 19:35:00	AWS3	9.59	33	13.84	31	1.4	85	-0.8	NA	NA	990.0	NA	NA		M	NA	NA	NA	NA
2019/11/22 19:36:00	AWS3	10.40	36	13.84	31	1.4	85	-0.8	NA	NA	990.0	NA	NA		M	NA	NA	NA	NA
2019/11/22 19:37:00	AWS3	10.24	32	13.84	31	1.4	86	-0.7	NA	NA	990.1	NA	NA		M	NA	NA	NA	NA
2019/11/22 19:38:00	AWS3	10.70	26	13.43	28	1.4	86	-0.7	NA	NA	989.9	NA	NA		M	NA	NA	NA	NA
2019/11/22 19:39:00	AWS3	10.88	25	13.43	28	1.4	86	-0.7	NA	NA	990.1	NA	NA		M	NA	NA	NA	NA
2019/11/22 19:40:00	AWS3	10.92	27	13.48	38	1.4	86	-0.7	NA	NA	990.0	NA	NA		M	NA	NA	NA	NA
2019/11/22 19:41:00	AWS3	10.93	29	13.48	38	1.3	86	-0.7	NA	NA	990.1	NA	NA		M	NA	NA	NA	NA
2019/11/22 19:42:00	AWS3	10.23	29	13.48	38	1.4	86	-0.7	NA	NA	990.1	NA	NA		M	NA	NA	NA	NA
2019/11/22 19:43:00	AWS3	10.55	33	13.48	38	1.4	86	-0.7	NA	NA	990.0	NA	NA		M	NA	NA	NA	NA
2019/11/22 19:44:00	AWS3	10.04	32	13.48	38	1.4	86	-0.7	NA	NA	990.3	NA	NA		M	NA	NA	NA	NA
2019/11/22 19:45:00	AWS3	9.15	30	13.48	38	1.4	86	-0.7	NA	NA	990.3	NA	NA		M	NA	NA	NA	NA
2019/11/22 19:46:00	AWS3	9.64	28	13.94	20	1.4	86	-0.7	NA	NA	990.2	NA	NA		M	NA	NA	NA	NA
2019/11/22 19:47:00	AWS3	10.35	29	13.94	20	1.3	87	-0.6	NA	NA	990.1	NA	NA		M	NA	NA	NA	NA
2019/11/22 19:48:00	AWS3	10.69	30	13.94	20	1.3	87	-0.7	NA	NA	990.1	NA	NA		M	NA	NA	NA	NA
2019/11/22 19:49:00	AWS3	10.58	25	13.94	20	1.2	87	-0.7	NA	NA	990.1	NA	NA		M	NA	NA	NA	NA
2019/11/22 19:50:00	AWS3	10.48	27	13.94	20	1.1	88	-0.7	NA	NA	990.1	NA	NA		M	NA	NA	NA	NA
2019/11/22 19:51:00	AWS3	11.13	28	13.94	20	1.1	88	-0.7	NA	NA	990.0	NA	NA		M	NA	NA	NA	NA
2019/11/22 19:52:00	AWS3	11.63	25	13.94	20	1.0	88	-0.7	NA	NA	990.0	NA	NA		M	NA	NA	NA	NA
2019/11/22 19:53:00	AWS3	11.12	25	13.94	20	1.0	89	-0.6	NA	NA	990.3	NA	NA		M	NA	NA	NA	NA
2019/11/22 19:54:00	AWS3	9.53	26	13.94	20	1.0	89	-0.6	NA	NA	990.4	NA	NA		M	NA	NA	NA	NA
2019/11/22 19:55:00	AWS3	8.95	26	13.94	20	1.0	88	-0.7	NA	NA	990.3	NA	NA		M	NA	NA	NA	NA
2019/11/22 19:56:00	AWS3	10.15	28	13.12	31	1.0	88	-0.7	NA	NA	990.1	NA	NA		M	NA	NA	NA	NA
2019/11/22 19:57:00	AWS3	10.28	27	13.12	31	1.1	88	-0.7	NA	NA	990.3	NA	NA		M	NA	NA	NA	NA
2019/11/22 19:58:00	AWS3	9.81	26	13.12	31	1.1	87	-0.8	NA	NA	990.2	NA	NA		M	NA	NA	NA	NA
2019/11/22 19:59:00	AWS3	10.66	26	13.12	31	1.1	87	-0.8	NA	NA	990.1	NA	NA		M	NA	NA	NA	NA
2019/11/22 20:00:00	AWS3	10.90	25	13.12	31	1.1	87	-0.8	NA	NA	990.3	NA	NA		M	NA	NA	NA	NA
2019/11/22 20:01:00	AWS3	10.60	24	13.12	31	1.1	87	-0.8	NA	NA	990.3	NA	NA		M	NA	NA	NA	NA
2019/11/22 20:02:00	AWS3	10.30	25	13.84	28	1.1	87	-0.8	NA	NA	990.3	NA	NA		M	NA	NA	NA	NA
2019/11/22 20:03:00	AWS3	10.81	26	13.84	28	1.1	87	-0.8	NA	NA	990.1	NA	NA		M	NA	NA	NA	NA
2019/11/22 20:04:01	AWS3	10.80	28	13.84	28	1.1	87	-0.8	NA	NA	990.4	NA	NA		M	NA	NA	NA	NA
2019/11/22 20:05:00	AWS3	10.06	30	13.84	28	1.1	88	-0.8	NA	NA	990.4	NA	NA		M	NA	NA	NA	NA
2019/11/22 20:06:00	AWS3	10.14	30	13.84	28	1.1	88	-0.7	NA	NA	990.4	NA	NA		M	NA	NA	NA	NA
2019/11/22 20:07:00	AWS3	9.78	23	13.84	28	1.1	88	-0.7	NA	NA	990.4	NA	NA		M	NA	NA	NA	NA
2019/11/22 20:08:00	AWS3	9.87	22	13.84	28	1.0	88	-0.7	NA	NA	990.4	NA	NA		M	NA	NA	NA	NA
2019/11/22 20:09:00	AWS3	9.94	28	13.84	28	1.0	88	-0.7	NA	NA	990.5	NA	NA		M	NA	NA	NA	NA
2019/11/22 20:10:00	AWS3	10.09	28	13.84	28	1.0	88	-0.7	NA	NA	990.4	NA	NA		M	NA	NA	NA	NA
2019/11/22 20:11:00	AWS3	10.46	28	13.84	28	1.0	88	-0.7	NA	NA	990.5	NA	NA		M	NA	NA	NA	NA
2019/11/22 20:12:00	AWS3	10.46	28	13.84	28	0.9	89	-0.8	NA	NA	990.4	NA	NA		M	NA	NA	NA	NA
2019/11/22 20:13:00	AWS3	10.50	27	12.60	28	0.9	89	-0.8	NA	NA	990.5	NA	NA		M	NA	NA	NA	NA
2019/11/22 20:14:00	AWS3	10.77	28	12.60	28	0.9	89	-0.8	NA	NA	990.4	NA	NA		M	NA	NA	NA	NA
2019/11/22 20:15:00	AWS3	11.15	29	13.48	29	0.8	89	-0.8	NA	NA	990.3	NA	NA		M	NA	NA	NA	NA
2019/11/22 20:16:00	AWS3	10.32	27	13.48	29	0.8	89	-0.8	NA	NA	990.6	NA	NA		M	NA	NA	NA	NA
2019/11/22 20:17:00	AWS3	10.12	29	13.48	29	0.8	89	-0.8	NA	NA	990.5	NA	NA		M	NA	NA	NA	NA
2019/11/22 20:18:00	AWS3	10.86	31	13.48	29	0.8	89	-0.8	NA	NA	990.5	NA	NA		M	NA	NA	NA	NA
2019/11/22 20:19:00	AWS3	10.67	31	13.48	29	0.8	89	-0.8	NA	NA	990.6	NA	NA		M	NA	NA	NA	NA
2019/11/22 20:20:00	AWS3	10.42	30	13.48	29	0.8	89	-0.8	NA	NA	990.5	NA	NA		M	NA	NA	NA	NA
2019/11/22 20:21:00	AWS3	9.91	31	13.48	29	0.8	89	-0.7	NA	NA	990.6	NA	NA		M	NA	NA	NA	NA
2019/11/22 20:22:00	AWS3	9.41	32	13.48	29	0.8	89	-0.7	NA	NA	990.6	NA	NA		M	NA	NA	NA	NA
2019/11/22 20:23:00	AWS3	10.98	29	14.20	29	0.8	90	-0.7	NA	NA	990.2	NA	NA		M	NA	NA	NA	NA
2019/11/22 20:24:00	AWS3	12.50	30	14.20	29	0.9	89	-0.7	NA	NA	990.1	NA	NA		M	NA	NA	NA	NA
2019/11/22 20:25:00	AWS3	12.19	29	14.20	29	0.9	89	-0.7	NA	NA	990.3	NA	NA		M	NA	NA	NA	NA
2019/11/22 20:26:00	AWS3	11.05	26	14.20	29	0.9	89	-0.6	NA	NA	990.6	NA	NA		M	NA	NA	NA	NA
2019/11/22 20:27:00	AWS3	10.75	26	14.20	29	1.0	89	-0.6	NA	NA	990.4	NA	NA		M	NA	NA	NA	NA
2019/11/22 20:28:00	AWS3	11.28	26	14.20	29	1.0	89	-0.6	NA	NA	990.3	NA	NA		M	NA	NA	NA	NA
2019/11/22 20:29:00	AWS3	10.89	29	14.20	29	1.0	89	-0.6	NA	NA	990.5	NA	NA		M	NA	NA	NA	NA
2019/11/22 20:30:00	AWS3	10.56	33	14.51	34	1.0	89	-0.6	NA	NA	990.6	NA	NA		M	NA	NA	NA	NA
2019/11/22 20:31:00	AWS3	10.83	29	14.51	34	1.1	89	-0.5	NA	NA	990.5	NA	NA		M	NA	NA	NA	NA
2019/11/22 20:32:00	AWS3	11.33	27	14.51	34	1.1	89	-0.5	NA	NA	990.5	NA	NA		M	NA	NA	NA	NA
2019/11/22 20:33:00	AWS3	11.06	29	14.51	34	1.1	89	-0.5	NA	NA	990.6	NA	NA		M	NA	NA	NA	NA
2019/11/22 20:34:00	AWS3	10.77	27	14.51	34	1.1	89	-0.5	NA	NA	990.6	NA	NA		M	NA	NA	NA	NA
2019/11/22 20:35:00	AWS3	11.44	27	14.51	34	1.1	89	-0.5	NA	NA	990.5	NA	NA		M	NA	NA	NA	NA
2019/11/22 20:36:00	AWS3	11.25	27	14.51	34	1.0	89	-0.5	NA	NA	990.7	NA	NA		M	NA	NA	NA	NA
2019/11/22 20:37:00	AWS3	10.08	28	14.51	34	1.0	89	-0.6	NA	NA	990.7	NA	NA		M	NA	NA	NA	NA
2019/11/22 20:38:00	AWS3	9.83	29	14.51	34	1.0	89	-0.6	NA	NA	990.7	NA	NA		M	NA	NA	NA	NA
2019/11/22 20:39:00	AWS3	10.08	29	14.51	34	1.0	89	-0.5	NA	NA	990.7	NA	NA		M	NA	NA	NA	NA
2019/11/22 20:40:00	AWS3	9.94	29	13.27	26	1.0	89	-0.5	NA	NA	990.8	NA	NA		M	NA	NA	NA	NA
2019/11/22 20:41:00	AWS3	9.97	28	13.27	26	1.1	90	-0.5	NA	NA	990.8	NA	NA		M	NA	NA	NA	NA
2019/11/22 20:42:00	AWS3	10.78	29	13.84	30	1.1	90	-0.4	NA	NA	990.6	NA	NA		M	NA	NA	NA	NA
2019/11/22 20:43:00	AWS3	10.94	29	13.84	30	1.1	90	-0.4	NA	NA	990.6	NA	NA		M	NA	NA	NA	NA
2019/11/22 20:44:00	AWS3	10.44	27	13.84	30	1.0	90	-0.4	NA	NA	990.7	NA	NA		M	NA	NA	NA	NA
2019/11/22 20:45:00	AWS3	9.98	28	13.84	30	1.0	90	-0.5	NA	NA	990.8	NA	NA		M	NA	NA	NA	NA
2019/11/22 20:46:00	AWS3	10.02	29	13.84	30	1.0	90	-0.5	NA	NA	990.7	NA	NA		M	NA	NA	NA	NA
2019/11/22 20:47:00	AWS3	10.45	29	13.84	30	0.9	90	-0.5	NA	NA	990.8	NA	NA		M	NA	NA	NA	NA
2019/11/22 20:48:00	AWS3	10.28	28	13.84	30	0.9	90	-0.5	NA	NA	990.8	NA	NA		M	NA	NA	NA	NA
2019/11/22 20:49:00	AWS3	9.84	30	13.84	30	0.9	90	-0.5	NA	NA	990.9	NA	NA		M	NA	NA	NA	NA
2019/11/22 20:50:00	AWS3	9.61	32	13.84	30	0.9	90	-0.5	NA	NA	990.9	NA	NA		M	NA	NA	NA	NA
2019/11/22 20:51:00	AWS3	10.24	29	13.84	30	0.9	90	-0.5	NA	NA	990.8	NA	NA		M	NA	NA	NA	NA
2019/11/22 20:52:00	AWS3	11.06	25	12.71	22	1.0	90	-0.4	NA	NA	990.7	NA	NA		M	NA	NA	NA	NA
2019/11/22 20:53:00	AWS3	10.95	29	13.53	37	1.0	90	-0.4	NA	NA	990.7	NA	NA		M	NA	NA	NA	NA
2019/11/22 20:54:00	AWS3	10.21	33	13.53	37	1.0	90	-0.4	NA	NA	990.9	NA	NA		M	NA	NA	NA	NA
2019/11/22 20:55:00	AWS3	10.30	29	13.53	37	1.0	90	-0.4	NA	NA	990.8	NA	NA		M	NA	NA	NA	NA
2019/11/22 20:56:00	AWS3	10.39	25	13.53	37	1.0	90	-0.4	NA	NA	990.9	NA	NA		M	NA	NA	NA	NA
2019/11/22 20:57:00	AWS3	9.74	26	13.53	37	1.0	90	-0.4	NA	NA	991.0	NA	NA		M	NA	NA	NA	NA
2019/11/22 20:58:00	AWS3	9.70	29	13.53	37	1.0	90	-0.4	NA	NA	990.9	NA	NA		M	NA	NA	NA	NA
2019/11/22 20:59:00	AWS3	10.02	31	13.53	37	1.0	91	-0.4	NA	NA	990.9	NA	NA		M	NA	NA	NA	NA
2019/11/22 21:00:00	AWS3	10.03	32	13.53	37	1.0	91	-0.3	NA	NA	991.0	NA	NA		M	NA	NA	NA	NA
2019/11/22 21:01:00	AWS3	9.99	33	13.53	37	1.0	91	-0.3	NA	NA	990.9	NA	NA		M	NA	NA	NA	NA
2019/11/22 21:02:00	AWS3	10.64	32	13.53	37	1.1	90	-0.3	NA	NA	990.9	NA	NA		M	NA	NA	NA	NA
2019/11/22 21:03:00	AWS3	10.55	32	13.12	40	1.2	90	-0.3	NA	NA	990.9	NA	NA		M	NA	NA	NA	NA
2019/11/22 21:04:00	AWS3	9.68	33	13.12	40	1.2	90	-0.3	NA	NA	991.0	NA	NA		M	NA	NA	NA	NA
2019/11/22 21:05:00	AWS3	9.44	29	13.12	40	1.2	89	-0.3	NA	NA	991.2	NA	NA		M	NA	NA	NA	NA
2019/11/22 21:06:00	AWS3	9.47	27	13.12	40	1.2	89	-0.4	NA	NA	991.2	NA	NA		M	NA	NA	NA	NA
2019/11/22 21:07:00	AWS3	9.15	27	13.12	40	1.2	89	-0.4	NA	NA	991.2	NA	NA		M	NA	NA	NA	NA
2019/11/22 21:08:00	AWS3	8.91	27	13.12	40	1.1	89	-0.5	NA	NA	991.3	NA	NA		M	NA	NA	NA	NA
2019/11/22 21:09:00	AWS3	10.29	29	13.43	37	1.1	89	-0.5	NA	NA	990.9	NA	NA		M	NA	NA	NA	NA
2019/11/22 21:10:00	AWS3	11.62	31	13.48	32	1.1	89	-0.5	NA	NA	990.9	NA	NA		M	NA	NA	NA	NA
2019/11/22 21:11:00	AWS3	11.29	30	13.48	32	1.1	89	-0.5	NA	NA	991.0	NA	NA		M	NA	NA	NA	NA
2019/11/22 21:12:00	AWS3	10.56	28	13.48	32	1.1	89	-0.5	NA	NA	991.2	NA	NA		M	NA	NA	NA	NA
2019/11/22 21:13:00	AWS3	10.25	29	13.48	32	1.1	89	-0.5	NA	NA	991.1	NA	NA		M	NA	NA	NA	NA
2019/11/22 21:14:00	AWS3	10.62	29	13.48	32	1.1	89	-0.6	NA	NA	991.1	NA	NA		M	NA	NA	NA	NA
2019/11/22 21:15:00	AWS3	10.70	28	13.48	32	1.0	89	-0.6	NA	NA	991.2	NA	NA		M	NA	NA	NA	NA
2019/11/22 21:16:00	AWS3	9.71	29	13.48	32	1.0	89	-0.6	NA	NA	991.3	NA	NA		M	NA	NA	NA	NA
2019/11/22 21:17:00	AWS3	9.85	29	13.48	32	1.0	89	-0.6	NA	NA	991.2	NA	NA		M	NA	NA	NA	NA
2019/11/22 21:18:00	AWS3	10.67	31	13.48	32	1.0	89	-0.6	NA	NA	991.2	NA	NA		M	NA	NA	NA	NA
2019/11/22 21:19:00	AWS3	10.76	29	13.48	32	1.0	89	-0.6	NA	NA	991.2	NA	NA		M	NA	NA	NA	NA
2019/11/22 21:20:00	AWS3	10.43	29	13.48	32	1.0	89	-0.6	NA	NA	991.2	NA	NA		M	NA	NA	NA	NA
2019/11/22 21:21:00	AWS3	10.13	32	13.12	30	1.0	89	-0.6	NA	NA	991.2	NA	NA		M	NA	NA	NA	NA
2019/11/22 21:22:00	AWS3	10.55	30	13.12	30	1.0	89	-0.6	NA	NA	991.1	NA	NA		M	NA	NA	NA	NA
2019/11/22 21:23:00	AWS3	10.74	28	13.12	30	1.1	89	-0.5	NA	NA	991.1	NA	NA		M	NA	NA	NA	NA
2019/11/22 21:24:00	AWS3	9.80	27	13.12	30	1.1	89	-0.6	NA	NA	991.2	NA	NA		M	NA	NA	NA	NA
2019/11/22 21:25:00	AWS3	8.99	29	13.12	30	1.1	89	-0.6	NA	NA	991.3	NA	NA		M	NA	NA	NA	NA
2019/11/22 21:26:00	AWS3	9.59	32	13.12	30	1.1	88	-0.6	NA	NA	991.2	NA	NA		M	NA	NA	NA	NA
2019/11/22 21:27:00	AWS3	10.45	34	12.81	29	1.1	88	-0.6	NA	NA	991.1	NA	NA		M	NA	NA	NA	NA
2019/11/22 21:28:00	AWS3	10.84	36	13.99	33	1.1	88	-0.6	NA	NA	991.1	NA	NA		M	NA	NA	NA	NA
2019/11/22 21:29:00	AWS3	11.13	37	14.04	47	1.2	88	-0.6	NA	NA	991.1	NA	NA		M	NA	NA	NA	NA
2019/11/22 21:30:00	AWS3	11.90	36	14.25	35	1.2	88	-0.6	NA	NA	990.8	NA	NA		M	NA	NA	NA	NA
2019/11/22 21:31:00	AWS3	11.74	33	14.25	35	1.2	88	-0.5	NA	NA	991.1	NA	NA		M	NA	NA	NA	NA
2019/11/22 21:32:00	AWS3	10.95	32	14.25	35	1.2	88	-0.5	NA	NA	991.1	NA	NA		M	NA	NA	NA	NA
2019/11/22 21:33:00	AWS3	10.93	34	14.25	35	1.3	88	-0.5	NA	NA	991.1	NA	NA		M	NA	NA	NA	NA
2019/11/22 21:34:00	AWS3	11.19	35	14.25	35	1.3	88	-0.5	NA	NA	991.0	NA	NA		M	NA	NA	NA	NA
2019/11/22 21:35:00	AWS3	12.00	34	14.25	35	1.3	88	-0.4	NA	NA	990.9	NA	NA		M	NA	NA	NA	NA
2019/11/22 21:36:00	AWS3	11.53	35	14.25	35	1.3	89	-0.4	NA	NA	991.3	NA	NA		M	NA	NA	NA	NA
2019/11/22 21:37:00	AWS3	10.30	36	14.25	35	1.3	89	-0.4	NA	NA	991.4	NA	NA		M	NA	NA	NA	NA
2019/11/22 21:38:00	AWS3	9.53	36	14.25	35	1.3	89	-0.4	NA	NA	991.6	NA	NA		M	NA	NA	NA	NA
2019/11/22 21:39:00	AWS3	9.31	36	14.25	35	1.3	89	-0.4	NA	NA	991.4	NA	NA		M	NA	NA	NA	NA
2019/11/22 21:40:00	AWS3	8.97	35	14.20	34	1.3	89	-0.4	NA	NA	991.7	NA	NA		M	NA	NA	NA	NA
2019/11/22 21:41:00	AWS3	9.15	34	14.20	34	1.2	89	-0.4	NA	NA	991.5	NA	NA		M	NA	NA	NA	NA
2019/11/22 21:42:00	AWS3	9.35	34	14.20	34	1.2	89	-0.4	NA	NA	991.6	NA	NA		M	NA	NA	NA	NA
2019/11/22 21:43:00	AWS3	9.05	35	14.20	34	1.1	89	-0.4	NA	NA	991.6	NA	NA		M	NA	NA	NA	NA
2019/11/22 21:44:00	AWS3	9.18	36	14.20	34	1.1	90	-0.4	NA	NA	991.6	NA	NA		M	NA	NA	NA	NA
2019/11/22 21:45:00	AWS3	9.25	34	13.02	44	1.1	90	-0.4	NA	NA	991.5	NA	NA		M	NA	NA	NA	NA
2019/11/22 21:46:00	AWS3	9.96	32	11.37	34	1.1	90	-0.4	NA	NA	991.5	NA	NA		M	NA	NA	NA	NA
2019/11/22 21:47:00	AWS3	9.46	32	11.37	34	1.2	90	-0.3	NA	NA	991.7	NA	NA		M	NA	NA	NA	NA
2019/11/22 21:48:00	AWS3	8.15	31	11.37	34	1.2	90	-0.3	NA	NA	991.8	NA	NA		M	NA	NA	NA	NA
2019/11/22 21:49:00	AWS3	8.32	31	11.63	45	1.2	90	-0.3	NA	NA	991.7	NA	NA		M	NA	NA	NA	NA
2019/11/22 21:50:00	AWS3	8.97	35	11.63	45	1.2	89	-0.3	NA	NA	991.7	NA	NA		M	NA	NA	NA	NA
2019/11/22 21:51:00	AWS3	9.03	31	11.63	45	1.2	89	-0.3	NA	NA	991.7	NA	NA		M	NA	NA	NA	NA
2019/11/22 21:52:00	AWS3	8.81	27	11.63	45	1.2	90	-0.3	NA	NA	991.8	NA	NA		M	NA	NA	NA	NA
2019/11/22 21:53:00	AWS3	8.65	27	11.63	45	1.2	90	-0.3	NA	NA	991.7	NA	NA		M	NA	NA	NA	NA
2019/11/22 21:54:00	AWS3	8.56	27	11.63	45	1.2	90	-0.3	NA	NA	991.8	NA	NA		M	NA	NA	NA	NA
2019/11/22 21:55:00	AWS3	8.12	29	11.63	45	1.2	90	-0.3	NA	NA	992.0	NA	NA		M	NA	NA	NA	NA
2019/11/22 21:56:00	AWS3	7.54	30	11.63	45	1.2	90	-0.3	NA	NA	991.9	NA	NA		M	NA	NA	NA	NA
2019/11/22 21:57:00	AWS3	7.65	29	11.63	45	1.1	90	-0.3	NA	NA	991.9	NA	NA		M	NA	NA	NA	NA
2019/11/22 21:58:00	AWS3	7.37	30	11.63	45	1.1	90	-0.3	NA	NA	992.0	NA	NA		M	NA	NA	NA	NA
2019/11/22 21:59:00	AWS3	7.07	27	11.06	25	1.1	90	-0.3	NA	NA	992.0	NA	NA		M	NA	NA	NA	NA
2019/11/22 22:00:00	AWS3	7.72	28	11.06	25	1.1	90	-0.4	NA	NA	991.8	NA	NA		M	NA	NA	NA	NA
2019/11/22 22:01:00	AWS3	8.03	29	10.08	24	1.0	90	-0.4	NA	NA	991.8	NA	NA		M	NA	NA	NA	NA
2019/11/22 22:02:00	AWS3	8.89	27	11.42	31	1.0	90	-0.4	NA	NA	991.7	NA	NA		M	NA	NA	NA	NA
2019/11/22 22:03:00	AWS3	9.87	29	11.42	31	1.0	91	-0.4	NA	NA	991.6	NA	NA		M	NA	NA	NA	NA
2019/11/22 22:04:00	AWS3	9.73	29	11.42	31	0.9	91	-0.4	NA	NA	991.8	NA	NA		M	NA	NA	NA	NA
2019/11/22 22:05:00	AWS3	9.62	24	11.42	31	0.9	91	-0.4	NA	NA	991.8	NA	NA		M	NA	NA	NA	NA
2019/11/22 22:06:00	AWS3	9.03	23	11.42	31	0.9	91	-0.4	NA	NA	991.9	NA	NA		M	NA	NA	NA	NA
2019/11/22 22:07:00	AWS3	9.12	24	11.42	31	0.9	91	-0.5	NA	NA	991.8	NA	NA		M	NA	NA	NA	NA
2019/11/22 22:08:00	AWS3	9.70	24	11.42	31	0.9	91	-0.5	NA	NA	991.8	NA	NA		M	NA	NA	NA	NA
2019/11/22 22:09:00	AWS3	9.04	25	11.42	31	0.9	91	-0.5	NA	NA	991.9	NA	NA		M	NA	NA	NA	NA
2019/11/22 22:10:00	AWS3	9.23	27	11.42	31	0.9	90	-0.5	NA	NA	991.9	NA	NA		M	NA	NA	NA	NA
2019/11/22 22:11:00	AWS3	9.54	29	11.42	31	0.8	90	-0.6	NA	NA	992.0	NA	NA		M	NA	NA	NA	NA
2019/11/22 22:12:00	AWS3	9.49	30	11.21	33	0.8	90	-0.6	NA	NA	991.9	NA	NA		M	NA	NA	NA	NA
2019/11/22 22:13:00	AWS3	9.83	28	11.21	33	0.8	90	-0.6	NA	NA	991.8	NA	NA		M	NA	NA	NA	NA
2019/11/22 22:14:00	AWS3	10.60	27	12.71	24	0.7	91	-0.6	NA	NA	991.6	NA	NA		M	NA	NA	NA	NA
2019/11/22 22:15:00	AWS3	10.99	30	12.71	24	0.7	91	-0.6	NA	NA	991.7	NA	NA		M	NA	NA	NA	NA
2019/11/22 22:16:00	AWS3	10.30	32	12.71	24	0.7	91	-0.6	NA	NA	991.8	NA	NA		M	NA	NA	NA	NA
2019/11/22 22:17:00	AWS3	9.55	30	12.71	24	0.7	91	-0.6	NA	NA	991.9	NA	NA		M	NA	NA	NA	NA
2019/11/22 22:18:00	AWS3	9.69	27	12.71	24	0.7	91	-0.6	NA	NA	991.8	NA	NA		M	NA	NA	NA	NA
2019/11/22 22:19:00	AWS3	10.42	28	12.81	29	0.7	91	-0.6	NA	NA	991.8	NA	NA		M	NA	NA	NA	NA
2019/11/22 22:20:00	AWS3	9.95	26	12.81	29	0.7	91	-0.6	NA	NA	992.1	NA	NA		M	NA	NA	NA	NA
2019/11/22 22:21:00	AWS3	8.77	27	12.81	29	0.7	91	-0.6	NA	NA	992.1	NA	NA		M	NA	NA	NA	NA
2019/11/22 22:22:00	AWS3	8.84	29	12.81	29	0.7	91	-0.6	NA	NA	992.0	NA	NA		M	NA	NA	NA	NA
2019/11/22 22:23:00	AWS3	9.57	28	12.81	29	0.6	91	-0.6	NA	NA	991.8	NA	NA		M	NA	NA	NA	NA
2019/11/22 22:24:00	AWS3	9.61	29	12.81	29	0.6	91	-0.6	NA	NA	991.9	NA	NA		M	NA	NA	NA	NA
2019/11/22 22:25:00	AWS3	9.18	29	12.81	29	0.6	92	-0.6	NA	NA	992.1	NA	NA		M	NA	NA	NA	NA
2019/11/22 22:26:00	AWS3	9.16	29	12.81	29	0.6	92	-0.6	NA	NA	992.0	NA	NA		M	NA	NA	NA	NA
2019/11/22 22:27:00	AWS3	9.60	29	12.81	29	0.6	92	-0.5	NA	NA	992.0	NA	NA		M	NA	NA	NA	NA
2019/11/22 22:28:00	AWS3	9.14	29	12.81	29	0.6	92	-0.5	NA	NA	992.0	NA	NA		M	NA	NA	NA	NA
2019/11/22 22:29:00	AWS3	8.06	28	11.99	32	0.6	92	-0.5	NA	NA	992.2	NA	NA		M	NA	NA	NA	NA
2019/11/22 22:30:00	AWS3	8.13	28	11.99	32	0.6	92	-0.6	NA	NA	992.1	NA	NA		M	NA	NA	NA	NA
2019/11/22 22:31:00	AWS3	8.79	29	12.14	31	0.6	92	-0.6	NA	NA	992.0	NA	NA		M	NA	NA	NA	NA
2019/11/22 22:32:00	AWS3	9.65	29	12.14	31	0.6	92	-0.5	NA	NA	991.8	NA	NA		M	NA	NA	NA	NA
2019/11/22 22:33:00	AWS3	9.92	29	12.14	31	0.6	92	-0.5	NA	NA	991.9	NA	NA		M	NA	NA	NA	NA
2019/11/22 22:34:00	AWS3	9.96	29	12.14	31	0.7	92	-0.4	NA	NA	991.8	NA	NA		M	NA	NA	NA	NA
2019/11/22 22:35:00	AWS3	10.20	30	12.14	31	0.8	92	-0.4	NA	NA	991.7	NA	NA		M	NA	NA	NA	NA
2019/11/22 22:36:00	AWS3	10.28	32	12.66	22	0.8	92	-0.3	NA	NA	991.8	NA	NA		M	NA	NA	NA	NA
2019/11/22 22:37:00	AWS3	10.55	30	12.66	22	0.9	92	-0.3	NA	NA	991.8	NA	NA		M	NA	NA	NA	NA
2019/11/22 22:38:00	AWS3	10.17	28	12.66	22	0.9	91	-0.3	NA	NA	991.9	NA	NA		M	NA	NA	NA	NA
2019/11/22 22:39:00	AWS3	9.58	31	12.66	22	1.0	91	-0.4	NA	NA	992.0	NA	NA		M	NA	NA	NA	NA
2019/11/22 22:40:00	AWS3	9.54	32	12.66	22	0.9	90	-0.4	NA	NA	991.8	NA	NA		M	NA	NA	NA	NA
2019/11/22 22:41:00	AWS3	9.24	31	12.66	22	0.9	90	-0.5	NA	NA	992.1	NA	NA		M	NA	NA	NA	NA
2019/11/22 22:42:00	AWS3	9.03	29	12.66	22	0.8	90	-0.6	NA	NA	992.0	NA	NA		M	NA	NA	NA	NA
2019/11/22 22:43:00	AWS3	9.29	26	12.66	22	0.8	90	-0.6	NA	NA	992.0	NA	NA		M	NA	NA	NA	NA
2019/11/22 22:44:00	AWS3	8.70	24	12.66	22	0.8	91	-0.6	NA	NA	992.2	NA	NA		M	NA	NA	NA	NA
2019/11/22 22:45:00	AWS3	8.94	20	12.66	22	0.7	91	-0.6	NA	NA	992.1	NA	NA		M	NA	NA	NA	NA
2019/11/22 22:46:00	AWS3	9.38	21	11.68	36	0.7	91	-0.5	NA	NA	992.1	NA	NA		M	NA	NA	NA	NA
2019/11/22 22:47:00	AWS3	9.13	23	11.63	32	0.7	91	-0.5	NA	NA	992.1	NA	NA		M	NA	NA	NA	NA
2019/11/22 22:48:00	AWS3	9.35	21	11.63	32	0.7	91	-0.6	NA	NA	991.9	NA	NA		M	NA	NA	NA	NA
2019/11/22 22:49:00	AWS3	9.72	22	11.63	32	0.7	91	-0.6	NA	NA	992.0	NA	NA		M	NA	NA	NA	NA
2019/11/22 22:50:00	AWS3	10.26	23	12.14	27	0.6	91	-0.6	NA	NA	992.0	NA	NA		M	NA	NA	NA	NA
2019/11/22 22:51:00	AWS3	9.66	23	12.14	27	0.6	91	-0.7	NA	NA	992.1	NA	NA		M	NA	NA	NA	NA
2019/11/22 22:52:00	AWS3	8.99	20	12.14	27	0.5	91	-0.7	NA	NA	992.1	NA	NA		M	NA	NA	NA	NA
2019/11/22 22:53:00	AWS3	9.10	19	12.14	27	0.5	92	-0.7	NA	NA	992.2	NA	NA		M	NA	NA	NA	NA
2019/11/22 22:54:00	AWS3	8.74	20	12.14	27	0.4	92	-0.7	NA	NA	992.3	NA	NA		M	NA	NA	NA	NA
2019/11/22 22:55:00	AWS3	8.75	19	12.14	27	0.4	92	-0.7	NA	NA	992.2	NA	NA		M	NA	NA	NA	NA
2019/11/22 22:56:00	AWS3	9.51	18	12.14	27	0.4	92	-0.7	NA	NA	992.1	NA	NA		M	NA	NA	NA	NA
2019/11/22 22:57:00	AWS3	9.51	19	12.14	27	0.3	93	-0.7	NA	NA	992.3	NA	NA		M	NA	NA	NA	NA
2019/11/22 22:58:00	AWS3	9.67	19	12.14	27	0.3	93	-0.7	NA	NA	992.1	NA	NA		M	NA	NA	NA	NA
2019/11/22 22:59:00	AWS3	10.75	18	12.45	20	0.3	93	-0.7	NA	NA	992.1	NA	NA		M	NA	NA	NA	NA
2019/11/22 23:00:00	AWS3	11.09	20	12.45	20	0.3	93	-0.7	NA	NA	992.1	NA	NA		M	NA	NA	NA	NA
2019/11/22 23:01:00	AWS3	10.92	20	12.45	20	0.3	94	-0.7	NA	NA	992.2	NA	NA		M	NA	NA	NA	NA
2019/11/22 23:02:00	AWS3	9.87	18	12.45	20	0.2	94	-0.6	NA	NA	992.4	NA	NA		M	NA	NA	NA	NA
2019/11/22 23:03:00	AWS3	9.29	18	12.45	20	0.2	94	-0.6	NA	NA	992.0	NA	NA		M	NA	NA	NA	NA
2019/11/22 23:04:00	AWS3	10.39	21	12.45	20	0.2	94	-0.6	NA	NA	992.1	NA	NA		M	NA	NA	NA	NA
2019/11/22 23:05:00	AWS3	10.98	24	12.45	20	0.2	95	-0.6	NA	NA	992.2	NA	NA		M	NA	NA	NA	NA
2019/11/22 23:06:00	AWS3	10.02	26	12.45	20	0.2	95	-0.5	NA	NA	992.4	NA	NA		M	NA	NA	NA	NA
2019/11/22 23:07:00	AWS3	10.17	28	12.50	39	0.2	95	-0.5	NA	NA	992.2	NA	NA		M	NA	NA	NA	NA
2019/11/22 23:08:00	AWS3	10.37	32	12.50	39	0.2	95	-0.5	NA	NA	992.3	NA	NA		M	NA	NA	NA	NA
2019/11/22 23:09:00	AWS3	9.72	33	12.50	39	0.3	95	-0.5	NA	NA	992.3	NA	NA		M	NA	NA	NA	NA
2019/11/22 23:10:00	AWS3	10.38	31	12.91	38	0.3	95	-0.4	NA	NA	992.2	NA	NA		M	NA	NA	NA	NA
2019/11/22 23:11:00	AWS3	10.37	30	12.91	38	0.3	95	-0.4	NA	NA	992.4	NA	NA		M	NA	NA	NA	NA
2019/11/22 23:12:00	AWS3	9.53	26	12.91	38	0.3	95	-0.4	NA	NA	992.4	NA	NA		M	NA	NA	NA	NA
2019/11/22 23:13:00	AWS3	9.44	25	12.91	38	0.4	95	-0.4	NA	NA	992.3	NA	NA		M	NA	NA	NA	NA
2019/11/22 23:14:00	AWS3	9.41	29	12.91	38	0.4	94	-0.4	NA	NA	992.2	NA	NA		M	NA	NA	NA	NA
2019/11/22 23:15:00	AWS3	10.09	28	13.43	25	0.4	94	-0.4	NA	NA	992.1	NA	NA		M	NA	NA	NA	NA
2019/11/22 23:16:00	AWS3	10.69	27	13.43	25	0.4	94	-0.5	NA	NA	992.2	NA	NA		M	NA	NA	NA	NA
2019/11/22 23:17:00	AWS3	10.75	28	13.43	25	0.4	94	-0.5	NA	NA	992.1	NA	NA		M	NA	NA	NA	NA
2019/11/22 23:18:00	AWS3	10.43	29	13.43	25	0.4	93	-0.5	NA	NA	992.3	NA	NA		M	NA	NA	NA	NA
2019/11/22 23:19:00	AWS3	9.98	29	13.43	25	0.5	93	-0.5	NA	NA	992.2	NA	NA		M	NA	NA	NA	NA
2019/11/22 23:20:00	AWS3	10.80	27	14.15	27	0.5	93	-0.5	NA	NA	992.1	NA	NA		M	NA	NA	NA	NA
2019/11/22 23:21:00	AWS3	11.37	27	14.15	27	0.5	93	-0.5	NA	NA	992.1	NA	NA		M	NA	NA	NA	NA
2019/11/22 23:22:00	AWS3	10.64	28	14.15	27	0.5	93	-0.5	NA	NA	992.4	NA	NA		M	NA	NA	NA	NA
2019/11/22 23:23:00	AWS3	10.55	28	14.15	27	0.5	93	-0.5	NA	NA	992.1	NA	NA		M	NA	NA	NA	NA
2019/11/22 23:24:00	AWS3	11.18	28	14.15	27	0.5	93	-0.5	NA	NA	992.1	NA	NA		M	NA	NA	NA	NA
2019/11/22 23:25:00	AWS3	11.23	30	14.15	27	0.5	94	-0.4	NA	NA	992.2	NA	NA		M	NA	NA	NA	NA
2019/11/22 23:26:00	AWS3	10.36	31	14.15	27	0.4	94	-0.4	NA	NA	992.3	NA	NA		M	NA	NA	NA	NA
2019/11/22 23:27:00	AWS3	10.31	31	14.15	27	0.4	95	-0.4	NA	NA	992.2	NA	NA		M	NA	NA	NA	NA
2019/11/22 23:28:00	AWS3	11.21	33	14.15	27	0.4	95	-0.3	NA	NA	992.2	NA	NA		M	NA	NA	NA	NA
2019/11/22 23:29:00	AWS3	10.12	32	14.15	27	0.4	95	-0.3	NA	NA	992.5	NA	NA		M	NA	NA	NA	NA
2019/11/22 23:30:00	AWS3	9.96	30	13.32	34	0.4	95	-0.2	NA	NA	992.1	NA	NA		M	NA	NA	NA	NA
2019/11/22 23:31:00	AWS3	11.11	30	13.38	26	0.5	96	-0.2	NA	NA	992.3	NA	NA		M	NA	NA	NA	NA
2019/11/22 23:32:00	AWS3	10.87	29	13.38	26	0.5	96	-0.1	NA	NA	992.4	NA	NA		M	NA	NA	NA	NA
2019/11/22 23:33:00	AWS3	10.86	27	13.38	26	0.5	96	-0.1	NA	NA	992.3	NA	NA		M	NA	NA	NA	NA
2019/11/22 23:34:00	AWS3	10.83	25	13.38	26	0.5	96	-0.1	NA	NA	992.4	NA	NA		M	NA	NA	NA	NA
2019/11/22 23:35:00	AWS3	11.16	26	13.38	26	0.5	96	-0.1	NA	NA	992.2	NA	NA		M	NA	NA	NA	NA
2019/11/22 23:36:00	AWS3	11.45	30	13.38	26	0.5	96	-0.1	NA	NA	992.4	NA	NA		M	NA	NA	NA	NA
2019/11/22 23:37:00	AWS3	11.31	32	13.38	26	0.5	96	-0.1	NA	NA	992.2	NA	NA		M	NA	NA	NA	NA
2019/11/22 23:38:00	AWS3	11.14	32	13.38	26	0.5	96	-0.1	NA	NA	992.4	NA	NA		M	NA	NA	NA	NA
2019/11/22 23:39:00	AWS3	10.46	33	13.38	26	0.5	96	-0.1	NA	NA	992.4	NA	NA		M	NA	NA	NA	NA
2019/11/22 23:40:00	AWS3	10.26	32	13.38	26	0.5	96	-0.1	NA	NA	992.5	NA	NA		M	NA	NA	NA	NA
2019/11/22 23:41:00	AWS3	9.90	30	13.27	29	0.5	96	-0.0	NA	NA	992.6	NA	NA		M	NA	NA	NA	NA
2019/11/22 23:42:00	AWS3	9.57	34	13.27	29	0.5	96	-0.0	NA	NA	992.5	NA	NA		M	NA	NA	NA	NA
2019/11/22 23:43:00	AWS3	9.75	35	13.27	29	0.5	96	-0.1	NA	NA	992.5	NA	NA		M	NA	NA	NA	NA
2019/11/22 23:44:00	AWS3	9.46	31	13.27	29	0.5	96	-0.1	NA	NA	992.6	NA	NA		M	NA	NA	NA	NA
2019/11/22 23:45:00	AWS3	8.86	33	12.55	30	0.5	96	-0.1	NA	NA	992.6	NA	NA		M	NA	NA	NA	NA
2019/11/22 23:46:00	AWS3	8.79	35	12.55	30	0.5	96	-0.1	NA	NA	992.7	NA	NA		M	NA	NA	NA	NA
2019/11/22 23:47:00	AWS3	8.77	34	12.24	31	0.5	96	-0.1	NA	NA	992.6	NA	NA		M	NA	NA	NA	NA
2019/11/22 23:48:00	AWS3	9.27	34	12.19	25	0.4	96	-0.1	NA	NA	992.5	NA	NA		M	NA	NA	NA	NA
2019/11/22 23:49:00	AWS3	9.66	33	12.19	25	0.4	96	-0.1	NA	NA	992.4	NA	NA		M	NA	NA	NA	NA
2019/11/22 23:50:00	AWS3	9.46	34	11.99	23	0.4	96	-0.1	NA	NA	992.6	NA	NA		M	NA	NA	NA	NA
2019/11/22 23:51:00	AWS3	9.70	35	11.99	23	0.4	96	-0.1	NA	NA	992.7	NA	NA		M	NA	NA	NA	NA
2019/11/22 23:52:00	AWS3	9.56	33	11.99	23	0.4	96	-0.2	NA	NA	992.8	NA	NA		M	NA	NA	NA	NA
2019/11/22 23:53:00	AWS3	9.15	32	11.99	23	0.4	96	-0.2	NA	NA	992.8	NA	NA		M	NA	NA	NA	NA
2019/11/22 23:54:00	AWS3	9.23	31	11.88	35	0.4	96	-0.2	NA	NA	992.8	NA	NA		M	NA	NA	NA	NA
2019/11/22 23:55:00	AWS3	8.83	31	11.88	35	0.4	96	-0.2	NA	NA	993.0	NA	NA		M	NA	NA	NA	NA
2019/11/22 23:56:00	AWS3	9.06	32	11.88	35	0.3	96	-0.2	NA	NA	992.6	NA	NA		M	NA	NA	NA	NA
2019/11/22 23:57:00	AWS3	10.12	29	11.88	35	0.4	96	-0.2	NA	NA	992.7	NA	NA		M	NA	NA	NA	NA
2019/11/22 23:58:00	AWS3	10.21	30	11.73	37	0.4	96	-0.2	NA	NA	992.7	NA	NA		M	NA	NA	NA	NA
2019/11/22 23:59:00	AWS3	9.89	28	11.73	37	0.4	96	-0.2	NA	NA	992.7	NA	NA		M	NA	NA	NA	NA